<?xml version="1.0" encoding="UTF-8" standalone="no" ?>
<gpx xmlns="http://www.topografix.com/GPX/1/1" xmlns:xsi="http://www.w3.org/2001/XMLSchema-instance" xsi:schemaLocation="http://www.topografix.com/GPX/1/1 http://www.topografix.com/GPX/1/1/gpx.xsd" version="1.1" creator="VisuGPX - https://www.visugpx.com">
  <metadata>
    <name>1 journée au départ de BONNIEUX 84</name>
    <desc><![CDATA[circuit d\'une journée au départ de Bonnieux]]></desc>
  </metadata>
  <trk>
    <name><![CDATA[2010-10-03-ADTEV]]></name>
    <trkseg>
      <trkpt lat="43.82029" lon="5.30935">
        <ele>346.5</ele>
        <time>2010-10-03T07:21:45Z</time>
      </trkpt>
      <trkpt lat="43.82029" lon="5.30936">
        <ele>347.1</ele>
        <time>2010-10-03T07:21:46Z</time>
      </trkpt>
      <trkpt lat="43.82027" lon="5.30937">
        <ele>350.6</ele>
        <time>2010-10-03T07:21:50Z</time>
      </trkpt>
      <trkpt lat="43.82027" lon="5.30937">
        <ele>351.4</ele>
        <time>2010-10-03T07:21:51Z</time>
      </trkpt>
      <trkpt lat="43.82027" lon="5.30937">
        <ele>352</ele>
        <time>2010-10-03T07:21:52Z</time>
      </trkpt>
      <trkpt lat="43.82019" lon="5.30931">
        <ele>372.1</ele>
        <time>2010-10-03T07:22:52Z</time>
      </trkpt>
      <trkpt lat="43.82019" lon="5.3093">
        <ele>371.6</ele>
        <time>2010-10-03T07:22:53Z</time>
      </trkpt>
      <trkpt lat="43.82012" lon="5.3094">
        <ele>336</ele>
        <time>2010-10-03T07:24:16Z</time>
      </trkpt>
      <trkpt lat="43.81998" lon="5.30952">
        <ele>334.7</ele>
        <time>2010-10-03T07:24:31Z</time>
      </trkpt>
      <trkpt lat="43.82006" lon="5.30947">
        <ele>330.5</ele>
        <time>2010-10-03T07:25:02Z</time>
      </trkpt>
      <trkpt lat="43.82014" lon="5.30942">
        <ele>327.4</ele>
        <time>2010-10-03T07:25:10Z</time>
      </trkpt>
      <trkpt lat="43.82021" lon="5.30934">
        <ele>327.5</ele>
        <time>2010-10-03T07:25:16Z</time>
      </trkpt>
      <trkpt lat="43.82022" lon="5.30933">
        <ele>327.7</ele>
        <time>2010-10-03T07:25:17Z</time>
      </trkpt>
      <trkpt lat="43.82035" lon="5.30922">
        <ele>328.1</ele>
        <time>2010-10-03T07:25:34Z</time>
      </trkpt>
      <trkpt lat="43.82029" lon="5.30932">
        <ele>351</ele>
        <time>2010-10-03T07:26:22Z</time>
      </trkpt>
      <trkpt lat="43.82027" lon="5.30934">
        <ele>352.4</ele>
        <time>2010-10-03T07:26:26Z</time>
      </trkpt>
      <trkpt lat="43.82029" lon="5.30934">
        <ele>359.4</ele>
        <time>2010-10-03T07:26:50Z</time>
      </trkpt>
      <trkpt lat="43.82033" lon="5.30923">
        <ele>341.6</ele>
        <time>2010-10-03T07:27:04Z</time>
      </trkpt>
      <trkpt lat="43.8203" lon="5.30913">
        <ele>345.3</ele>
        <time>2010-10-03T07:27:22Z</time>
      </trkpt>
      <trkpt lat="43.82028" lon="5.30925">
        <ele>353.7</ele>
        <time>2010-10-03T07:28:53Z</time>
      </trkpt>
      <trkpt lat="43.82028" lon="5.30925">
        <ele>354</ele>
        <time>2010-10-03T07:28:54Z</time>
      </trkpt>
      <trkpt lat="43.82013" lon="5.30929">
        <ele>337.7</ele>
        <time>2010-10-03T07:30:59Z</time>
      </trkpt>
      <trkpt lat="43.82013" lon="5.3093">
        <ele>337.8</ele>
        <time>2010-10-03T07:31:00Z</time>
      </trkpt>
      <trkpt lat="43.82015" lon="5.30934">
        <ele>339</ele>
        <time>2010-10-03T07:32:09Z</time>
      </trkpt>
      <trkpt lat="43.82016" lon="5.30934">
        <ele>338.7</ele>
        <time>2010-10-03T07:32:10Z</time>
      </trkpt>
      <trkpt lat="43.82023" lon="5.3093">
        <ele>338.9</ele>
        <time>2010-10-03T07:34:46Z</time>
      </trkpt>
      <trkpt lat="43.82021" lon="5.30917">
        <ele>339</ele>
        <time>2010-10-03T07:39:04Z</time>
      </trkpt>
      <trkpt lat="43.82036" lon="5.30908">
        <ele>338.1</ele>
        <time>2010-10-03T07:39:19Z</time>
      </trkpt>
      <trkpt lat="43.82043" lon="5.30904">
        <ele>337.9</ele>
        <time>2010-10-03T07:39:26Z</time>
      </trkpt>
      <trkpt lat="43.82052" lon="5.30901">
        <ele>339.1</ele>
        <time>2010-10-03T07:39:53Z</time>
      </trkpt>
      <trkpt lat="43.8206" lon="5.30897">
        <ele>337.1</ele>
        <time>2010-10-03T07:42:33Z</time>
      </trkpt>
      <trkpt lat="43.82061" lon="5.30896">
        <ele>336.9</ele>
        <time>2010-10-03T07:42:34Z</time>
      </trkpt>
      <trkpt lat="43.82062" lon="5.30883">
        <ele>335.4</ele>
        <time>2010-10-03T07:43:07Z</time>
      </trkpt>
      <trkpt lat="43.82053" lon="5.30881">
        <ele>335.4</ele>
        <time>2010-10-03T07:43:14Z</time>
      </trkpt>
      <trkpt lat="43.82045" lon="5.30877">
        <ele>335</ele>
        <time>2010-10-03T07:43:20Z</time>
      </trkpt>
      <trkpt lat="43.82039" lon="5.30871">
        <ele>334.5</ele>
        <time>2010-10-03T07:43:26Z</time>
      </trkpt>
      <trkpt lat="43.82031" lon="5.30865">
        <ele>334.3</ele>
        <time>2010-10-03T07:43:31Z</time>
      </trkpt>
      <trkpt lat="43.82024" lon="5.3086">
        <ele>334.8</ele>
        <time>2010-10-03T07:43:37Z</time>
      </trkpt>
      <trkpt lat="43.82023" lon="5.30859">
        <ele>335</ele>
        <time>2010-10-03T07:43:38Z</time>
      </trkpt>
      <trkpt lat="43.82017" lon="5.3084">
        <ele>336.7</ele>
        <time>2010-10-03T07:43:49Z</time>
      </trkpt>
      <trkpt lat="43.82016" lon="5.3083">
        <ele>338.3</ele>
        <time>2010-10-03T07:43:55Z</time>
      </trkpt>
      <trkpt lat="43.82013" lon="5.3082">
        <ele>339.2</ele>
        <time>2010-10-03T07:44:01Z</time>
      </trkpt>
      <trkpt lat="43.82013" lon="5.30808">
        <ele>340</ele>
        <time>2010-10-03T07:44:07Z</time>
      </trkpt>
      <trkpt lat="43.82014" lon="5.30796">
        <ele>340.5</ele>
        <time>2010-10-03T07:44:13Z</time>
      </trkpt>
      <trkpt lat="43.82012" lon="5.30784">
        <ele>341</ele>
        <time>2010-10-03T07:44:19Z</time>
      </trkpt>
      <trkpt lat="43.82011" lon="5.30773">
        <ele>342.1</ele>
        <time>2010-10-03T07:44:24Z</time>
      </trkpt>
      <trkpt lat="43.82011" lon="5.30761">
        <ele>342.6</ele>
        <time>2010-10-03T07:44:29Z</time>
      </trkpt>
      <trkpt lat="43.82007" lon="5.30751">
        <ele>343.7</ele>
        <time>2010-10-03T07:44:36Z</time>
      </trkpt>
      <trkpt lat="43.82003" lon="5.30741">
        <ele>345.1</ele>
        <time>2010-10-03T07:44:43Z</time>
      </trkpt>
      <trkpt lat="43.82002" lon="5.3074">
        <ele>345.2</ele>
        <time>2010-10-03T07:44:44Z</time>
      </trkpt>
      <trkpt lat="43.81989" lon="5.3073">
        <ele>348.2</ele>
        <time>2010-10-03T07:45:44Z</time>
      </trkpt>
      <trkpt lat="43.81988" lon="5.3073">
        <ele>348.2</ele>
        <time>2010-10-03T07:45:45Z</time>
      </trkpt>
      <trkpt lat="43.81974" lon="5.30742">
        <ele>354.9</ele>
        <time>2010-10-03T07:46:15Z</time>
      </trkpt>
      <trkpt lat="43.81965" lon="5.30742">
        <ele>358.6</ele>
        <time>2010-10-03T07:46:22Z</time>
      </trkpt>
      <trkpt lat="43.81957" lon="5.30743">
        <ele>363</ele>
        <time>2010-10-03T07:46:33Z</time>
      </trkpt>
      <trkpt lat="43.81949" lon="5.30745">
        <ele>367.1</ele>
        <time>2010-10-03T07:46:42Z</time>
      </trkpt>
      <trkpt lat="43.81942" lon="5.30745">
        <ele>368.3</ele>
        <time>2010-10-03T07:46:47Z</time>
      </trkpt>
      <trkpt lat="43.8194" lon="5.30745">
        <ele>368.6</ele>
        <time>2010-10-03T07:46:48Z</time>
      </trkpt>
      <trkpt lat="43.81926" lon="5.30746">
        <ele>371.9</ele>
        <time>2010-10-03T07:46:58Z</time>
      </trkpt>
      <trkpt lat="43.81918" lon="5.30746">
        <ele>373</ele>
        <time>2010-10-03T07:47:05Z</time>
      </trkpt>
      <trkpt lat="43.8191" lon="5.30741">
        <ele>373.9</ele>
        <time>2010-10-03T07:47:12Z</time>
      </trkpt>
      <trkpt lat="43.81903" lon="5.30736">
        <ele>374.7</ele>
        <time>2010-10-03T07:47:19Z</time>
      </trkpt>
      <trkpt lat="43.81903" lon="5.30748">
        <ele>377.1</ele>
        <time>2010-10-03T07:47:28Z</time>
      </trkpt>
      <trkpt lat="43.81897" lon="5.30757">
        <ele>379.1</ele>
        <time>2010-10-03T07:47:37Z</time>
      </trkpt>
      <trkpt lat="43.81891" lon="5.30765">
        <ele>380.4</ele>
        <time>2010-10-03T07:47:46Z</time>
      </trkpt>
      <trkpt lat="43.81884" lon="5.30772">
        <ele>381.3</ele>
        <time>2010-10-03T07:47:54Z</time>
      </trkpt>
      <trkpt lat="43.81884" lon="5.30774">
        <ele>381.4</ele>
        <time>2010-10-03T07:47:55Z</time>
      </trkpt>
      <trkpt lat="43.81871" lon="5.30785">
        <ele>384.2</ele>
        <time>2010-10-03T07:48:06Z</time>
      </trkpt>
      <trkpt lat="43.81864" lon="5.30792">
        <ele>386</ele>
        <time>2010-10-03T07:48:13Z</time>
      </trkpt>
      <trkpt lat="43.81856" lon="5.30797">
        <ele>387.6</ele>
        <time>2010-10-03T07:48:20Z</time>
      </trkpt>
      <trkpt lat="43.81848" lon="5.30799">
        <ele>389.6</ele>
        <time>2010-10-03T07:48:26Z</time>
      </trkpt>
      <trkpt lat="43.8184" lon="5.30801">
        <ele>391.1</ele>
        <time>2010-10-03T07:48:32Z</time>
      </trkpt>
      <trkpt lat="43.81832" lon="5.30801">
        <ele>393.1</ele>
        <time>2010-10-03T07:48:39Z</time>
      </trkpt>
      <trkpt lat="43.81823" lon="5.30803">
        <ele>394.6</ele>
        <time>2010-10-03T07:48:45Z</time>
      </trkpt>
      <trkpt lat="43.81815" lon="5.30805">
        <ele>396.2</ele>
        <time>2010-10-03T07:48:52Z</time>
      </trkpt>
      <trkpt lat="43.81806" lon="5.30806">
        <ele>397.7</ele>
        <time>2010-10-03T07:48:58Z</time>
      </trkpt>
      <trkpt lat="43.81805" lon="5.30806">
        <ele>397.8</ele>
        <time>2010-10-03T07:48:59Z</time>
      </trkpt>
      <trkpt lat="43.8179" lon="5.30809">
        <ele>401.9</ele>
        <time>2010-10-03T07:49:14Z</time>
      </trkpt>
      <trkpt lat="43.81782" lon="5.30812">
        <ele>403.9</ele>
        <time>2010-10-03T07:49:20Z</time>
      </trkpt>
      <trkpt lat="43.81774" lon="5.30816">
        <ele>405</ele>
        <time>2010-10-03T07:49:27Z</time>
      </trkpt>
      <trkpt lat="43.81767" lon="5.3082">
        <ele>407.4</ele>
        <time>2010-10-03T07:49:35Z</time>
      </trkpt>
      <trkpt lat="43.81759" lon="5.30824">
        <ele>409.3</ele>
        <time>2010-10-03T07:49:44Z</time>
      </trkpt>
      <trkpt lat="43.81752" lon="5.30829">
        <ele>410.4</ele>
        <time>2010-10-03T07:49:49Z</time>
      </trkpt>
      <trkpt lat="43.81744" lon="5.30834">
        <ele>412.3</ele>
        <time>2010-10-03T07:49:55Z</time>
      </trkpt>
      <trkpt lat="43.81736" lon="5.3084">
        <ele>413.5</ele>
        <time>2010-10-03T07:50:02Z</time>
      </trkpt>
      <trkpt lat="43.81735" lon="5.30841">
        <ele>413.8</ele>
        <time>2010-10-03T07:50:03Z</time>
      </trkpt>
      <trkpt lat="43.8172" lon="5.30848">
        <ele>416.1</ele>
        <time>2010-10-03T07:50:18Z</time>
      </trkpt>
      <trkpt lat="43.81712" lon="5.30851">
        <ele>417.2</ele>
        <time>2010-10-03T07:50:22Z</time>
      </trkpt>
      <trkpt lat="43.81704" lon="5.30854">
        <ele>418.4</ele>
        <time>2010-10-03T07:50:28Z</time>
      </trkpt>
      <trkpt lat="43.81697" lon="5.30858">
        <ele>418.5</ele>
        <time>2010-10-03T07:50:34Z</time>
      </trkpt>
      <trkpt lat="43.81689" lon="5.30864">
        <ele>420</ele>
        <time>2010-10-03T07:50:41Z</time>
      </trkpt>
      <trkpt lat="43.8169" lon="5.30875">
        <ele>421.4</ele>
        <time>2010-10-03T07:50:48Z</time>
      </trkpt>
      <trkpt lat="43.8169" lon="5.30887">
        <ele>422.4</ele>
        <time>2010-10-03T07:50:56Z</time>
      </trkpt>
      <trkpt lat="43.81687" lon="5.30898">
        <ele>420.7</ele>
        <time>2010-10-03T07:54:03Z</time>
      </trkpt>
      <trkpt lat="43.81687" lon="5.30898">
        <ele>420.9</ele>
        <time>2010-10-03T07:54:04Z</time>
      </trkpt>
      <trkpt lat="43.81688" lon="5.30885">
        <ele>421.2</ele>
        <time>2010-10-03T07:57:13Z</time>
      </trkpt>
      <trkpt lat="43.81689" lon="5.30864">
        <ele>418.9</ele>
        <time>2010-10-03T07:57:32Z</time>
      </trkpt>
      <trkpt lat="43.81684" lon="5.30854">
        <ele>420</ele>
        <time>2010-10-03T07:57:39Z</time>
      </trkpt>
      <trkpt lat="43.81678" lon="5.30846">
        <ele>420.3</ele>
        <time>2010-10-03T07:57:46Z</time>
      </trkpt>
      <trkpt lat="43.81673" lon="5.30837">
        <ele>421.2</ele>
        <time>2010-10-03T07:57:52Z</time>
      </trkpt>
      <trkpt lat="43.81667" lon="5.30829">
        <ele>421.1</ele>
        <time>2010-10-03T07:57:57Z</time>
      </trkpt>
      <trkpt lat="43.81661" lon="5.30821">
        <ele>422.2</ele>
        <time>2010-10-03T07:58:03Z</time>
      </trkpt>
      <trkpt lat="43.81655" lon="5.30813">
        <ele>422.7</ele>
        <time>2010-10-03T07:58:11Z</time>
      </trkpt>
      <trkpt lat="43.81649" lon="5.30804">
        <ele>422.1</ele>
        <time>2010-10-03T07:58:20Z</time>
      </trkpt>
      <trkpt lat="43.81648" lon="5.30803">
        <ele>422</ele>
        <time>2010-10-03T07:58:21Z</time>
      </trkpt>
      <trkpt lat="43.81633" lon="5.30796">
        <ele>422.5</ele>
        <time>2010-10-03T07:58:34Z</time>
      </trkpt>
      <trkpt lat="43.81626" lon="5.30792">
        <ele>422.6</ele>
        <time>2010-10-03T07:58:39Z</time>
      </trkpt>
      <trkpt lat="43.81618" lon="5.30788">
        <ele>422.1</ele>
        <time>2010-10-03T07:58:45Z</time>
      </trkpt>
      <trkpt lat="43.8161" lon="5.30784">
        <ele>422</ele>
        <time>2010-10-03T07:58:51Z</time>
      </trkpt>
      <trkpt lat="43.81602" lon="5.30781">
        <ele>423.4</ele>
        <time>2010-10-03T07:58:57Z</time>
      </trkpt>
      <trkpt lat="43.81594" lon="5.30776">
        <ele>423.9</ele>
        <time>2010-10-03T07:59:04Z</time>
      </trkpt>
      <trkpt lat="43.81586" lon="5.30772">
        <ele>423.7</ele>
        <time>2010-10-03T07:59:11Z</time>
      </trkpt>
      <trkpt lat="43.81579" lon="5.30767">
        <ele>424.5</ele>
        <time>2010-10-03T07:59:16Z</time>
      </trkpt>
      <trkpt lat="43.81571" lon="5.30762">
        <ele>424.9</ele>
        <time>2010-10-03T07:59:24Z</time>
      </trkpt>
      <trkpt lat="43.8157" lon="5.30762">
        <ele>424.8</ele>
        <time>2010-10-03T07:59:25Z</time>
      </trkpt>
      <trkpt lat="43.81558" lon="5.3075">
        <ele>424.6</ele>
        <time>2010-10-03T07:59:37Z</time>
      </trkpt>
      <trkpt lat="43.8155" lon="5.30748">
        <ele>424.6</ele>
        <time>2010-10-03T07:59:44Z</time>
      </trkpt>
      <trkpt lat="43.81541" lon="5.30745">
        <ele>425.1</ele>
        <time>2010-10-03T07:59:51Z</time>
      </trkpt>
      <trkpt lat="43.81533" lon="5.30742">
        <ele>426.2</ele>
        <time>2010-10-03T07:59:58Z</time>
      </trkpt>
      <trkpt lat="43.81525" lon="5.30739">
        <ele>426.6</ele>
        <time>2010-10-03T08:00:08Z</time>
      </trkpt>
      <trkpt lat="43.81517" lon="5.30736">
        <ele>426.4</ele>
        <time>2010-10-03T08:00:14Z</time>
      </trkpt>
      <trkpt lat="43.81508" lon="5.30733">
        <ele>427.3</ele>
        <time>2010-10-03T08:00:21Z</time>
      </trkpt>
      <trkpt lat="43.815" lon="5.3073">
        <ele>426.8</ele>
        <time>2010-10-03T08:00:27Z</time>
      </trkpt>
      <trkpt lat="43.81499" lon="5.30729">
        <ele>426.7</ele>
        <time>2010-10-03T08:00:28Z</time>
      </trkpt>
      <trkpt lat="43.81484" lon="5.30723">
        <ele>428</ele>
        <time>2010-10-03T08:00:39Z</time>
      </trkpt>
      <trkpt lat="43.81477" lon="5.30723">
        <ele>428.2</ele>
        <time>2010-10-03T08:00:44Z</time>
      </trkpt>
      <trkpt lat="43.81468" lon="5.30722">
        <ele>428.8</ele>
        <time>2010-10-03T08:00:51Z</time>
      </trkpt>
      <trkpt lat="43.81459" lon="5.30723">
        <ele>428.9</ele>
        <time>2010-10-03T08:00:57Z</time>
      </trkpt>
      <trkpt lat="43.81451" lon="5.30723">
        <ele>428.7</ele>
        <time>2010-10-03T08:01:02Z</time>
      </trkpt>
      <trkpt lat="43.81443" lon="5.30724">
        <ele>429.7</ele>
        <time>2010-10-03T08:01:08Z</time>
      </trkpt>
      <trkpt lat="43.81435" lon="5.30724">
        <ele>430.6</ele>
        <time>2010-10-03T08:01:13Z</time>
      </trkpt>
      <trkpt lat="43.81427" lon="5.30725">
        <ele>431.1</ele>
        <time>2010-10-03T08:01:19Z</time>
      </trkpt>
      <trkpt lat="43.8142" lon="5.30726">
        <ele>431.5</ele>
        <time>2010-10-03T08:01:23Z</time>
      </trkpt>
      <trkpt lat="43.81411" lon="5.30728">
        <ele>432.2</ele>
        <time>2010-10-03T08:01:28Z</time>
      </trkpt>
      <trkpt lat="43.8141" lon="5.30728">
        <ele>432.2</ele>
        <time>2010-10-03T08:01:29Z</time>
      </trkpt>
      <trkpt lat="43.81395" lon="5.30733">
        <ele>433.3</ele>
        <time>2010-10-03T08:01:43Z</time>
      </trkpt>
      <trkpt lat="43.81387" lon="5.30734">
        <ele>433.8</ele>
        <time>2010-10-03T08:01:48Z</time>
      </trkpt>
      <trkpt lat="43.81378" lon="5.30736">
        <ele>433.9</ele>
        <time>2010-10-03T08:01:53Z</time>
      </trkpt>
      <trkpt lat="43.81371" lon="5.30744">
        <ele>434.6</ele>
        <time>2010-10-03T08:01:57Z</time>
      </trkpt>
      <trkpt lat="43.81366" lon="5.30753">
        <ele>435.7</ele>
        <time>2010-10-03T08:02:02Z</time>
      </trkpt>
      <trkpt lat="43.81359" lon="5.30761">
        <ele>436.1</ele>
        <time>2010-10-03T08:02:08Z</time>
      </trkpt>
      <trkpt lat="43.81355" lon="5.30771">
        <ele>437</ele>
        <time>2010-10-03T08:02:14Z</time>
      </trkpt>
      <trkpt lat="43.81351" lon="5.3078">
        <ele>436.7</ele>
        <time>2010-10-03T08:02:19Z</time>
      </trkpt>
      <trkpt lat="43.81346" lon="5.30789">
        <ele>436.2</ele>
        <time>2010-10-03T08:02:24Z</time>
      </trkpt>
      <trkpt lat="43.81341" lon="5.30798">
        <ele>435.5</ele>
        <time>2010-10-03T08:02:30Z</time>
      </trkpt>
      <trkpt lat="43.81339" lon="5.308">
        <ele>435.4</ele>
        <time>2010-10-03T08:02:31Z</time>
      </trkpt>
      <trkpt lat="43.81329" lon="5.30814">
        <ele>438.2</ele>
        <time>2010-10-03T08:02:42Z</time>
      </trkpt>
      <trkpt lat="43.81325" lon="5.30824">
        <ele>438.5</ele>
        <time>2010-10-03T08:02:48Z</time>
      </trkpt>
      <trkpt lat="43.81321" lon="5.30834">
        <ele>438.3</ele>
        <time>2010-10-03T08:02:54Z</time>
      </trkpt>
      <trkpt lat="43.81317" lon="5.30843">
        <ele>438.7</ele>
        <time>2010-10-03T08:02:59Z</time>
      </trkpt>
      <trkpt lat="43.81311" lon="5.30852">
        <ele>439.3</ele>
        <time>2010-10-03T08:03:06Z</time>
      </trkpt>
      <trkpt lat="43.81305" lon="5.30861">
        <ele>438.7</ele>
        <time>2010-10-03T08:03:13Z</time>
      </trkpt>
      <trkpt lat="43.813" lon="5.30869">
        <ele>439.8</ele>
        <time>2010-10-03T08:03:18Z</time>
      </trkpt>
      <trkpt lat="43.81297" lon="5.30878">
        <ele>440.3</ele>
        <time>2010-10-03T08:03:23Z</time>
      </trkpt>
      <trkpt lat="43.81294" lon="5.30889">
        <ele>441</ele>
        <time>2010-10-03T08:03:30Z</time>
      </trkpt>
      <trkpt lat="43.81292" lon="5.30901">
        <ele>441.4</ele>
        <time>2010-10-03T08:03:38Z</time>
      </trkpt>
      <trkpt lat="43.81292" lon="5.30903">
        <ele>441.4</ele>
        <time>2010-10-03T08:03:39Z</time>
      </trkpt>
      <trkpt lat="43.81291" lon="5.30925">
        <ele>441.8</ele>
        <time>2010-10-03T08:03:51Z</time>
      </trkpt>
      <trkpt lat="43.81294" lon="5.30936">
        <ele>442.5</ele>
        <time>2010-10-03T08:03:57Z</time>
      </trkpt>
      <trkpt lat="43.81297" lon="5.30947">
        <ele>443</ele>
        <time>2010-10-03T08:04:02Z</time>
      </trkpt>
      <trkpt lat="43.81298" lon="5.30958">
        <ele>442.5</ele>
        <time>2010-10-03T08:04:08Z</time>
      </trkpt>
      <trkpt lat="43.81298" lon="5.30969">
        <ele>443</ele>
        <time>2010-10-03T08:04:13Z</time>
      </trkpt>
      <trkpt lat="43.81298" lon="5.3098">
        <ele>443.8</ele>
        <time>2010-10-03T08:04:18Z</time>
      </trkpt>
      <trkpt lat="43.813" lon="5.30991">
        <ele>443.9</ele>
        <time>2010-10-03T08:04:23Z</time>
      </trkpt>
      <trkpt lat="43.813" lon="5.31003">
        <ele>443</ele>
        <time>2010-10-03T08:04:29Z</time>
      </trkpt>
      <trkpt lat="43.813" lon="5.31013">
        <ele>443.3</ele>
        <time>2010-10-03T08:04:34Z</time>
      </trkpt>
      <trkpt lat="43.81299" lon="5.31023">
        <ele>443.4</ele>
        <time>2010-10-03T08:04:39Z</time>
      </trkpt>
      <trkpt lat="43.81299" lon="5.31025">
        <ele>443.4</ele>
        <time>2010-10-03T08:04:40Z</time>
      </trkpt>
      <trkpt lat="43.81289" lon="5.31041">
        <ele>443.8</ele>
        <time>2010-10-03T08:04:51Z</time>
      </trkpt>
      <trkpt lat="43.81281" lon="5.31045">
        <ele>443.3</ele>
        <time>2010-10-03T08:04:56Z</time>
      </trkpt>
      <trkpt lat="43.81272" lon="5.31048">
        <ele>443.6</ele>
        <time>2010-10-03T08:05:02Z</time>
      </trkpt>
      <trkpt lat="43.81264" lon="5.31048">
        <ele>443.6</ele>
        <time>2010-10-03T08:05:08Z</time>
      </trkpt>
      <trkpt lat="43.81255" lon="5.31045">
        <ele>445.1</ele>
        <time>2010-10-03T08:05:43Z</time>
      </trkpt>
      <trkpt lat="43.81255" lon="5.31045">
        <ele>445.3</ele>
        <time>2010-10-03T08:05:44Z</time>
      </trkpt>
      <trkpt lat="43.81264" lon="5.31048">
        <ele>444.7</ele>
        <time>2010-10-03T08:06:52Z</time>
      </trkpt>
      <trkpt lat="43.8128" lon="5.31046">
        <ele>444.9</ele>
        <time>2010-10-03T08:07:06Z</time>
      </trkpt>
      <trkpt lat="43.81287" lon="5.31045">
        <ele>444.9</ele>
        <time>2010-10-03T08:07:09Z</time>
      </trkpt>
      <trkpt lat="43.81295" lon="5.3104">
        <ele>445</ele>
        <time>2010-10-03T08:07:13Z</time>
      </trkpt>
      <trkpt lat="43.813" lon="5.31031">
        <ele>444.7</ele>
        <time>2010-10-03T08:07:18Z</time>
      </trkpt>
      <trkpt lat="43.81299" lon="5.31019">
        <ele>444.6</ele>
        <time>2010-10-03T08:07:25Z</time>
      </trkpt>
      <trkpt lat="43.813" lon="5.31007">
        <ele>443.9</ele>
        <time>2010-10-03T08:07:30Z</time>
      </trkpt>
      <trkpt lat="43.813" lon="5.30997">
        <ele>443.5</ele>
        <time>2010-10-03T08:07:35Z</time>
      </trkpt>
      <trkpt lat="43.81298" lon="5.30986">
        <ele>443.9</ele>
        <time>2010-10-03T08:07:39Z</time>
      </trkpt>
      <trkpt lat="43.81297" lon="5.30974">
        <ele>443.9</ele>
        <time>2010-10-03T08:07:44Z</time>
      </trkpt>
      <trkpt lat="43.81296" lon="5.30963">
        <ele>443.7</ele>
        <time>2010-10-03T08:07:49Z</time>
      </trkpt>
      <trkpt lat="43.81295" lon="5.30952">
        <ele>442.8</ele>
        <time>2010-10-03T08:07:53Z</time>
      </trkpt>
      <trkpt lat="43.81295" lon="5.30949">
        <ele>442.9</ele>
        <time>2010-10-03T08:07:54Z</time>
      </trkpt>
      <trkpt lat="43.81291" lon="5.3093">
        <ele>442.4</ele>
        <time>2010-10-03T08:08:03Z</time>
      </trkpt>
      <trkpt lat="43.81291" lon="5.30919">
        <ele>442.6</ele>
        <time>2010-10-03T08:08:07Z</time>
      </trkpt>
      <trkpt lat="43.81291" lon="5.30908">
        <ele>442.4</ele>
        <time>2010-10-03T08:08:12Z</time>
      </trkpt>
      <trkpt lat="43.81292" lon="5.30896">
        <ele>442.1</ele>
        <time>2010-10-03T08:08:17Z</time>
      </trkpt>
      <trkpt lat="43.81295" lon="5.30888">
        <ele>441.6</ele>
        <time>2010-10-03T08:08:21Z</time>
      </trkpt>
      <trkpt lat="43.81299" lon="5.30878">
        <ele>440.9</ele>
        <time>2010-10-03T08:08:25Z</time>
      </trkpt>
      <trkpt lat="43.81302" lon="5.30869">
        <ele>440.6</ele>
        <time>2010-10-03T08:08:30Z</time>
      </trkpt>
      <trkpt lat="43.81308" lon="5.30861">
        <ele>440.3</ele>
        <time>2010-10-03T08:08:35Z</time>
      </trkpt>
      <trkpt lat="43.81314" lon="5.30852">
        <ele>439.7</ele>
        <time>2010-10-03T08:08:40Z</time>
      </trkpt>
      <trkpt lat="43.81319" lon="5.30844">
        <ele>439.3</ele>
        <time>2010-10-03T08:08:44Z</time>
      </trkpt>
      <trkpt lat="43.81324" lon="5.30833">
        <ele>438.5</ele>
        <time>2010-10-03T08:08:51Z</time>
      </trkpt>
      <trkpt lat="43.81326" lon="5.30823">
        <ele>438.6</ele>
        <time>2010-10-03T08:08:56Z</time>
      </trkpt>
      <trkpt lat="43.81327" lon="5.30822">
        <ele>438.7</ele>
        <time>2010-10-03T08:08:57Z</time>
      </trkpt>
      <trkpt lat="43.81338" lon="5.30806">
        <ele>437.7</ele>
        <time>2010-10-03T08:09:06Z</time>
      </trkpt>
      <trkpt lat="43.81343" lon="5.30799">
        <ele>437.3</ele>
        <time>2010-10-03T08:09:11Z</time>
      </trkpt>
      <trkpt lat="43.81348" lon="5.30791">
        <ele>437.9</ele>
        <time>2010-10-03T08:09:15Z</time>
      </trkpt>
      <trkpt lat="43.81353" lon="5.30781">
        <ele>438.3</ele>
        <time>2010-10-03T08:09:20Z</time>
      </trkpt>
      <trkpt lat="43.81358" lon="5.30772">
        <ele>437.8</ele>
        <time>2010-10-03T08:09:25Z</time>
      </trkpt>
      <trkpt lat="43.81363" lon="5.30762">
        <ele>437</ele>
        <time>2010-10-03T08:09:30Z</time>
      </trkpt>
      <trkpt lat="43.81369" lon="5.30752">
        <ele>437.2</ele>
        <time>2010-10-03T08:09:35Z</time>
      </trkpt>
      <trkpt lat="43.81374" lon="5.30744">
        <ele>436.5</ele>
        <time>2010-10-03T08:09:40Z</time>
      </trkpt>
      <trkpt lat="43.81377" lon="5.30733">
        <ele>435.9</ele>
        <time>2010-10-03T08:09:46Z</time>
      </trkpt>
      <trkpt lat="43.81378" lon="5.30721">
        <ele>435.3</ele>
        <time>2010-10-03T08:09:52Z</time>
      </trkpt>
      <trkpt lat="43.81375" lon="5.30709">
        <ele>434.5</ele>
        <time>2010-10-03T08:10:01Z</time>
      </trkpt>
      <trkpt lat="43.81375" lon="5.30709">
        <ele>434.4</ele>
        <time>2010-10-03T08:10:02Z</time>
      </trkpt>
      <trkpt lat="43.81367" lon="5.30695">
        <ele>433.3</ele>
        <time>2010-10-03T08:11:04Z</time>
      </trkpt>
      <trkpt lat="43.81366" lon="5.30693">
        <ele>433.3</ele>
        <time>2010-10-03T08:11:05Z</time>
      </trkpt>
      <trkpt lat="43.81356" lon="5.30678">
        <ele>432.4</ele>
        <time>2010-10-03T08:11:15Z</time>
      </trkpt>
      <trkpt lat="43.81354" lon="5.30666">
        <ele>432.2</ele>
        <time>2010-10-03T08:11:22Z</time>
      </trkpt>
      <trkpt lat="43.81356" lon="5.30655">
        <ele>431.4</ele>
        <time>2010-10-03T08:11:30Z</time>
      </trkpt>
      <trkpt lat="43.81356" lon="5.30643">
        <ele>431.1</ele>
        <time>2010-10-03T08:11:37Z</time>
      </trkpt>
      <trkpt lat="43.81356" lon="5.30631">
        <ele>430.3</ele>
        <time>2010-10-03T08:11:44Z</time>
      </trkpt>
      <trkpt lat="43.81356" lon="5.30619">
        <ele>429.5</ele>
        <time>2010-10-03T08:11:50Z</time>
      </trkpt>
      <trkpt lat="43.81354" lon="5.30607">
        <ele>429.3</ele>
        <time>2010-10-03T08:11:58Z</time>
      </trkpt>
      <trkpt lat="43.81351" lon="5.30597">
        <ele>428.9</ele>
        <time>2010-10-03T08:12:04Z</time>
      </trkpt>
      <trkpt lat="43.81348" lon="5.30588">
        <ele>429.8</ele>
        <time>2010-10-03T08:12:10Z</time>
      </trkpt>
      <trkpt lat="43.81347" lon="5.30586">
        <ele>430.1</ele>
        <time>2010-10-03T08:12:11Z</time>
      </trkpt>
      <trkpt lat="43.81343" lon="5.30565">
        <ele>430.6</ele>
        <time>2010-10-03T08:12:22Z</time>
      </trkpt>
      <trkpt lat="43.81336" lon="5.30559">
        <ele>429.2</ele>
        <time>2010-10-03T08:12:29Z</time>
      </trkpt>
      <trkpt lat="43.81329" lon="5.30556">
        <ele>430.3</ele>
        <time>2010-10-03T08:12:34Z</time>
      </trkpt>
      <trkpt lat="43.81322" lon="5.30549">
        <ele>431.9</ele>
        <time>2010-10-03T08:12:40Z</time>
      </trkpt>
      <trkpt lat="43.81314" lon="5.30545">
        <ele>434.4</ele>
        <time>2010-10-03T08:12:46Z</time>
      </trkpt>
      <trkpt lat="43.81313" lon="5.30534">
        <ele>434.3</ele>
        <time>2010-10-03T08:12:52Z</time>
      </trkpt>
      <trkpt lat="43.81311" lon="5.30522">
        <ele>434.4</ele>
        <time>2010-10-03T08:12:58Z</time>
      </trkpt>
      <trkpt lat="43.8131" lon="5.30511">
        <ele>435.8</ele>
        <time>2010-10-03T08:13:03Z</time>
      </trkpt>
      <trkpt lat="43.81304" lon="5.30503">
        <ele>436.9</ele>
        <time>2010-10-03T08:13:10Z</time>
      </trkpt>
      <trkpt lat="43.81296" lon="5.30497">
        <ele>439.3</ele>
        <time>2010-10-03T08:13:20Z</time>
      </trkpt>
      <trkpt lat="43.81295" lon="5.30496">
        <ele>439.7</ele>
        <time>2010-10-03T08:13:21Z</time>
      </trkpt>
      <trkpt lat="43.81284" lon="5.30481">
        <ele>443.1</ele>
        <time>2010-10-03T08:13:36Z</time>
      </trkpt>
      <trkpt lat="43.81277" lon="5.30473">
        <ele>444.1</ele>
        <time>2010-10-03T08:13:42Z</time>
      </trkpt>
      <trkpt lat="43.81269" lon="5.30469">
        <ele>447</ele>
        <time>2010-10-03T08:13:49Z</time>
      </trkpt>
      <trkpt lat="43.81265" lon="5.30458">
        <ele>448.2</ele>
        <time>2010-10-03T08:13:55Z</time>
      </trkpt>
      <trkpt lat="43.8126" lon="5.30449">
        <ele>449.5</ele>
        <time>2010-10-03T08:14:02Z</time>
      </trkpt>
      <trkpt lat="43.81256" lon="5.30439">
        <ele>449.4</ele>
        <time>2010-10-03T08:14:10Z</time>
      </trkpt>
      <trkpt lat="43.8125" lon="5.30431">
        <ele>450.9</ele>
        <time>2010-10-03T08:14:18Z</time>
      </trkpt>
      <trkpt lat="43.81248" lon="5.3042">
        <ele>452.3</ele>
        <time>2010-10-03T08:14:25Z</time>
      </trkpt>
      <trkpt lat="43.81248" lon="5.30419">
        <ele>452.6</ele>
        <time>2010-10-03T08:14:26Z</time>
      </trkpt>
      <trkpt lat="43.81245" lon="5.30398">
        <ele>453.7</ele>
        <time>2010-10-03T08:14:40Z</time>
      </trkpt>
      <trkpt lat="43.81242" lon="5.30387">
        <ele>453.6</ele>
        <time>2010-10-03T08:14:48Z</time>
      </trkpt>
      <trkpt lat="43.81238" lon="5.30377">
        <ele>452.7</ele>
        <time>2010-10-03T08:14:57Z</time>
      </trkpt>
      <trkpt lat="43.81232" lon="5.30367">
        <ele>452.5</ele>
        <time>2010-10-03T08:15:07Z</time>
      </trkpt>
      <trkpt lat="43.81223" lon="5.30366">
        <ele>455.4</ele>
        <time>2010-10-03T08:15:19Z</time>
      </trkpt>
      <trkpt lat="43.81215" lon="5.30366">
        <ele>456.9</ele>
        <time>2010-10-03T08:15:25Z</time>
      </trkpt>
      <trkpt lat="43.81206" lon="5.30365">
        <ele>458.3</ele>
        <time>2010-10-03T08:15:32Z</time>
      </trkpt>
      <trkpt lat="43.81205" lon="5.30364">
        <ele>458.7</ele>
        <time>2010-10-03T08:15:33Z</time>
      </trkpt>
      <trkpt lat="43.81192" lon="5.30357">
        <ele>460.7</ele>
        <time>2010-10-03T08:15:41Z</time>
      </trkpt>
      <trkpt lat="43.81184" lon="5.30352">
        <ele>461.7</ele>
        <time>2010-10-03T08:15:46Z</time>
      </trkpt>
      <trkpt lat="43.81177" lon="5.3035">
        <ele>462.6</ele>
        <time>2010-10-03T08:15:50Z</time>
      </trkpt>
      <trkpt lat="43.81169" lon="5.3035">
        <ele>463.4</ele>
        <time>2010-10-03T08:15:54Z</time>
      </trkpt>
      <trkpt lat="43.8116" lon="5.30348">
        <ele>464.2</ele>
        <time>2010-10-03T08:16:02Z</time>
      </trkpt>
      <trkpt lat="43.81153" lon="5.30342">
        <ele>465.1</ele>
        <time>2010-10-03T08:16:11Z</time>
      </trkpt>
      <trkpt lat="43.81146" lon="5.30336">
        <ele>465.6</ele>
        <time>2010-10-03T08:16:16Z</time>
      </trkpt>
      <trkpt lat="43.81138" lon="5.30331">
        <ele>468.1</ele>
        <time>2010-10-03T08:16:23Z</time>
      </trkpt>
      <trkpt lat="43.81132" lon="5.30326">
        <ele>468.7</ele>
        <time>2010-10-03T08:16:29Z</time>
      </trkpt>
      <trkpt lat="43.81125" lon="5.3032">
        <ele>469.4</ele>
        <time>2010-10-03T08:16:35Z</time>
      </trkpt>
      <trkpt lat="43.81124" lon="5.30318">
        <ele>469.8</ele>
        <time>2010-10-03T08:16:36Z</time>
      </trkpt>
      <trkpt lat="43.81114" lon="5.30304">
        <ele>473.7</ele>
        <time>2010-10-03T08:16:48Z</time>
      </trkpt>
      <trkpt lat="43.81106" lon="5.303">
        <ele>474.7</ele>
        <time>2010-10-03T08:16:55Z</time>
      </trkpt>
      <trkpt lat="43.81098" lon="5.30295">
        <ele>476.3</ele>
        <time>2010-10-03T08:17:01Z</time>
      </trkpt>
      <trkpt lat="43.81091" lon="5.30293">
        <ele>478.5</ele>
        <time>2010-10-03T08:17:10Z</time>
      </trkpt>
      <trkpt lat="43.81083" lon="5.30288">
        <ele>478.7</ele>
        <time>2010-10-03T08:17:18Z</time>
      </trkpt>
      <trkpt lat="43.81075" lon="5.30285">
        <ele>478.7</ele>
        <time>2010-10-03T08:17:26Z</time>
      </trkpt>
      <trkpt lat="43.81067" lon="5.30286">
        <ele>479.6</ele>
        <time>2010-10-03T08:17:32Z</time>
      </trkpt>
      <trkpt lat="43.81059" lon="5.30288">
        <ele>480.8</ele>
        <time>2010-10-03T08:17:39Z</time>
      </trkpt>
      <trkpt lat="43.81058" lon="5.30288">
        <ele>481</ele>
        <time>2010-10-03T08:17:40Z</time>
      </trkpt>
      <trkpt lat="43.81042" lon="5.30283">
        <ele>482.8</ele>
        <time>2010-10-03T08:17:51Z</time>
      </trkpt>
      <trkpt lat="43.81035" lon="5.30278">
        <ele>484.2</ele>
        <time>2010-10-03T08:17:56Z</time>
      </trkpt>
      <trkpt lat="43.81029" lon="5.3027">
        <ele>486.2</ele>
        <time>2010-10-03T08:18:03Z</time>
      </trkpt>
      <trkpt lat="43.81022" lon="5.30265">
        <ele>487.9</ele>
        <time>2010-10-03T08:18:09Z</time>
      </trkpt>
      <trkpt lat="43.81015" lon="5.30258">
        <ele>489.5</ele>
        <time>2010-10-03T08:18:15Z</time>
      </trkpt>
      <trkpt lat="43.81009" lon="5.30251">
        <ele>492.7</ele>
        <time>2010-10-03T08:18:25Z</time>
      </trkpt>
      <trkpt lat="43.81001" lon="5.30245">
        <ele>494.8</ele>
        <time>2010-10-03T08:18:33Z</time>
      </trkpt>
      <trkpt lat="43.80994" lon="5.30241">
        <ele>496.9</ele>
        <time>2010-10-03T08:18:39Z</time>
      </trkpt>
      <trkpt lat="43.80986" lon="5.30237">
        <ele>497.4</ele>
        <time>2010-10-03T08:18:53Z</time>
      </trkpt>
      <trkpt lat="43.80985" lon="5.30237">
        <ele>497.6</ele>
        <time>2010-10-03T08:18:54Z</time>
      </trkpt>
      <trkpt lat="43.8097" lon="5.30228">
        <ele>502.6</ele>
        <time>2010-10-03T08:19:13Z</time>
      </trkpt>
      <trkpt lat="43.80962" lon="5.30223">
        <ele>504.3</ele>
        <time>2010-10-03T08:19:22Z</time>
      </trkpt>
      <trkpt lat="43.80956" lon="5.30233">
        <ele>507.4</ele>
        <time>2010-10-03T08:19:50Z</time>
      </trkpt>
      <trkpt lat="43.8095" lon="5.30238">
        <ele>508.7</ele>
        <time>2010-10-03T08:20:02Z</time>
      </trkpt>
      <trkpt lat="43.80948" lon="5.30238">
        <ele>508.9</ele>
        <time>2010-10-03T08:20:03Z</time>
      </trkpt>
      <trkpt lat="43.80933" lon="5.30244">
        <ele>513.1</ele>
        <time>2010-10-03T08:20:16Z</time>
      </trkpt>
      <trkpt lat="43.80926" lon="5.30237">
        <ele>515.2</ele>
        <time>2010-10-03T08:20:26Z</time>
      </trkpt>
      <trkpt lat="43.80918" lon="5.30239">
        <ele>518</ele>
        <time>2010-10-03T08:20:35Z</time>
      </trkpt>
      <trkpt lat="43.8091" lon="5.30238">
        <ele>520</ele>
        <time>2010-10-03T08:20:42Z</time>
      </trkpt>
      <trkpt lat="43.80901" lon="5.30237">
        <ele>520.7</ele>
        <time>2010-10-03T08:20:47Z</time>
      </trkpt>
      <trkpt lat="43.80893" lon="5.30237">
        <ele>521.2</ele>
        <time>2010-10-03T08:20:52Z</time>
      </trkpt>
      <trkpt lat="43.80885" lon="5.30234">
        <ele>523</ele>
        <time>2010-10-03T08:20:59Z</time>
      </trkpt>
      <trkpt lat="43.80877" lon="5.30234">
        <ele>525.1</ele>
        <time>2010-10-03T08:21:05Z</time>
      </trkpt>
      <trkpt lat="43.80876" lon="5.30234">
        <ele>525.2</ele>
        <time>2010-10-03T08:21:06Z</time>
      </trkpt>
      <trkpt lat="43.80861" lon="5.30238">
        <ele>529.7</ele>
        <time>2010-10-03T08:21:20Z</time>
      </trkpt>
      <trkpt lat="43.80854" lon="5.30239">
        <ele>531.7</ele>
        <time>2010-10-03T08:21:27Z</time>
      </trkpt>
      <trkpt lat="43.80846" lon="5.30243">
        <ele>533.3</ele>
        <time>2010-10-03T08:21:39Z</time>
      </trkpt>
      <trkpt lat="43.80838" lon="5.30244">
        <ele>536.8</ele>
        <time>2010-10-03T08:21:48Z</time>
      </trkpt>
      <trkpt lat="43.8083" lon="5.30248">
        <ele>539.1</ele>
        <time>2010-10-03T08:21:55Z</time>
      </trkpt>
      <trkpt lat="43.80822" lon="5.30248">
        <ele>540.4</ele>
        <time>2010-10-03T08:22:04Z</time>
      </trkpt>
      <trkpt lat="43.80814" lon="5.30254">
        <ele>543.3</ele>
        <time>2010-10-03T08:22:13Z</time>
      </trkpt>
      <trkpt lat="43.80813" lon="5.30255">
        <ele>543.5</ele>
        <time>2010-10-03T08:22:14Z</time>
      </trkpt>
      <trkpt lat="43.80802" lon="5.3026">
        <ele>546.9</ele>
        <time>2010-10-03T08:22:27Z</time>
      </trkpt>
      <trkpt lat="43.80793" lon="5.30256">
        <ele>550</ele>
        <time>2010-10-03T08:22:35Z</time>
      </trkpt>
      <trkpt lat="43.80785" lon="5.30258">
        <ele>552</ele>
        <time>2010-10-03T08:22:43Z</time>
      </trkpt>
      <trkpt lat="43.80776" lon="5.30261">
        <ele>553.6</ele>
        <time>2010-10-03T08:22:50Z</time>
      </trkpt>
      <trkpt lat="43.80768" lon="5.30264">
        <ele>555.3</ele>
        <time>2010-10-03T08:23:06Z</time>
      </trkpt>
      <trkpt lat="43.80759" lon="5.30262">
        <ele>559.3</ele>
        <time>2010-10-03T08:24:54Z</time>
      </trkpt>
      <trkpt lat="43.80758" lon="5.30262">
        <ele>559.5</ele>
        <time>2010-10-03T08:24:55Z</time>
      </trkpt>
      <trkpt lat="43.80743" lon="5.30269">
        <ele>561.6</ele>
        <time>2010-10-03T08:25:07Z</time>
      </trkpt>
      <trkpt lat="43.80734" lon="5.30271">
        <ele>566.1</ele>
        <time>2010-10-03T08:25:20Z</time>
      </trkpt>
      <trkpt lat="43.80726" lon="5.30267">
        <ele>568.8</ele>
        <time>2010-10-03T08:25:30Z</time>
      </trkpt>
      <trkpt lat="43.80718" lon="5.30265">
        <ele>572.3</ele>
        <time>2010-10-03T08:25:41Z</time>
      </trkpt>
      <trkpt lat="43.80711" lon="5.30262">
        <ele>573.8</ele>
        <time>2010-10-03T08:25:45Z</time>
      </trkpt>
      <trkpt lat="43.80702" lon="5.30264">
        <ele>575</ele>
        <time>2010-10-03T08:25:50Z</time>
      </trkpt>
      <trkpt lat="43.80695" lon="5.3027">
        <ele>576.4</ele>
        <time>2010-10-03T08:25:56Z</time>
      </trkpt>
      <trkpt lat="43.80694" lon="5.30271">
        <ele>576.9</ele>
        <time>2010-10-03T08:25:57Z</time>
      </trkpt>
      <trkpt lat="43.80681" lon="5.30282">
        <ele>580.1</ele>
        <time>2010-10-03T08:26:10Z</time>
      </trkpt>
      <trkpt lat="43.80673" lon="5.30283">
        <ele>580.2</ele>
        <time>2010-10-03T08:26:15Z</time>
      </trkpt>
      <trkpt lat="43.80664" lon="5.30283">
        <ele>582.6</ele>
        <time>2010-10-03T08:28:36Z</time>
      </trkpt>
      <trkpt lat="43.80663" lon="5.30282">
        <ele>582.4</ele>
        <time>2010-10-03T08:28:37Z</time>
      </trkpt>
      <trkpt lat="43.80658" lon="5.30262">
        <ele>580.9</ele>
        <time>2010-10-03T08:28:51Z</time>
      </trkpt>
      <trkpt lat="43.80655" lon="5.30251">
        <ele>581.2</ele>
        <time>2010-10-03T08:28:58Z</time>
      </trkpt>
      <trkpt lat="43.80653" lon="5.3024">
        <ele>581.4</ele>
        <time>2010-10-03T08:29:04Z</time>
      </trkpt>
      <trkpt lat="43.80652" lon="5.3023">
        <ele>581.8</ele>
        <time>2010-10-03T08:29:10Z</time>
      </trkpt>
      <trkpt lat="43.80653" lon="5.30218">
        <ele>582.5</ele>
        <time>2010-10-03T08:29:17Z</time>
      </trkpt>
      <trkpt lat="43.80652" lon="5.30207">
        <ele>583.8</ele>
        <time>2010-10-03T08:29:24Z</time>
      </trkpt>
      <trkpt lat="43.8065" lon="5.30197">
        <ele>583.8</ele>
        <time>2010-10-03T08:29:30Z</time>
      </trkpt>
      <trkpt lat="43.80647" lon="5.30186">
        <ele>585.1</ele>
        <time>2010-10-03T08:29:36Z</time>
      </trkpt>
      <trkpt lat="43.80642" lon="5.30178">
        <ele>585.7</ele>
        <time>2010-10-03T08:29:42Z</time>
      </trkpt>
      <trkpt lat="43.80641" lon="5.30177">
        <ele>585.7</ele>
        <time>2010-10-03T08:29:43Z</time>
      </trkpt>
      <trkpt lat="43.80627" lon="5.30172">
        <ele>586.9</ele>
        <time>2010-10-03T08:29:53Z</time>
      </trkpt>
      <trkpt lat="43.80618" lon="5.30172">
        <ele>587.5</ele>
        <time>2010-10-03T08:29:59Z</time>
      </trkpt>
      <trkpt lat="43.8061" lon="5.30173">
        <ele>588.6</ele>
        <time>2010-10-03T08:30:04Z</time>
      </trkpt>
      <trkpt lat="43.80602" lon="5.30173">
        <ele>589.7</ele>
        <time>2010-10-03T08:30:10Z</time>
      </trkpt>
      <trkpt lat="43.80594" lon="5.30172">
        <ele>591</ele>
        <time>2010-10-03T08:30:15Z</time>
      </trkpt>
      <trkpt lat="43.80585" lon="5.30172">
        <ele>592</ele>
        <time>2010-10-03T08:30:21Z</time>
      </trkpt>
      <trkpt lat="43.80577" lon="5.30172">
        <ele>592.7</ele>
        <time>2010-10-03T08:30:28Z</time>
      </trkpt>
      <trkpt lat="43.80569" lon="5.3017">
        <ele>595.4</ele>
        <time>2010-10-03T08:30:33Z</time>
      </trkpt>
      <trkpt lat="43.8056" lon="5.30166">
        <ele>595.5</ele>
        <time>2010-10-03T08:30:39Z</time>
      </trkpt>
      <trkpt lat="43.80552" lon="5.30166">
        <ele>595.7</ele>
        <time>2010-10-03T08:30:45Z</time>
      </trkpt>
      <trkpt lat="43.80551" lon="5.30167">
        <ele>595.5</ele>
        <time>2010-10-03T08:30:46Z</time>
      </trkpt>
      <trkpt lat="43.80539" lon="5.3018">
        <ele>594.4</ele>
        <time>2010-10-03T08:31:01Z</time>
      </trkpt>
      <trkpt lat="43.80534" lon="5.30188">
        <ele>592.9</ele>
        <time>2010-10-03T08:31:09Z</time>
      </trkpt>
      <trkpt lat="43.80528" lon="5.30196">
        <ele>592.8</ele>
        <time>2010-10-03T08:31:17Z</time>
      </trkpt>
      <trkpt lat="43.8052" lon="5.30202">
        <ele>592.5</ele>
        <time>2010-10-03T08:31:24Z</time>
      </trkpt>
      <trkpt lat="43.80515" lon="5.30211">
        <ele>591.7</ele>
        <time>2010-10-03T08:31:31Z</time>
      </trkpt>
      <trkpt lat="43.80509" lon="5.30219">
        <ele>590.2</ele>
        <time>2010-10-03T08:31:39Z</time>
      </trkpt>
      <trkpt lat="43.80504" lon="5.30229">
        <ele>587.7</ele>
        <time>2010-10-03T08:31:49Z</time>
      </trkpt>
      <trkpt lat="43.80504" lon="5.30231">
        <ele>587.6</ele>
        <time>2010-10-03T08:31:50Z</time>
      </trkpt>
      <trkpt lat="43.80494" lon="5.30247">
        <ele>586</ele>
        <time>2010-10-03T08:32:03Z</time>
      </trkpt>
      <trkpt lat="43.80486" lon="5.30251">
        <ele>585.4</ele>
        <time>2010-10-03T08:32:08Z</time>
      </trkpt>
      <trkpt lat="43.80478" lon="5.30253">
        <ele>585.2</ele>
        <time>2010-10-03T08:32:14Z</time>
      </trkpt>
      <trkpt lat="43.8047" lon="5.30253">
        <ele>585.6</ele>
        <time>2010-10-03T08:32:20Z</time>
      </trkpt>
      <trkpt lat="43.80462" lon="5.30252">
        <ele>586.1</ele>
        <time>2010-10-03T08:32:25Z</time>
      </trkpt>
      <trkpt lat="43.80454" lon="5.3025">
        <ele>586.6</ele>
        <time>2010-10-03T08:32:31Z</time>
      </trkpt>
      <trkpt lat="43.80445" lon="5.3025">
        <ele>586.9</ele>
        <time>2010-10-03T08:32:38Z</time>
      </trkpt>
      <trkpt lat="43.80437" lon="5.30252">
        <ele>587</ele>
        <time>2010-10-03T08:32:44Z</time>
      </trkpt>
      <trkpt lat="43.80428" lon="5.30254">
        <ele>587.3</ele>
        <time>2010-10-03T08:32:51Z</time>
      </trkpt>
      <trkpt lat="43.80427" lon="5.30254">
        <ele>587.2</ele>
        <time>2010-10-03T08:32:52Z</time>
      </trkpt>
      <trkpt lat="43.80413" lon="5.30261">
        <ele>585</ele>
        <time>2010-10-03T08:33:04Z</time>
      </trkpt>
      <trkpt lat="43.80405" lon="5.30264">
        <ele>585.5</ele>
        <time>2010-10-03T08:33:10Z</time>
      </trkpt>
      <trkpt lat="43.80397" lon="5.30266">
        <ele>584.9</ele>
        <time>2010-10-03T08:33:17Z</time>
      </trkpt>
      <trkpt lat="43.80388" lon="5.30269">
        <ele>584</ele>
        <time>2010-10-03T08:33:26Z</time>
      </trkpt>
      <trkpt lat="43.8038" lon="5.30272">
        <ele>584.1</ele>
        <time>2010-10-03T08:33:32Z</time>
      </trkpt>
      <trkpt lat="43.80373" lon="5.30279">
        <ele>584.3</ele>
        <time>2010-10-03T08:33:41Z</time>
      </trkpt>
      <trkpt lat="43.80366" lon="5.30284">
        <ele>584.8</ele>
        <time>2010-10-03T08:33:49Z</time>
      </trkpt>
      <trkpt lat="43.8036" lon="5.30292">
        <ele>584</ele>
        <time>2010-10-03T08:33:57Z</time>
      </trkpt>
      <trkpt lat="43.80359" lon="5.30293">
        <ele>583.9</ele>
        <time>2010-10-03T08:33:58Z</time>
      </trkpt>
      <trkpt lat="43.80347" lon="5.30308">
        <ele>581</ele>
        <time>2010-10-03T08:34:10Z</time>
      </trkpt>
      <trkpt lat="43.80348" lon="5.3032">
        <ele>579.5</ele>
        <time>2010-10-03T08:34:17Z</time>
      </trkpt>
      <trkpt lat="43.80348" lon="5.30332">
        <ele>578.8</ele>
        <time>2010-10-03T08:34:23Z</time>
      </trkpt>
      <trkpt lat="43.80346" lon="5.30344">
        <ele>577.7</ele>
        <time>2010-10-03T08:34:29Z</time>
      </trkpt>
      <trkpt lat="43.80341" lon="5.30353">
        <ele>578.1</ele>
        <time>2010-10-03T08:34:33Z</time>
      </trkpt>
      <trkpt lat="43.80334" lon="5.30358">
        <ele>577.4</ele>
        <time>2010-10-03T08:34:38Z</time>
      </trkpt>
      <trkpt lat="43.80328" lon="5.30364">
        <ele>577.7</ele>
        <time>2010-10-03T08:34:42Z</time>
      </trkpt>
      <trkpt lat="43.8032" lon="5.30371">
        <ele>577.3</ele>
        <time>2010-10-03T08:34:48Z</time>
      </trkpt>
      <trkpt lat="43.80313" lon="5.30377">
        <ele>577.7</ele>
        <time>2010-10-03T08:34:54Z</time>
      </trkpt>
      <trkpt lat="43.80306" lon="5.30384">
        <ele>577</ele>
        <time>2010-10-03T08:35:00Z</time>
      </trkpt>
      <trkpt lat="43.80305" lon="5.30386">
        <ele>576.9</ele>
        <time>2010-10-03T08:35:01Z</time>
      </trkpt>
      <trkpt lat="43.80292" lon="5.30398">
        <ele>576.3</ele>
        <time>2010-10-03T08:35:12Z</time>
      </trkpt>
      <trkpt lat="43.80284" lon="5.30402">
        <ele>576.9</ele>
        <time>2010-10-03T08:35:18Z</time>
      </trkpt>
      <trkpt lat="43.80276" lon="5.30408">
        <ele>577.7</ele>
        <time>2010-10-03T08:35:23Z</time>
      </trkpt>
      <trkpt lat="43.8027" lon="5.30414">
        <ele>577.2</ele>
        <time>2010-10-03T08:35:28Z</time>
      </trkpt>
      <trkpt lat="43.80262" lon="5.30421">
        <ele>577</ele>
        <time>2010-10-03T08:35:34Z</time>
      </trkpt>
      <trkpt lat="43.80255" lon="5.30426">
        <ele>576.6</ele>
        <time>2010-10-03T08:35:39Z</time>
      </trkpt>
      <trkpt lat="43.80247" lon="5.30432">
        <ele>576.6</ele>
        <time>2010-10-03T08:35:44Z</time>
      </trkpt>
      <trkpt lat="43.8024" lon="5.30437">
        <ele>577.6</ele>
        <time>2010-10-03T08:35:49Z</time>
      </trkpt>
      <trkpt lat="43.80232" lon="5.30442">
        <ele>577.4</ele>
        <time>2010-10-03T08:35:54Z</time>
      </trkpt>
      <trkpt lat="43.80225" lon="5.30438">
        <ele>577.9</ele>
        <time>2010-10-03T08:36:01Z</time>
      </trkpt>
      <trkpt lat="43.80223" lon="5.30437">
        <ele>577.8</ele>
        <time>2010-10-03T08:36:02Z</time>
      </trkpt>
      <trkpt lat="43.80212" lon="5.30427">
        <ele>578.4</ele>
        <time>2010-10-03T08:36:11Z</time>
      </trkpt>
      <trkpt lat="43.80205" lon="5.30421">
        <ele>579.2</ele>
        <time>2010-10-03T08:36:17Z</time>
      </trkpt>
      <trkpt lat="43.80199" lon="5.30413">
        <ele>580.3</ele>
        <time>2010-10-03T08:36:23Z</time>
      </trkpt>
      <trkpt lat="43.80193" lon="5.30406">
        <ele>581.3</ele>
        <time>2010-10-03T08:36:28Z</time>
      </trkpt>
      <trkpt lat="43.80186" lon="5.30401">
        <ele>582.4</ele>
        <time>2010-10-03T08:36:34Z</time>
      </trkpt>
      <trkpt lat="43.80178" lon="5.30399">
        <ele>583.1</ele>
        <time>2010-10-03T08:36:39Z</time>
      </trkpt>
      <trkpt lat="43.8017" lon="5.30397">
        <ele>583.5</ele>
        <time>2010-10-03T08:36:44Z</time>
      </trkpt>
      <trkpt lat="43.80162" lon="5.30394">
        <ele>583.5</ele>
        <time>2010-10-03T08:36:51Z</time>
      </trkpt>
      <trkpt lat="43.80156" lon="5.30388">
        <ele>584</ele>
        <time>2010-10-03T08:36:57Z</time>
      </trkpt>
      <trkpt lat="43.8015" lon="5.30381">
        <ele>584.9</ele>
        <time>2010-10-03T08:37:03Z</time>
      </trkpt>
      <trkpt lat="43.80149" lon="5.3038">
        <ele>585</ele>
        <time>2010-10-03T08:37:04Z</time>
      </trkpt>
      <trkpt lat="43.80139" lon="5.30365">
        <ele>585.4</ele>
        <time>2010-10-03T08:37:14Z</time>
      </trkpt>
      <trkpt lat="43.80132" lon="5.30356">
        <ele>584.8</ele>
        <time>2010-10-03T08:37:21Z</time>
      </trkpt>
      <trkpt lat="43.80127" lon="5.30348">
        <ele>584.7</ele>
        <time>2010-10-03T08:37:27Z</time>
      </trkpt>
      <trkpt lat="43.80122" lon="5.30338">
        <ele>585.1</ele>
        <time>2010-10-03T08:37:33Z</time>
      </trkpt>
      <trkpt lat="43.80116" lon="5.30329">
        <ele>585</ele>
        <time>2010-10-03T08:37:40Z</time>
      </trkpt>
      <trkpt lat="43.8011" lon="5.30323">
        <ele>584.6</ele>
        <time>2010-10-03T08:37:46Z</time>
      </trkpt>
      <trkpt lat="43.80102" lon="5.30318">
        <ele>583.6</ele>
        <time>2010-10-03T08:37:54Z</time>
      </trkpt>
      <trkpt lat="43.80094" lon="5.30315">
        <ele>582</ele>
        <time>2010-10-03T08:38:02Z</time>
      </trkpt>
      <trkpt lat="43.80085" lon="5.30311">
        <ele>580.8</ele>
        <time>2010-10-03T08:38:10Z</time>
      </trkpt>
      <trkpt lat="43.80084" lon="5.3031">
        <ele>580.3</ele>
        <time>2010-10-03T08:38:11Z</time>
      </trkpt>
      <trkpt lat="43.8007" lon="5.30304">
        <ele>578</ele>
        <time>2010-10-03T08:38:23Z</time>
      </trkpt>
      <trkpt lat="43.80063" lon="5.303">
        <ele>577.1</ele>
        <time>2010-10-03T08:38:30Z</time>
      </trkpt>
      <trkpt lat="43.80056" lon="5.30296">
        <ele>575.8</ele>
        <time>2010-10-03T08:38:35Z</time>
      </trkpt>
      <trkpt lat="43.80048" lon="5.30293">
        <ele>574.2</ele>
        <time>2010-10-03T08:38:41Z</time>
      </trkpt>
      <trkpt lat="43.80039" lon="5.3029">
        <ele>573.4</ele>
        <time>2010-10-03T08:38:47Z</time>
      </trkpt>
      <trkpt lat="43.80032" lon="5.30286">
        <ele>573.6</ele>
        <time>2010-10-03T08:38:51Z</time>
      </trkpt>
      <trkpt lat="43.80024" lon="5.3028">
        <ele>572.9</ele>
        <time>2010-10-03T08:38:55Z</time>
      </trkpt>
      <trkpt lat="43.80019" lon="5.30272">
        <ele>572.8</ele>
        <time>2010-10-03T08:38:59Z</time>
      </trkpt>
      <trkpt lat="43.80013" lon="5.30264">
        <ele>572.2</ele>
        <time>2010-10-03T08:39:05Z</time>
      </trkpt>
      <trkpt lat="43.80004" lon="5.30268">
        <ele>571.7</ele>
        <time>2010-10-03T08:39:11Z</time>
      </trkpt>
      <trkpt lat="43.80004" lon="5.3027">
        <ele>571.7</ele>
        <time>2010-10-03T08:39:12Z</time>
      </trkpt>
      <trkpt lat="43.80012" lon="5.30285">
        <ele>573</ele>
        <time>2010-10-03T08:39:23Z</time>
      </trkpt>
      <trkpt lat="43.80017" lon="5.30295">
        <ele>573.9</ele>
        <time>2010-10-03T08:39:56Z</time>
      </trkpt>
      <trkpt lat="43.80026" lon="5.30298">
        <ele>573.3</ele>
        <time>2010-10-03T08:40:02Z</time>
      </trkpt>
      <trkpt lat="43.80034" lon="5.30302">
        <ele>574</ele>
        <time>2010-10-03T08:40:08Z</time>
      </trkpt>
      <trkpt lat="43.80032" lon="5.30314">
        <ele>575.3</ele>
        <time>2010-10-03T08:40:22Z</time>
      </trkpt>
      <trkpt lat="43.80031" lon="5.30314">
        <ele>575.5</ele>
        <time>2010-10-03T08:40:23Z</time>
      </trkpt>
      <trkpt lat="43.8003" lon="5.30311">
        <ele>574.9</ele>
        <time>2010-10-03T08:42:50Z</time>
      </trkpt>
      <trkpt lat="43.80031" lon="5.30311">
        <ele>574.9</ele>
        <time>2010-10-03T08:42:51Z</time>
      </trkpt>
      <trkpt lat="43.80022" lon="5.30296">
        <ele>573.3</ele>
        <time>2010-10-03T08:43:09Z</time>
      </trkpt>
      <trkpt lat="43.80014" lon="5.30292">
        <ele>572.9</ele>
        <time>2010-10-03T08:43:16Z</time>
      </trkpt>
      <trkpt lat="43.80009" lon="5.30282">
        <ele>572.8</ele>
        <time>2010-10-03T08:43:22Z</time>
      </trkpt>
      <trkpt lat="43.80005" lon="5.30273">
        <ele>572.6</ele>
        <time>2010-10-03T08:43:28Z</time>
      </trkpt>
      <trkpt lat="43.80005" lon="5.30263">
        <ele>572.3</ele>
        <time>2010-10-03T08:43:34Z</time>
      </trkpt>
      <trkpt lat="43.80005" lon="5.30251">
        <ele>571.9</ele>
        <time>2010-10-03T08:43:41Z</time>
      </trkpt>
      <trkpt lat="43.80005" lon="5.30239">
        <ele>571.7</ele>
        <time>2010-10-03T08:43:48Z</time>
      </trkpt>
      <trkpt lat="43.80007" lon="5.30229">
        <ele>571.2</ele>
        <time>2010-10-03T08:43:54Z</time>
      </trkpt>
      <trkpt lat="43.80007" lon="5.30227">
        <ele>570.9</ele>
        <time>2010-10-03T08:43:55Z</time>
      </trkpt>
      <trkpt lat="43.79995" lon="5.30219">
        <ele>569</ele>
        <time>2010-10-03T08:44:08Z</time>
      </trkpt>
      <trkpt lat="43.79989" lon="5.30225">
        <ele>567.4</ele>
        <time>2010-10-03T08:44:13Z</time>
      </trkpt>
      <trkpt lat="43.79983" lon="5.30233">
        <ele>567.6</ele>
        <time>2010-10-03T08:44:19Z</time>
      </trkpt>
      <trkpt lat="43.79976" lon="5.3024">
        <ele>566.9</ele>
        <time>2010-10-03T08:44:25Z</time>
      </trkpt>
      <trkpt lat="43.79968" lon="5.30246">
        <ele>566.1</ele>
        <time>2010-10-03T08:44:32Z</time>
      </trkpt>
      <trkpt lat="43.79972" lon="5.30235">
        <ele>565.5</ele>
        <time>2010-10-03T08:44:40Z</time>
      </trkpt>
      <trkpt lat="43.79974" lon="5.30225">
        <ele>564.4</ele>
        <time>2010-10-03T08:44:45Z</time>
      </trkpt>
      <trkpt lat="43.79977" lon="5.30215">
        <ele>563.7</ele>
        <time>2010-10-03T08:44:50Z</time>
      </trkpt>
      <trkpt lat="43.79982" lon="5.30206">
        <ele>563.2</ele>
        <time>2010-10-03T08:44:55Z</time>
      </trkpt>
      <trkpt lat="43.79984" lon="5.30195">
        <ele>562.2</ele>
        <time>2010-10-03T08:45:02Z</time>
      </trkpt>
      <trkpt lat="43.79984" lon="5.30193">
        <ele>562.3</ele>
        <time>2010-10-03T08:45:03Z</time>
      </trkpt>
      <trkpt lat="43.79989" lon="5.30175">
        <ele>561.6</ele>
        <time>2010-10-03T08:45:13Z</time>
      </trkpt>
      <trkpt lat="43.79991" lon="5.30164">
        <ele>561.9</ele>
        <time>2010-10-03T08:45:19Z</time>
      </trkpt>
      <trkpt lat="43.79993" lon="5.30152">
        <ele>561.7</ele>
        <time>2010-10-03T08:45:25Z</time>
      </trkpt>
      <trkpt lat="43.79997" lon="5.30141">
        <ele>562.4</ele>
        <time>2010-10-03T08:45:31Z</time>
      </trkpt>
      <trkpt lat="43.80003" lon="5.30132">
        <ele>561.7</ele>
        <time>2010-10-03T08:45:39Z</time>
      </trkpt>
      <trkpt lat="43.80012" lon="5.30132">
        <ele>560.7</ele>
        <time>2010-10-03T08:45:46Z</time>
      </trkpt>
      <trkpt lat="43.8002" lon="5.30136">
        <ele>559.4</ele>
        <time>2010-10-03T08:45:53Z</time>
      </trkpt>
      <trkpt lat="43.80028" lon="5.30137">
        <ele>558.4</ele>
        <time>2010-10-03T08:45:59Z</time>
      </trkpt>
      <trkpt lat="43.80037" lon="5.30139">
        <ele>557.4</ele>
        <time>2010-10-03T08:46:05Z</time>
      </trkpt>
      <trkpt lat="43.80039" lon="5.30139">
        <ele>557.1</ele>
        <time>2010-10-03T08:46:06Z</time>
      </trkpt>
      <trkpt lat="43.80054" lon="5.30142">
        <ele>554.9</ele>
        <time>2010-10-03T08:46:17Z</time>
      </trkpt>
      <trkpt lat="43.80062" lon="5.30143">
        <ele>555</ele>
        <time>2010-10-03T08:46:24Z</time>
      </trkpt>
      <trkpt lat="43.80071" lon="5.30143">
        <ele>553.7</ele>
        <time>2010-10-03T08:46:29Z</time>
      </trkpt>
      <trkpt lat="43.80079" lon="5.30138">
        <ele>553.5</ele>
        <time>2010-10-03T08:46:34Z</time>
      </trkpt>
      <trkpt lat="43.80086" lon="5.3013">
        <ele>553.1</ele>
        <time>2010-10-03T08:46:41Z</time>
      </trkpt>
      <trkpt lat="43.80093" lon="5.30126">
        <ele>552.8</ele>
        <time>2010-10-03T08:46:47Z</time>
      </trkpt>
      <trkpt lat="43.80102" lon="5.30126">
        <ele>552.5</ele>
        <time>2010-10-03T08:46:53Z</time>
      </trkpt>
      <trkpt lat="43.80109" lon="5.30123">
        <ele>551.9</ele>
        <time>2010-10-03T08:46:59Z</time>
      </trkpt>
      <trkpt lat="43.80118" lon="5.30121">
        <ele>550.6</ele>
        <time>2010-10-03T08:47:06Z</time>
      </trkpt>
      <trkpt lat="43.80119" lon="5.30121">
        <ele>550.3</ele>
        <time>2010-10-03T08:47:07Z</time>
      </trkpt>
      <trkpt lat="43.80132" lon="5.30117">
        <ele>548.7</ele>
        <time>2010-10-03T08:47:17Z</time>
      </trkpt>
      <trkpt lat="43.8014" lon="5.30116">
        <ele>548</ele>
        <time>2010-10-03T08:47:23Z</time>
      </trkpt>
      <trkpt lat="43.80148" lon="5.30116">
        <ele>547.4</ele>
        <time>2010-10-03T08:47:30Z</time>
      </trkpt>
      <trkpt lat="43.80157" lon="5.30117">
        <ele>546.4</ele>
        <time>2010-10-03T08:47:37Z</time>
      </trkpt>
      <trkpt lat="43.80165" lon="5.30119">
        <ele>545.7</ele>
        <time>2010-10-03T08:47:41Z</time>
      </trkpt>
      <trkpt lat="43.80174" lon="5.30121">
        <ele>545.1</ele>
        <time>2010-10-03T08:47:45Z</time>
      </trkpt>
      <trkpt lat="43.80181" lon="5.30117">
        <ele>543.8</ele>
        <time>2010-10-03T08:47:52Z</time>
      </trkpt>
      <trkpt lat="43.8019" lon="5.30114">
        <ele>543</ele>
        <time>2010-10-03T08:48:01Z</time>
      </trkpt>
      <trkpt lat="43.80198" lon="5.30113">
        <ele>541.4</ele>
        <time>2010-10-03T08:48:10Z</time>
      </trkpt>
      <trkpt lat="43.80199" lon="5.30113">
        <ele>541.2</ele>
        <time>2010-10-03T08:48:11Z</time>
      </trkpt>
      <trkpt lat="43.80214" lon="5.30123">
        <ele>539.5</ele>
        <time>2010-10-03T08:48:21Z</time>
      </trkpt>
      <trkpt lat="43.80221" lon="5.30127">
        <ele>538.9</ele>
        <time>2010-10-03T08:48:26Z</time>
      </trkpt>
      <trkpt lat="43.80228" lon="5.30131">
        <ele>537.9</ele>
        <time>2010-10-03T08:48:32Z</time>
      </trkpt>
      <trkpt lat="43.80236" lon="5.30134">
        <ele>536.7</ele>
        <time>2010-10-03T08:48:38Z</time>
      </trkpt>
      <trkpt lat="43.80245" lon="5.30135">
        <ele>535.3</ele>
        <time>2010-10-03T08:48:44Z</time>
      </trkpt>
      <trkpt lat="43.80252" lon="5.30132">
        <ele>534.9</ele>
        <time>2010-10-03T08:48:51Z</time>
      </trkpt>
      <trkpt lat="43.80259" lon="5.30125">
        <ele>533.3</ele>
        <time>2010-10-03T08:48:58Z</time>
      </trkpt>
      <trkpt lat="43.80265" lon="5.30117">
        <ele>532.3</ele>
        <time>2010-10-03T08:49:03Z</time>
      </trkpt>
      <trkpt lat="43.80265" lon="5.30106">
        <ele>530.5</ele>
        <time>2010-10-03T08:49:10Z</time>
      </trkpt>
      <trkpt lat="43.80258" lon="5.30102">
        <ele>528.8</ele>
        <time>2010-10-03T08:49:16Z</time>
      </trkpt>
      <trkpt lat="43.80257" lon="5.30102">
        <ele>529</ele>
        <time>2010-10-03T08:49:17Z</time>
      </trkpt>
      <trkpt lat="43.80241" lon="5.30104">
        <ele>529.4</ele>
        <time>2010-10-03T08:49:29Z</time>
      </trkpt>
      <trkpt lat="43.80235" lon="5.30097">
        <ele>526.8</ele>
        <time>2010-10-03T08:49:35Z</time>
      </trkpt>
      <trkpt lat="43.80228" lon="5.30089">
        <ele>525.7</ele>
        <time>2010-10-03T08:49:42Z</time>
      </trkpt>
      <trkpt lat="43.80223" lon="5.30082">
        <ele>525.5</ele>
        <time>2010-10-03T08:49:46Z</time>
      </trkpt>
      <trkpt lat="43.80216" lon="5.30075">
        <ele>525.7</ele>
        <time>2010-10-03T08:49:51Z</time>
      </trkpt>
      <trkpt lat="43.8021" lon="5.30068">
        <ele>524.8</ele>
        <time>2010-10-03T08:49:57Z</time>
      </trkpt>
      <trkpt lat="43.80203" lon="5.30062">
        <ele>523.8</ele>
        <time>2010-10-03T08:50:03Z</time>
      </trkpt>
      <trkpt lat="43.80196" lon="5.30057">
        <ele>523.2</ele>
        <time>2010-10-03T08:50:08Z</time>
      </trkpt>
      <trkpt lat="43.80187" lon="5.30054">
        <ele>522.8</ele>
        <time>2010-10-03T08:50:15Z</time>
      </trkpt>
      <trkpt lat="43.80179" lon="5.30053">
        <ele>521.8</ele>
        <time>2010-10-03T08:50:22Z</time>
      </trkpt>
      <trkpt lat="43.80178" lon="5.30053">
        <ele>521.5</ele>
        <time>2010-10-03T08:50:23Z</time>
      </trkpt>
      <trkpt lat="43.80163" lon="5.30049">
        <ele>520.2</ele>
        <time>2010-10-03T08:50:32Z</time>
      </trkpt>
      <trkpt lat="43.80155" lon="5.30046">
        <ele>520.1</ele>
        <time>2010-10-03T08:50:37Z</time>
      </trkpt>
      <trkpt lat="43.80146" lon="5.30044">
        <ele>519.8</ele>
        <time>2010-10-03T08:50:42Z</time>
      </trkpt>
      <trkpt lat="43.80138" lon="5.30042">
        <ele>519</ele>
        <time>2010-10-03T08:50:48Z</time>
      </trkpt>
      <trkpt lat="43.80129" lon="5.30039">
        <ele>517.6</ele>
        <time>2010-10-03T08:50:55Z</time>
      </trkpt>
      <trkpt lat="43.80122" lon="5.30035">
        <ele>516.8</ele>
        <time>2010-10-03T08:51:01Z</time>
      </trkpt>
      <trkpt lat="43.80114" lon="5.30033">
        <ele>516</ele>
        <time>2010-10-03T08:51:07Z</time>
      </trkpt>
      <trkpt lat="43.80106" lon="5.30033">
        <ele>515.6</ele>
        <time>2010-10-03T08:51:14Z</time>
      </trkpt>
      <trkpt lat="43.80097" lon="5.30033">
        <ele>515.1</ele>
        <time>2010-10-03T08:51:19Z</time>
      </trkpt>
      <trkpt lat="43.80089" lon="5.30035">
        <ele>513.8</ele>
        <time>2010-10-03T08:51:24Z</time>
      </trkpt>
      <trkpt lat="43.80088" lon="5.30035">
        <ele>513.6</ele>
        <time>2010-10-03T08:51:25Z</time>
      </trkpt>
      <trkpt lat="43.80072" lon="5.30035">
        <ele>511.3</ele>
        <time>2010-10-03T08:51:36Z</time>
      </trkpt>
      <trkpt lat="43.80064" lon="5.30033">
        <ele>510.4</ele>
        <time>2010-10-03T08:51:43Z</time>
      </trkpt>
      <trkpt lat="43.80055" lon="5.30035">
        <ele>509.8</ele>
        <time>2010-10-03T08:51:48Z</time>
      </trkpt>
      <trkpt lat="43.80047" lon="5.30035">
        <ele>508.6</ele>
        <time>2010-10-03T08:51:53Z</time>
      </trkpt>
      <trkpt lat="43.8004" lon="5.30032">
        <ele>507.5</ele>
        <time>2010-10-03T08:51:58Z</time>
      </trkpt>
      <trkpt lat="43.80032" lon="5.30026">
        <ele>506.8</ele>
        <time>2010-10-03T08:52:04Z</time>
      </trkpt>
      <trkpt lat="43.80025" lon="5.30022">
        <ele>505.6</ele>
        <time>2010-10-03T08:52:10Z</time>
      </trkpt>
      <trkpt lat="43.80019" lon="5.30012">
        <ele>503.6</ele>
        <time>2010-10-03T08:52:19Z</time>
      </trkpt>
      <trkpt lat="43.80013" lon="5.30003">
        <ele>502.3</ele>
        <time>2010-10-03T08:52:26Z</time>
      </trkpt>
      <trkpt lat="43.80012" lon="5.30002">
        <ele>502.2</ele>
        <time>2010-10-03T08:52:27Z</time>
      </trkpt>
      <trkpt lat="43.79999" lon="5.2999">
        <ele>500.9</ele>
        <time>2010-10-03T08:52:38Z</time>
      </trkpt>
      <trkpt lat="43.79991" lon="5.29987">
        <ele>499.7</ele>
        <time>2010-10-03T08:52:45Z</time>
      </trkpt>
      <trkpt lat="43.79983" lon="5.29985">
        <ele>498.5</ele>
        <time>2010-10-03T08:52:51Z</time>
      </trkpt>
      <trkpt lat="43.79975" lon="5.29984">
        <ele>497.4</ele>
        <time>2010-10-03T08:52:57Z</time>
      </trkpt>
      <trkpt lat="43.79967" lon="5.29984">
        <ele>496.8</ele>
        <time>2010-10-03T08:53:02Z</time>
      </trkpt>
      <trkpt lat="43.79959" lon="5.29982">
        <ele>495.8</ele>
        <time>2010-10-03T08:53:06Z</time>
      </trkpt>
      <trkpt lat="43.79951" lon="5.29985">
        <ele>495.3</ele>
        <time>2010-10-03T08:53:11Z</time>
      </trkpt>
      <trkpt lat="43.79944" lon="5.29986">
        <ele>494</ele>
        <time>2010-10-03T08:53:15Z</time>
      </trkpt>
      <trkpt lat="43.79936" lon="5.29989">
        <ele>493.4</ele>
        <time>2010-10-03T08:53:19Z</time>
      </trkpt>
      <trkpt lat="43.79929" lon="5.29991">
        <ele>492</ele>
        <time>2010-10-03T08:53:23Z</time>
      </trkpt>
      <trkpt lat="43.79922" lon="5.29997">
        <ele>491.9</ele>
        <time>2010-10-03T08:53:27Z</time>
      </trkpt>
      <trkpt lat="43.79921" lon="5.29998">
        <ele>491.6</ele>
        <time>2010-10-03T08:53:28Z</time>
      </trkpt>
      <trkpt lat="43.79908" lon="5.30006">
        <ele>491.7</ele>
        <time>2010-10-03T08:53:39Z</time>
      </trkpt>
      <trkpt lat="43.799" lon="5.30011">
        <ele>490.8</ele>
        <time>2010-10-03T08:53:44Z</time>
      </trkpt>
      <trkpt lat="43.79894" lon="5.30016">
        <ele>490.2</ele>
        <time>2010-10-03T08:53:49Z</time>
      </trkpt>
      <trkpt lat="43.7989" lon="5.30026">
        <ele>490.2</ele>
        <time>2010-10-03T08:53:55Z</time>
      </trkpt>
      <trkpt lat="43.79885" lon="5.30036">
        <ele>488.3</ele>
        <time>2010-10-03T08:54:00Z</time>
      </trkpt>
      <trkpt lat="43.79879" lon="5.30044">
        <ele>487.6</ele>
        <time>2010-10-03T08:54:04Z</time>
      </trkpt>
      <trkpt lat="43.79873" lon="5.30051">
        <ele>486.8</ele>
        <time>2010-10-03T08:54:09Z</time>
      </trkpt>
      <trkpt lat="43.79871" lon="5.30063">
        <ele>486.5</ele>
        <time>2010-10-03T08:54:15Z</time>
      </trkpt>
      <trkpt lat="43.79864" lon="5.3007">
        <ele>485.8</ele>
        <time>2010-10-03T08:54:19Z</time>
      </trkpt>
      <trkpt lat="43.79858" lon="5.30079">
        <ele>484.8</ele>
        <time>2010-10-03T08:54:24Z</time>
      </trkpt>
      <trkpt lat="43.79854" lon="5.30088">
        <ele>484.5</ele>
        <time>2010-10-03T08:54:28Z</time>
      </trkpt>
      <trkpt lat="43.79853" lon="5.30091">
        <ele>485</ele>
        <time>2010-10-03T08:54:29Z</time>
      </trkpt>
      <trkpt lat="43.79846" lon="5.30109">
        <ele>482.6</ele>
        <time>2010-10-03T08:54:40Z</time>
      </trkpt>
      <trkpt lat="43.7984" lon="5.30118">
        <ele>481.3</ele>
        <time>2010-10-03T08:54:47Z</time>
      </trkpt>
      <trkpt lat="43.79833" lon="5.30122">
        <ele>480.1</ele>
        <time>2010-10-03T08:54:53Z</time>
      </trkpt>
      <trkpt lat="43.79826" lon="5.30127">
        <ele>479.2</ele>
        <time>2010-10-03T08:54:58Z</time>
      </trkpt>
      <trkpt lat="43.79819" lon="5.30133">
        <ele>479.3</ele>
        <time>2010-10-03T08:55:04Z</time>
      </trkpt>
      <trkpt lat="43.79812" lon="5.30136">
        <ele>477.9</ele>
        <time>2010-10-03T08:55:10Z</time>
      </trkpt>
      <trkpt lat="43.79804" lon="5.30138">
        <ele>476.9</ele>
        <time>2010-10-03T08:55:16Z</time>
      </trkpt>
      <trkpt lat="43.79796" lon="5.30138">
        <ele>476.3</ele>
        <time>2010-10-03T08:55:21Z</time>
      </trkpt>
      <trkpt lat="43.79788" lon="5.30136">
        <ele>476.4</ele>
        <time>2010-10-03T08:55:26Z</time>
      </trkpt>
      <trkpt lat="43.79779" lon="5.30135">
        <ele>475.9</ele>
        <time>2010-10-03T08:55:31Z</time>
      </trkpt>
      <trkpt lat="43.79776" lon="5.30134">
        <ele>475.8</ele>
        <time>2010-10-03T08:55:32Z</time>
      </trkpt>
      <trkpt lat="43.79763" lon="5.30131">
        <ele>475</ele>
        <time>2010-10-03T08:55:40Z</time>
      </trkpt>
      <trkpt lat="43.79756" lon="5.30129">
        <ele>475.1</ele>
        <time>2010-10-03T08:55:43Z</time>
      </trkpt>
      <trkpt lat="43.79748" lon="5.30127">
        <ele>474.4</ele>
        <time>2010-10-03T08:55:47Z</time>
      </trkpt>
      <trkpt lat="43.7974" lon="5.30125">
        <ele>474.5</ele>
        <time>2010-10-03T08:55:51Z</time>
      </trkpt>
      <trkpt lat="43.79732" lon="5.30125">
        <ele>473.4</ele>
        <time>2010-10-03T08:55:56Z</time>
      </trkpt>
      <trkpt lat="43.79724" lon="5.30124">
        <ele>472</ele>
        <time>2010-10-03T08:56:02Z</time>
      </trkpt>
      <trkpt lat="43.79715" lon="5.30123">
        <ele>471.1</ele>
        <time>2010-10-03T08:56:11Z</time>
      </trkpt>
      <trkpt lat="43.79707" lon="5.30121">
        <ele>471.6</ele>
        <time>2010-10-03T08:56:18Z</time>
      </trkpt>
      <trkpt lat="43.79699" lon="5.30116">
        <ele>470.3</ele>
        <time>2010-10-03T08:56:24Z</time>
      </trkpt>
      <trkpt lat="43.79693" lon="5.30111">
        <ele>469.5</ele>
        <time>2010-10-03T08:56:30Z</time>
      </trkpt>
      <trkpt lat="43.79687" lon="5.30102">
        <ele>468.7</ele>
        <time>2010-10-03T08:56:35Z</time>
      </trkpt>
      <trkpt lat="43.79686" lon="5.301">
        <ele>468.6</ele>
        <time>2010-10-03T08:56:36Z</time>
      </trkpt>
      <trkpt lat="43.79686" lon="5.30079">
        <ele>468.3</ele>
        <time>2010-10-03T08:56:45Z</time>
      </trkpt>
      <trkpt lat="43.79687" lon="5.30067">
        <ele>468</ele>
        <time>2010-10-03T08:56:51Z</time>
      </trkpt>
      <trkpt lat="43.79684" lon="5.30057">
        <ele>468.4</ele>
        <time>2010-10-03T08:56:56Z</time>
      </trkpt>
      <trkpt lat="43.7968" lon="5.30046">
        <ele>467.6</ele>
        <time>2010-10-03T08:56:59Z</time>
      </trkpt>
      <trkpt lat="43.79673" lon="5.30039">
        <ele>466.6</ele>
        <time>2010-10-03T08:57:05Z</time>
      </trkpt>
      <trkpt lat="43.79664" lon="5.3004">
        <ele>466.2</ele>
        <time>2010-10-03T08:57:11Z</time>
      </trkpt>
      <trkpt lat="43.79656" lon="5.30043">
        <ele>465.5</ele>
        <time>2010-10-03T08:57:17Z</time>
      </trkpt>
      <trkpt lat="43.79649" lon="5.30044">
        <ele>464.9</ele>
        <time>2010-10-03T08:57:21Z</time>
      </trkpt>
      <trkpt lat="43.7964" lon="5.30046">
        <ele>464.2</ele>
        <time>2010-10-03T08:57:26Z</time>
      </trkpt>
      <trkpt lat="43.79633" lon="5.30053">
        <ele>462</ele>
        <time>2010-10-03T08:57:33Z</time>
      </trkpt>
      <trkpt lat="43.79626" lon="5.30057">
        <ele>460.8</ele>
        <time>2010-10-03T08:57:38Z</time>
      </trkpt>
      <trkpt lat="43.79624" lon="5.30058">
        <ele>460.4</ele>
        <time>2010-10-03T08:57:39Z</time>
      </trkpt>
      <trkpt lat="43.79612" lon="5.30069">
        <ele>457.3</ele>
        <time>2010-10-03T08:57:51Z</time>
      </trkpt>
      <trkpt lat="43.79604" lon="5.30071">
        <ele>456.4</ele>
        <time>2010-10-03T08:57:56Z</time>
      </trkpt>
      <trkpt lat="43.79597" lon="5.30075">
        <ele>455.4</ele>
        <time>2010-10-03T08:58:01Z</time>
      </trkpt>
      <trkpt lat="43.79591" lon="5.3008">
        <ele>454.1</ele>
        <time>2010-10-03T08:58:05Z</time>
      </trkpt>
      <trkpt lat="43.79585" lon="5.30088">
        <ele>452.5</ele>
        <time>2010-10-03T08:58:11Z</time>
      </trkpt>
      <trkpt lat="43.79578" lon="5.30097">
        <ele>451.7</ele>
        <time>2010-10-03T08:58:17Z</time>
      </trkpt>
      <trkpt lat="43.7957" lon="5.301">
        <ele>451.2</ele>
        <time>2010-10-03T08:58:22Z</time>
      </trkpt>
      <trkpt lat="43.79563" lon="5.30102">
        <ele>450.1</ele>
        <time>2010-10-03T08:58:27Z</time>
      </trkpt>
      <trkpt lat="43.79555" lon="5.30103">
        <ele>449.7</ele>
        <time>2010-10-03T08:58:32Z</time>
      </trkpt>
      <trkpt lat="43.79547" lon="5.30099">
        <ele>449.1</ele>
        <time>2010-10-03T08:58:38Z</time>
      </trkpt>
      <trkpt lat="43.79543" lon="5.3009">
        <ele>448.6</ele>
        <time>2010-10-03T08:58:44Z</time>
      </trkpt>
      <trkpt lat="43.79542" lon="5.30087">
        <ele>448.5</ele>
        <time>2010-10-03T08:58:45Z</time>
      </trkpt>
      <trkpt lat="43.79537" lon="5.30069">
        <ele>447.3</ele>
        <time>2010-10-03T08:58:54Z</time>
      </trkpt>
      <trkpt lat="43.79536" lon="5.30058">
        <ele>446.1</ele>
        <time>2010-10-03T08:59:00Z</time>
      </trkpt>
      <trkpt lat="43.79532" lon="5.30048">
        <ele>445.1</ele>
        <time>2010-10-03T08:59:06Z</time>
      </trkpt>
      <trkpt lat="43.79526" lon="5.30041">
        <ele>444.7</ele>
        <time>2010-10-03T08:59:11Z</time>
      </trkpt>
      <trkpt lat="43.79518" lon="5.30043">
        <ele>444.2</ele>
        <time>2010-10-03T08:59:17Z</time>
      </trkpt>
      <trkpt lat="43.7951" lon="5.30048">
        <ele>444.2</ele>
        <time>2010-10-03T08:59:24Z</time>
      </trkpt>
      <trkpt lat="43.79501" lon="5.30052">
        <ele>444.2</ele>
        <time>2010-10-03T08:59:29Z</time>
      </trkpt>
      <trkpt lat="43.79494" lon="5.30055">
        <ele>443.9</ele>
        <time>2010-10-03T08:59:34Z</time>
      </trkpt>
      <trkpt lat="43.79491" lon="5.30067">
        <ele>444.2</ele>
        <time>2010-10-03T08:59:39Z</time>
      </trkpt>
      <trkpt lat="43.79483" lon="5.30073">
        <ele>445</ele>
        <time>2010-10-03T08:59:44Z</time>
      </trkpt>
      <trkpt lat="43.79475" lon="5.30075">
        <ele>445.6</ele>
        <time>2010-10-03T08:59:49Z</time>
      </trkpt>
      <trkpt lat="43.79474" lon="5.30075">
        <ele>445.7</ele>
        <time>2010-10-03T08:59:50Z</time>
      </trkpt>
      <trkpt lat="43.79459" lon="5.30067">
        <ele>446.6</ele>
        <time>2010-10-03T08:59:59Z</time>
      </trkpt>
      <trkpt lat="43.79453" lon="5.3006">
        <ele>445.9</ele>
        <time>2010-10-03T09:00:04Z</time>
      </trkpt>
      <trkpt lat="43.79448" lon="5.30051">
        <ele>444.5</ele>
        <time>2010-10-03T09:00:10Z</time>
      </trkpt>
      <trkpt lat="43.79443" lon="5.30041">
        <ele>443.2</ele>
        <time>2010-10-03T09:00:16Z</time>
      </trkpt>
      <trkpt lat="43.79439" lon="5.30032">
        <ele>442.2</ele>
        <time>2010-10-03T09:00:24Z</time>
      </trkpt>
      <trkpt lat="43.79431" lon="5.30028">
        <ele>441.5</ele>
        <time>2010-10-03T09:00:29Z</time>
      </trkpt>
      <trkpt lat="43.79424" lon="5.30031">
        <ele>440.3</ele>
        <time>2010-10-03T09:00:36Z</time>
      </trkpt>
      <trkpt lat="43.79416" lon="5.30028">
        <ele>439.4</ele>
        <time>2010-10-03T09:00:39Z</time>
      </trkpt>
      <trkpt lat="43.79407" lon="5.30027">
        <ele>438.9</ele>
        <time>2010-10-03T09:00:43Z</time>
      </trkpt>
      <trkpt lat="43.79399" lon="5.30026">
        <ele>439.3</ele>
        <time>2010-10-03T09:00:46Z</time>
      </trkpt>
      <trkpt lat="43.79392" lon="5.30025">
        <ele>439</ele>
        <time>2010-10-03T09:00:49Z</time>
      </trkpt>
      <trkpt lat="43.79384" lon="5.30025">
        <ele>439.1</ele>
        <time>2010-10-03T09:00:53Z</time>
      </trkpt>
      <trkpt lat="43.79383" lon="5.30025">
        <ele>438.7</ele>
        <time>2010-10-03T09:00:54Z</time>
      </trkpt>
      <trkpt lat="43.79368" lon="5.30027">
        <ele>437</ele>
        <time>2010-10-03T09:01:04Z</time>
      </trkpt>
      <trkpt lat="43.7936" lon="5.30031">
        <ele>435.7</ele>
        <time>2010-10-03T09:01:10Z</time>
      </trkpt>
      <trkpt lat="43.79354" lon="5.30039">
        <ele>434.7</ele>
        <time>2010-10-03T09:01:16Z</time>
      </trkpt>
      <trkpt lat="43.79355" lon="5.3005">
        <ele>433.7</ele>
        <time>2010-10-03T09:01:21Z</time>
      </trkpt>
      <trkpt lat="43.79362" lon="5.30051">
        <ele>432.2</ele>
        <time>2010-10-03T09:01:27Z</time>
      </trkpt>
      <trkpt lat="43.79371" lon="5.3005">
        <ele>431.3</ele>
        <time>2010-10-03T09:01:37Z</time>
      </trkpt>
      <trkpt lat="43.79379" lon="5.30047">
        <ele>430.4</ele>
        <time>2010-10-03T09:01:47Z</time>
      </trkpt>
      <trkpt lat="43.79387" lon="5.30049">
        <ele>428.8</ele>
        <time>2010-10-03T09:01:53Z</time>
      </trkpt>
      <trkpt lat="43.79392" lon="5.30057">
        <ele>427.5</ele>
        <time>2010-10-03T09:01:58Z</time>
      </trkpt>
      <trkpt lat="43.79393" lon="5.30059">
        <ele>427.5</ele>
        <time>2010-10-03T09:01:59Z</time>
      </trkpt>
      <trkpt lat="43.79409" lon="5.30064">
        <ele>425.3</ele>
        <time>2010-10-03T09:02:12Z</time>
      </trkpt>
      <trkpt lat="43.79418" lon="5.30065">
        <ele>423.7</ele>
        <time>2010-10-03T09:02:17Z</time>
      </trkpt>
      <trkpt lat="43.79426" lon="5.3007">
        <ele>421.5</ele>
        <time>2010-10-03T09:02:24Z</time>
      </trkpt>
      <trkpt lat="43.79429" lon="5.30081">
        <ele>416.9</ele>
        <time>2010-10-03T09:02:35Z</time>
      </trkpt>
      <trkpt lat="43.79424" lon="5.30091">
        <ele>414.8</ele>
        <time>2010-10-03T09:02:43Z</time>
      </trkpt>
      <trkpt lat="43.79417" lon="5.30096">
        <ele>413.3</ele>
        <time>2010-10-03T09:02:49Z</time>
      </trkpt>
      <trkpt lat="43.7941" lon="5.30102">
        <ele>409.1</ele>
        <time>2010-10-03T09:03:04Z</time>
      </trkpt>
      <trkpt lat="43.79407" lon="5.30101">
        <ele>408.9</ele>
        <time>2010-10-03T09:03:05Z</time>
      </trkpt>
      <trkpt lat="43.79408" lon="5.30123">
        <ele>404.3</ele>
        <time>2010-10-03T09:03:19Z</time>
      </trkpt>
      <trkpt lat="43.79402" lon="5.30125">
        <ele>403.4</ele>
        <time>2010-10-03T09:03:22Z</time>
      </trkpt>
      <trkpt lat="43.79394" lon="5.30123">
        <ele>402.4</ele>
        <time>2010-10-03T09:03:25Z</time>
      </trkpt>
      <trkpt lat="43.79385" lon="5.30121">
        <ele>401.7</ele>
        <time>2010-10-03T09:03:31Z</time>
      </trkpt>
      <trkpt lat="43.79377" lon="5.30126">
        <ele>399.9</ele>
        <time>2010-10-03T09:03:39Z</time>
      </trkpt>
      <trkpt lat="43.7937" lon="5.30129">
        <ele>398.4</ele>
        <time>2010-10-03T09:03:44Z</time>
      </trkpt>
      <trkpt lat="43.79362" lon="5.30128">
        <ele>397.5</ele>
        <time>2010-10-03T09:03:48Z</time>
      </trkpt>
      <trkpt lat="43.79354" lon="5.30131">
        <ele>395.7</ele>
        <time>2010-10-03T09:03:54Z</time>
      </trkpt>
      <trkpt lat="43.79347" lon="5.30137">
        <ele>394.2</ele>
        <time>2010-10-03T09:04:00Z</time>
      </trkpt>
      <trkpt lat="43.79339" lon="5.3014">
        <ele>393</ele>
        <time>2010-10-03T09:04:04Z</time>
      </trkpt>
      <trkpt lat="43.79333" lon="5.30145">
        <ele>391.6</ele>
        <time>2010-10-03T09:04:08Z</time>
      </trkpt>
      <trkpt lat="43.79331" lon="5.30146">
        <ele>391.5</ele>
        <time>2010-10-03T09:04:09Z</time>
      </trkpt>
      <trkpt lat="43.79319" lon="5.30156">
        <ele>389</ele>
        <time>2010-10-03T09:04:18Z</time>
      </trkpt>
      <trkpt lat="43.79312" lon="5.30154">
        <ele>387.5</ele>
        <time>2010-10-03T09:04:23Z</time>
      </trkpt>
      <trkpt lat="43.79304" lon="5.3015">
        <ele>386.3</ele>
        <time>2010-10-03T09:04:28Z</time>
      </trkpt>
      <trkpt lat="43.79296" lon="5.30151">
        <ele>385.5</ele>
        <time>2010-10-03T09:04:32Z</time>
      </trkpt>
      <trkpt lat="43.79291" lon="5.30158">
        <ele>384</ele>
        <time>2010-10-03T09:04:38Z</time>
      </trkpt>
      <trkpt lat="43.79284" lon="5.30163">
        <ele>382.9</ele>
        <time>2010-10-03T09:04:42Z</time>
      </trkpt>
      <trkpt lat="43.79276" lon="5.30165">
        <ele>382.7</ele>
        <time>2010-10-03T09:04:47Z</time>
      </trkpt>
      <trkpt lat="43.79267" lon="5.30164">
        <ele>382.1</ele>
        <time>2010-10-03T09:04:53Z</time>
      </trkpt>
      <trkpt lat="43.79259" lon="5.30161">
        <ele>381.2</ele>
        <time>2010-10-03T09:04:58Z</time>
      </trkpt>
      <trkpt lat="43.79251" lon="5.30157">
        <ele>380.4</ele>
        <time>2010-10-03T09:05:05Z</time>
      </trkpt>
      <trkpt lat="43.79243" lon="5.30153">
        <ele>379.8</ele>
        <time>2010-10-03T09:05:11Z</time>
      </trkpt>
      <trkpt lat="43.79241" lon="5.30153">
        <ele>379.9</ele>
        <time>2010-10-03T09:05:12Z</time>
      </trkpt>
      <trkpt lat="43.79227" lon="5.30147">
        <ele>378.9</ele>
        <time>2010-10-03T09:05:20Z</time>
      </trkpt>
      <trkpt lat="43.7922" lon="5.30141">
        <ele>378.6</ele>
        <time>2010-10-03T09:05:24Z</time>
      </trkpt>
      <trkpt lat="43.79212" lon="5.30137">
        <ele>377.6</ele>
        <time>2010-10-03T09:05:29Z</time>
      </trkpt>
      <trkpt lat="43.79205" lon="5.3013">
        <ele>377.5</ele>
        <time>2010-10-03T09:05:34Z</time>
      </trkpt>
      <trkpt lat="43.79197" lon="5.30125">
        <ele>377.3</ele>
        <time>2010-10-03T09:05:42Z</time>
      </trkpt>
      <trkpt lat="43.79189" lon="5.30122">
        <ele>377.5</ele>
        <time>2010-10-03T09:05:49Z</time>
      </trkpt>
      <trkpt lat="43.79181" lon="5.30121">
        <ele>376.8</ele>
        <time>2010-10-03T09:05:54Z</time>
      </trkpt>
      <trkpt lat="43.79173" lon="5.3012">
        <ele>376.2</ele>
        <time>2010-10-03T09:05:59Z</time>
      </trkpt>
      <trkpt lat="43.79165" lon="5.30122">
        <ele>376.1</ele>
        <time>2010-10-03T09:06:05Z</time>
      </trkpt>
      <trkpt lat="43.79158" lon="5.30122">
        <ele>376.5</ele>
        <time>2010-10-03T09:06:11Z</time>
      </trkpt>
      <trkpt lat="43.7915" lon="5.30118">
        <ele>376</ele>
        <time>2010-10-03T09:06:16Z</time>
      </trkpt>
      <trkpt lat="43.79149" lon="5.30118">
        <ele>375.9</ele>
        <time>2010-10-03T09:06:17Z</time>
      </trkpt>
      <trkpt lat="43.79136" lon="5.30119">
        <ele>374.8</ele>
        <time>2010-10-03T09:06:25Z</time>
      </trkpt>
      <trkpt lat="43.79127" lon="5.30119">
        <ele>374.5</ele>
        <time>2010-10-03T09:06:30Z</time>
      </trkpt>
      <trkpt lat="43.79119" lon="5.30118">
        <ele>373.5</ele>
        <time>2010-10-03T09:06:35Z</time>
      </trkpt>
      <trkpt lat="43.79111" lon="5.30116">
        <ele>372.3</ele>
        <time>2010-10-03T09:06:39Z</time>
      </trkpt>
      <trkpt lat="43.79104" lon="5.30112">
        <ele>372.1</ele>
        <time>2010-10-03T09:06:43Z</time>
      </trkpt>
      <trkpt lat="43.79097" lon="5.3011">
        <ele>371.6</ele>
        <time>2010-10-03T09:06:47Z</time>
      </trkpt>
      <trkpt lat="43.79089" lon="5.30108">
        <ele>371.5</ele>
        <time>2010-10-03T09:06:52Z</time>
      </trkpt>
      <trkpt lat="43.79081" lon="5.30108">
        <ele>371.3</ele>
        <time>2010-10-03T09:06:57Z</time>
      </trkpt>
      <trkpt lat="43.79072" lon="5.30109">
        <ele>371.1</ele>
        <time>2010-10-03T09:07:02Z</time>
      </trkpt>
      <trkpt lat="43.79064" lon="5.30112">
        <ele>371.9</ele>
        <time>2010-10-03T09:07:09Z</time>
      </trkpt>
      <trkpt lat="43.79055" lon="5.30115">
        <ele>372.8</ele>
        <time>2010-10-03T09:07:15Z</time>
      </trkpt>
      <trkpt lat="43.79047" lon="5.30113">
        <ele>373</ele>
        <time>2010-10-03T09:07:19Z</time>
      </trkpt>
      <trkpt lat="43.79046" lon="5.30113">
        <ele>372.9</ele>
        <time>2010-10-03T09:07:20Z</time>
      </trkpt>
      <trkpt lat="43.79032" lon="5.30106">
        <ele>373.9</ele>
        <time>2010-10-03T09:07:29Z</time>
      </trkpt>
      <trkpt lat="43.79023" lon="5.30103">
        <ele>374.5</ele>
        <time>2010-10-03T09:07:35Z</time>
      </trkpt>
      <trkpt lat="43.79015" lon="5.30097">
        <ele>374.2</ele>
        <time>2010-10-03T09:07:39Z</time>
      </trkpt>
      <trkpt lat="43.79008" lon="5.30094">
        <ele>375.2</ele>
        <time>2010-10-03T09:07:44Z</time>
      </trkpt>
      <trkpt lat="43.79" lon="5.30094">
        <ele>375</ele>
        <time>2010-10-03T09:07:48Z</time>
      </trkpt>
      <trkpt lat="43.78991" lon="5.30096">
        <ele>374.2</ele>
        <time>2010-10-03T09:07:52Z</time>
      </trkpt>
      <trkpt lat="43.78983" lon="5.30096">
        <ele>374</ele>
        <time>2010-10-03T09:07:58Z</time>
      </trkpt>
      <trkpt lat="43.78975" lon="5.30093">
        <ele>373.7</ele>
        <time>2010-10-03T09:08:04Z</time>
      </trkpt>
      <trkpt lat="43.78967" lon="5.30089">
        <ele>372.1</ele>
        <time>2010-10-03T09:08:10Z</time>
      </trkpt>
      <trkpt lat="43.78959" lon="5.30083">
        <ele>371.6</ele>
        <time>2010-10-03T09:08:16Z</time>
      </trkpt>
      <trkpt lat="43.78951" lon="5.30078">
        <ele>371</ele>
        <time>2010-10-03T09:08:21Z</time>
      </trkpt>
      <trkpt lat="43.7895" lon="5.30076">
        <ele>370.7</ele>
        <time>2010-10-03T09:08:22Z</time>
      </trkpt>
      <trkpt lat="43.7894" lon="5.30062">
        <ele>369.8</ele>
        <time>2010-10-03T09:08:31Z</time>
      </trkpt>
      <trkpt lat="43.78934" lon="5.30057">
        <ele>369.4</ele>
        <time>2010-10-03T09:08:36Z</time>
      </trkpt>
      <trkpt lat="43.78925" lon="5.30054">
        <ele>369.2</ele>
        <time>2010-10-03T09:08:43Z</time>
      </trkpt>
      <trkpt lat="43.78916" lon="5.30053">
        <ele>368.2</ele>
        <time>2010-10-03T09:08:49Z</time>
      </trkpt>
      <trkpt lat="43.78908" lon="5.30056">
        <ele>366.9</ele>
        <time>2010-10-03T09:08:55Z</time>
      </trkpt>
      <trkpt lat="43.789" lon="5.30057">
        <ele>365.5</ele>
        <time>2010-10-03T09:09:04Z</time>
      </trkpt>
      <trkpt lat="43.78891" lon="5.30056">
        <ele>364.5</ele>
        <time>2010-10-03T09:09:12Z</time>
      </trkpt>
      <trkpt lat="43.78886" lon="5.30063">
        <ele>365.1</ele>
        <time>2010-10-03T09:09:20Z</time>
      </trkpt>
      <trkpt lat="43.78878" lon="5.30068">
        <ele>364.9</ele>
        <time>2010-10-03T09:09:25Z</time>
      </trkpt>
      <trkpt lat="43.78875" lon="5.30068">
        <ele>364.6</ele>
        <time>2010-10-03T09:09:26Z</time>
      </trkpt>
      <trkpt lat="43.78863" lon="5.30078">
        <ele>363.2</ele>
        <time>2010-10-03T09:09:35Z</time>
      </trkpt>
      <trkpt lat="43.78856" lon="5.30086">
        <ele>363.4</ele>
        <time>2010-10-03T09:09:41Z</time>
      </trkpt>
      <trkpt lat="43.78848" lon="5.30091">
        <ele>363</ele>
        <time>2010-10-03T09:09:46Z</time>
      </trkpt>
      <trkpt lat="43.7884" lon="5.30093">
        <ele>361.7</ele>
        <time>2010-10-03T09:09:50Z</time>
      </trkpt>
      <trkpt lat="43.78833" lon="5.30093">
        <ele>362.1</ele>
        <time>2010-10-03T09:09:55Z</time>
      </trkpt>
      <trkpt lat="43.78825" lon="5.30094">
        <ele>361.8</ele>
        <time>2010-10-03T09:10:00Z</time>
      </trkpt>
      <trkpt lat="43.78817" lon="5.30095">
        <ele>361.7</ele>
        <time>2010-10-03T09:10:04Z</time>
      </trkpt>
      <trkpt lat="43.7881" lon="5.30098">
        <ele>361.3</ele>
        <time>2010-10-03T09:10:08Z</time>
      </trkpt>
      <trkpt lat="43.78802" lon="5.30101">
        <ele>361</ele>
        <time>2010-10-03T09:10:14Z</time>
      </trkpt>
      <trkpt lat="43.78795" lon="5.30106">
        <ele>360.4</ele>
        <time>2010-10-03T09:10:21Z</time>
      </trkpt>
      <trkpt lat="43.78788" lon="5.30111">
        <ele>360.2</ele>
        <time>2010-10-03T09:10:26Z</time>
      </trkpt>
      <trkpt lat="43.78787" lon="5.30112">
        <ele>360.1</ele>
        <time>2010-10-03T09:10:27Z</time>
      </trkpt>
      <trkpt lat="43.78774" lon="5.30124">
        <ele>358.4</ele>
        <time>2010-10-03T09:10:38Z</time>
      </trkpt>
      <trkpt lat="43.78769" lon="5.30132">
        <ele>358.1</ele>
        <time>2010-10-03T09:10:43Z</time>
      </trkpt>
      <trkpt lat="43.78763" lon="5.30141">
        <ele>357.3</ele>
        <time>2010-10-03T09:10:48Z</time>
      </trkpt>
      <trkpt lat="43.78759" lon="5.30149">
        <ele>357.1</ele>
        <time>2010-10-03T09:10:53Z</time>
      </trkpt>
      <trkpt lat="43.78755" lon="5.30158">
        <ele>356.8</ele>
        <time>2010-10-03T09:10:57Z</time>
      </trkpt>
      <trkpt lat="43.78752" lon="5.30168">
        <ele>356.8</ele>
        <time>2010-10-03T09:11:02Z</time>
      </trkpt>
      <trkpt lat="43.7875" lon="5.30179">
        <ele>356.9</ele>
        <time>2010-10-03T09:11:07Z</time>
      </trkpt>
      <trkpt lat="43.78747" lon="5.3019">
        <ele>356.6</ele>
        <time>2010-10-03T09:11:12Z</time>
      </trkpt>
      <trkpt lat="43.78743" lon="5.30199">
        <ele>356.3</ele>
        <time>2010-10-03T09:11:17Z</time>
      </trkpt>
      <trkpt lat="43.78736" lon="5.30207">
        <ele>355.6</ele>
        <time>2010-10-03T09:11:22Z</time>
      </trkpt>
      <trkpt lat="43.78731" lon="5.30213">
        <ele>355.7</ele>
        <time>2010-10-03T09:11:26Z</time>
      </trkpt>
      <trkpt lat="43.78726" lon="5.30223">
        <ele>355.3</ele>
        <time>2010-10-03T09:11:30Z</time>
      </trkpt>
      <trkpt lat="43.78725" lon="5.30225">
        <ele>355.1</ele>
        <time>2010-10-03T09:11:31Z</time>
      </trkpt>
      <trkpt lat="43.78714" lon="5.3024">
        <ele>353.7</ele>
        <time>2010-10-03T09:11:39Z</time>
      </trkpt>
      <trkpt lat="43.78708" lon="5.30247">
        <ele>353.5</ele>
        <time>2010-10-03T09:11:46Z</time>
      </trkpt>
      <trkpt lat="43.78701" lon="5.30254">
        <ele>353.9</ele>
        <time>2010-10-03T09:11:51Z</time>
      </trkpt>
      <trkpt lat="43.78694" lon="5.30261">
        <ele>353.6</ele>
        <time>2010-10-03T09:11:56Z</time>
      </trkpt>
      <trkpt lat="43.78686" lon="5.30265">
        <ele>353.5</ele>
        <time>2010-10-03T09:12:00Z</time>
      </trkpt>
      <trkpt lat="43.78679" lon="5.30269">
        <ele>352.7</ele>
        <time>2010-10-03T09:12:04Z</time>
      </trkpt>
      <trkpt lat="43.78674" lon="5.30279">
        <ele>353</ele>
        <time>2010-10-03T09:12:09Z</time>
      </trkpt>
      <trkpt lat="43.7867" lon="5.30288">
        <ele>353.3</ele>
        <time>2010-10-03T09:12:13Z</time>
      </trkpt>
      <trkpt lat="43.78666" lon="5.30299">
        <ele>354.2</ele>
        <time>2010-10-03T09:12:19Z</time>
      </trkpt>
      <trkpt lat="43.78667" lon="5.30311">
        <ele>351.8</ele>
        <time>2010-10-03T09:12:25Z</time>
      </trkpt>
      <trkpt lat="43.78671" lon="5.30321">
        <ele>351.5</ele>
        <time>2010-10-03T09:12:30Z</time>
      </trkpt>
      <trkpt lat="43.78675" lon="5.3033">
        <ele>351.1</ele>
        <time>2010-10-03T09:12:35Z</time>
      </trkpt>
      <trkpt lat="43.78676" lon="5.30332">
        <ele>351.3</ele>
        <time>2010-10-03T09:12:36Z</time>
      </trkpt>
      <trkpt lat="43.78684" lon="5.30348">
        <ele>351.1</ele>
        <time>2010-10-03T09:12:44Z</time>
      </trkpt>
      <trkpt lat="43.78686" lon="5.30359">
        <ele>351.3</ele>
        <time>2010-10-03T09:12:49Z</time>
      </trkpt>
      <trkpt lat="43.78687" lon="5.3037">
        <ele>351.7</ele>
        <time>2010-10-03T09:12:54Z</time>
      </trkpt>
      <trkpt lat="43.78688" lon="5.30382">
        <ele>351.9</ele>
        <time>2010-10-03T09:12:59Z</time>
      </trkpt>
      <trkpt lat="43.78688" lon="5.30393">
        <ele>351</ele>
        <time>2010-10-03T09:13:04Z</time>
      </trkpt>
      <trkpt lat="43.78687" lon="5.30403">
        <ele>350.1</ele>
        <time>2010-10-03T09:13:09Z</time>
      </trkpt>
      <trkpt lat="43.78683" lon="5.30413">
        <ele>349.8</ele>
        <time>2010-10-03T09:13:14Z</time>
      </trkpt>
      <trkpt lat="43.78679" lon="5.30422">
        <ele>348.9</ele>
        <time>2010-10-03T09:13:18Z</time>
      </trkpt>
      <trkpt lat="43.78674" lon="5.3043">
        <ele>347.9</ele>
        <time>2010-10-03T09:13:24Z</time>
      </trkpt>
      <trkpt lat="43.78669" lon="5.30439">
        <ele>346.6</ele>
        <time>2010-10-03T09:13:29Z</time>
      </trkpt>
      <trkpt lat="43.78663" lon="5.30446">
        <ele>345.9</ele>
        <time>2010-10-03T09:13:34Z</time>
      </trkpt>
      <trkpt lat="43.78655" lon="5.30452">
        <ele>345</ele>
        <time>2010-10-03T09:13:40Z</time>
      </trkpt>
      <trkpt lat="43.78654" lon="5.30453">
        <ele>344.8</ele>
        <time>2010-10-03T09:13:41Z</time>
      </trkpt>
      <trkpt lat="43.78639" lon="5.30457">
        <ele>344.1</ele>
        <time>2010-10-03T09:13:51Z</time>
      </trkpt>
      <trkpt lat="43.78631" lon="5.30455">
        <ele>343.3</ele>
        <time>2010-10-03T09:13:56Z</time>
      </trkpt>
      <trkpt lat="43.78623" lon="5.30453">
        <ele>342.9</ele>
        <time>2010-10-03T09:14:02Z</time>
      </trkpt>
      <trkpt lat="43.78616" lon="5.30448">
        <ele>342</ele>
        <time>2010-10-03T09:14:08Z</time>
      </trkpt>
      <trkpt lat="43.78609" lon="5.30445">
        <ele>341.7</ele>
        <time>2010-10-03T09:14:15Z</time>
      </trkpt>
      <trkpt lat="43.78601" lon="5.30443">
        <ele>341.5</ele>
        <time>2010-10-03T09:14:21Z</time>
      </trkpt>
      <trkpt lat="43.78592" lon="5.30443">
        <ele>340.8</ele>
        <time>2010-10-03T09:14:28Z</time>
      </trkpt>
      <trkpt lat="43.78584" lon="5.30444">
        <ele>340</ele>
        <time>2010-10-03T09:14:34Z</time>
      </trkpt>
      <trkpt lat="43.78576" lon="5.30445">
        <ele>339.5</ele>
        <time>2010-10-03T09:14:39Z</time>
      </trkpt>
      <trkpt lat="43.78567" lon="5.30447">
        <ele>339.3</ele>
        <time>2010-10-03T09:14:44Z</time>
      </trkpt>
      <trkpt lat="43.78566" lon="5.30447">
        <ele>339.3</ele>
        <time>2010-10-03T09:14:45Z</time>
      </trkpt>
      <trkpt lat="43.78552" lon="5.30453">
        <ele>338.5</ele>
        <time>2010-10-03T09:14:54Z</time>
      </trkpt>
      <trkpt lat="43.78546" lon="5.3046">
        <ele>338.3</ele>
        <time>2010-10-03T09:14:59Z</time>
      </trkpt>
      <trkpt lat="43.78541" lon="5.30469">
        <ele>338.4</ele>
        <time>2010-10-03T09:15:04Z</time>
      </trkpt>
      <trkpt lat="43.78539" lon="5.3048">
        <ele>337.9</ele>
        <time>2010-10-03T09:15:09Z</time>
      </trkpt>
      <trkpt lat="43.78536" lon="5.30492">
        <ele>337.1</ele>
        <time>2010-10-03T09:15:15Z</time>
      </trkpt>
      <trkpt lat="43.78532" lon="5.30499">
        <ele>336.9</ele>
        <time>2010-10-03T09:15:19Z</time>
      </trkpt>
      <trkpt lat="43.78526" lon="5.30508">
        <ele>337.4</ele>
        <time>2010-10-03T09:15:24Z</time>
      </trkpt>
      <trkpt lat="43.7852" lon="5.30516">
        <ele>337.7</ele>
        <time>2010-10-03T09:15:30Z</time>
      </trkpt>
      <trkpt lat="43.78515" lon="5.30523">
        <ele>337.6</ele>
        <time>2010-10-03T09:15:34Z</time>
      </trkpt>
      <trkpt lat="43.78508" lon="5.30529">
        <ele>337.2</ele>
        <time>2010-10-03T09:15:38Z</time>
      </trkpt>
      <trkpt lat="43.78501" lon="5.30535">
        <ele>336.3</ele>
        <time>2010-10-03T09:15:43Z</time>
      </trkpt>
      <trkpt lat="43.78495" lon="5.30541">
        <ele>335.6</ele>
        <time>2010-10-03T09:15:48Z</time>
      </trkpt>
      <trkpt lat="43.78493" lon="5.30542">
        <ele>335.2</ele>
        <time>2010-10-03T09:15:49Z</time>
      </trkpt>
      <trkpt lat="43.78481" lon="5.30553">
        <ele>333.6</ele>
        <time>2010-10-03T09:15:57Z</time>
      </trkpt>
      <trkpt lat="43.78475" lon="5.30562">
        <ele>332.6</ele>
        <time>2010-10-03T09:16:02Z</time>
      </trkpt>
      <trkpt lat="43.78467" lon="5.30567">
        <ele>331.5</ele>
        <time>2010-10-03T09:16:08Z</time>
      </trkpt>
      <trkpt lat="43.78461" lon="5.30566">
        <ele>330.8</ele>
        <time>2010-10-03T09:16:10Z</time>
      </trkpt>
      <trkpt lat="43.78454" lon="5.30567">
        <ele>330.8</ele>
        <time>2010-10-03T09:16:13Z</time>
      </trkpt>
      <trkpt lat="43.78445" lon="5.3057">
        <ele>330.1</ele>
        <time>2010-10-03T09:16:16Z</time>
      </trkpt>
      <trkpt lat="43.78437" lon="5.30574">
        <ele>329.2</ele>
        <time>2010-10-03T09:16:20Z</time>
      </trkpt>
      <trkpt lat="43.78431" lon="5.3058">
        <ele>328.4</ele>
        <time>2010-10-03T09:16:24Z</time>
      </trkpt>
      <trkpt lat="43.78425" lon="5.30584">
        <ele>327.5</ele>
        <time>2010-10-03T09:16:27Z</time>
      </trkpt>
      <trkpt lat="43.7842" lon="5.30591">
        <ele>326.9</ele>
        <time>2010-10-03T09:16:30Z</time>
      </trkpt>
      <trkpt lat="43.78419" lon="5.30603">
        <ele>326.8</ele>
        <time>2010-10-03T09:16:35Z</time>
      </trkpt>
      <trkpt lat="43.78419" lon="5.30615">
        <ele>325.5</ele>
        <time>2010-10-03T09:16:41Z</time>
      </trkpt>
      <trkpt lat="43.78415" lon="5.30625">
        <ele>324.5</ele>
        <time>2010-10-03T09:16:47Z</time>
      </trkpt>
      <trkpt lat="43.78408" lon="5.30632">
        <ele>323.4</ele>
        <time>2010-10-03T09:16:53Z</time>
      </trkpt>
      <trkpt lat="43.78407" lon="5.30633">
        <ele>323.4</ele>
        <time>2010-10-03T09:16:54Z</time>
      </trkpt>
      <trkpt lat="43.78396" lon="5.3065">
        <ele>322.4</ele>
        <time>2010-10-03T09:17:06Z</time>
      </trkpt>
      <trkpt lat="43.78388" lon="5.30652">
        <ele>321.5</ele>
        <time>2010-10-03T09:17:12Z</time>
      </trkpt>
      <trkpt lat="43.78381" lon="5.30656">
        <ele>321.3</ele>
        <time>2010-10-03T09:17:16Z</time>
      </trkpt>
      <trkpt lat="43.78373" lon="5.30659">
        <ele>319.9</ele>
        <time>2010-10-03T09:17:21Z</time>
      </trkpt>
      <trkpt lat="43.78366" lon="5.30663">
        <ele>319.4</ele>
        <time>2010-10-03T09:17:25Z</time>
      </trkpt>
      <trkpt lat="43.7836" lon="5.30668">
        <ele>318.8</ele>
        <time>2010-10-03T09:17:29Z</time>
      </trkpt>
      <trkpt lat="43.78352" lon="5.30674">
        <ele>318.1</ele>
        <time>2010-10-03T09:17:34Z</time>
      </trkpt>
      <trkpt lat="43.78345" lon="5.30679">
        <ele>317.4</ele>
        <time>2010-10-03T09:17:39Z</time>
      </trkpt>
      <trkpt lat="43.78338" lon="5.30684">
        <ele>317.6</ele>
        <time>2010-10-03T09:17:43Z</time>
      </trkpt>
      <trkpt lat="43.78331" lon="5.30688">
        <ele>317.3</ele>
        <time>2010-10-03T09:17:47Z</time>
      </trkpt>
      <trkpt lat="43.78323" lon="5.3069">
        <ele>317.1</ele>
        <time>2010-10-03T09:17:50Z</time>
      </trkpt>
      <trkpt lat="43.78316" lon="5.30692">
        <ele>317</ele>
        <time>2010-10-03T09:17:54Z</time>
      </trkpt>
      <trkpt lat="43.78314" lon="5.30693">
        <ele>317</ele>
        <time>2010-10-03T09:17:55Z</time>
      </trkpt>
      <trkpt lat="43.78306" lon="5.30709">
        <ele>316.6</ele>
        <time>2010-10-03T09:18:03Z</time>
      </trkpt>
      <trkpt lat="43.78303" lon="5.30719">
        <ele>316.3</ele>
        <time>2010-10-03T09:18:07Z</time>
      </trkpt>
      <trkpt lat="43.783" lon="5.3073">
        <ele>315.8</ele>
        <time>2010-10-03T09:18:12Z</time>
      </trkpt>
      <trkpt lat="43.78293" lon="5.30738">
        <ele>315.2</ele>
        <time>2010-10-03T09:18:17Z</time>
      </trkpt>
      <trkpt lat="43.78289" lon="5.30746">
        <ele>315</ele>
        <time>2010-10-03T09:18:20Z</time>
      </trkpt>
      <trkpt lat="43.78283" lon="5.30753">
        <ele>314.3</ele>
        <time>2010-10-03T09:18:24Z</time>
      </trkpt>
      <trkpt lat="43.78278" lon="5.30762">
        <ele>313.6</ele>
        <time>2010-10-03T09:18:29Z</time>
      </trkpt>
      <trkpt lat="43.78272" lon="5.30772">
        <ele>313.4</ele>
        <time>2010-10-03T09:18:34Z</time>
      </trkpt>
      <trkpt lat="43.78266" lon="5.30777">
        <ele>313.1</ele>
        <time>2010-10-03T09:18:39Z</time>
      </trkpt>
      <trkpt lat="43.78259" lon="5.30781">
        <ele>313.5</ele>
        <time>2010-10-03T09:18:44Z</time>
      </trkpt>
      <trkpt lat="43.78252" lon="5.30788">
        <ele>314.1</ele>
        <time>2010-10-03T09:18:50Z</time>
      </trkpt>
      <trkpt lat="43.78244" lon="5.30792">
        <ele>314</ele>
        <time>2010-10-03T09:18:55Z</time>
      </trkpt>
      <trkpt lat="43.78243" lon="5.30792">
        <ele>313.6</ele>
        <time>2010-10-03T09:18:56Z</time>
      </trkpt>
      <trkpt lat="43.78229" lon="5.30789">
        <ele>312.8</ele>
        <time>2010-10-03T09:19:03Z</time>
      </trkpt>
      <trkpt lat="43.78221" lon="5.30786">
        <ele>312.1</ele>
        <time>2010-10-03T09:19:07Z</time>
      </trkpt>
      <trkpt lat="43.78213" lon="5.30781">
        <ele>311.3</ele>
        <time>2010-10-03T09:19:13Z</time>
      </trkpt>
      <trkpt lat="43.78207" lon="5.30773">
        <ele>309.8</ele>
        <time>2010-10-03T09:19:20Z</time>
      </trkpt>
      <trkpt lat="43.782" lon="5.30766">
        <ele>309.8</ele>
        <time>2010-10-03T09:19:25Z</time>
      </trkpt>
      <trkpt lat="43.78194" lon="5.30762">
        <ele>309.2</ele>
        <time>2010-10-03T09:19:30Z</time>
      </trkpt>
      <trkpt lat="43.78186" lon="5.30757">
        <ele>308.7</ele>
        <time>2010-10-03T09:19:35Z</time>
      </trkpt>
      <trkpt lat="43.78179" lon="5.3075">
        <ele>308.6</ele>
        <time>2010-10-03T09:19:40Z</time>
      </trkpt>
      <trkpt lat="43.78173" lon="5.30744">
        <ele>308.4</ele>
        <time>2010-10-03T09:19:44Z</time>
      </trkpt>
      <trkpt lat="43.78166" lon="5.3074">
        <ele>307</ele>
        <time>2010-10-03T09:19:48Z</time>
      </trkpt>
      <trkpt lat="43.78159" lon="5.30734">
        <ele>306.3</ele>
        <time>2010-10-03T09:19:52Z</time>
      </trkpt>
      <trkpt lat="43.7815" lon="5.30731">
        <ele>306.7</ele>
        <time>2010-10-03T09:19:58Z</time>
      </trkpt>
      <trkpt lat="43.78149" lon="5.3073">
        <ele>306.7</ele>
        <time>2010-10-03T09:19:59Z</time>
      </trkpt>
      <trkpt lat="43.78135" lon="5.30725">
        <ele>306.5</ele>
        <time>2010-10-03T09:20:07Z</time>
      </trkpt>
      <trkpt lat="43.78127" lon="5.30721">
        <ele>306.4</ele>
        <time>2010-10-03T09:20:12Z</time>
      </trkpt>
      <trkpt lat="43.7812" lon="5.3072">
        <ele>305.9</ele>
        <time>2010-10-03T09:20:16Z</time>
      </trkpt>
      <trkpt lat="43.78112" lon="5.30716">
        <ele>305.5</ele>
        <time>2010-10-03T09:20:20Z</time>
      </trkpt>
      <trkpt lat="43.78105" lon="5.3071">
        <ele>304.8</ele>
        <time>2010-10-03T09:20:25Z</time>
      </trkpt>
      <trkpt lat="43.78098" lon="5.30703">
        <ele>304.4</ele>
        <time>2010-10-03T09:20:31Z</time>
      </trkpt>
      <trkpt lat="43.78093" lon="5.30695">
        <ele>304.9</ele>
        <time>2010-10-03T09:20:36Z</time>
      </trkpt>
      <trkpt lat="43.78085" lon="5.3069">
        <ele>304.7</ele>
        <time>2010-10-03T09:20:41Z</time>
      </trkpt>
      <trkpt lat="43.78078" lon="5.30688">
        <ele>303.9</ele>
        <time>2010-10-03T09:20:46Z</time>
      </trkpt>
      <trkpt lat="43.7807" lon="5.30688">
        <ele>303.8</ele>
        <time>2010-10-03T09:20:51Z</time>
      </trkpt>
      <trkpt lat="43.78062" lon="5.30688">
        <ele>303.7</ele>
        <time>2010-10-03T09:20:58Z</time>
      </trkpt>
      <trkpt lat="43.78054" lon="5.30686">
        <ele>303.5</ele>
        <time>2010-10-03T09:21:02Z</time>
      </trkpt>
      <trkpt lat="43.78053" lon="5.30685">
        <ele>303.4</ele>
        <time>2010-10-03T09:21:03Z</time>
      </trkpt>
      <trkpt lat="43.78039" lon="5.30681">
        <ele>302.9</ele>
        <time>2010-10-03T09:21:09Z</time>
      </trkpt>
      <trkpt lat="43.78031" lon="5.30681">
        <ele>303.5</ele>
        <time>2010-10-03T09:21:13Z</time>
      </trkpt>
      <trkpt lat="43.78023" lon="5.30679">
        <ele>302.7</ele>
        <time>2010-10-03T09:21:17Z</time>
      </trkpt>
      <trkpt lat="43.78017" lon="5.30673">
        <ele>301.4</ele>
        <time>2010-10-03T09:21:24Z</time>
      </trkpt>
      <trkpt lat="43.7801" lon="5.30668">
        <ele>300.9</ele>
        <time>2010-10-03T09:21:29Z</time>
      </trkpt>
      <trkpt lat="43.78003" lon="5.30662">
        <ele>300.6</ele>
        <time>2010-10-03T09:21:36Z</time>
      </trkpt>
      <trkpt lat="43.77996" lon="5.30657">
        <ele>300.1</ele>
        <time>2010-10-03T09:21:42Z</time>
      </trkpt>
      <trkpt lat="43.77989" lon="5.30651">
        <ele>298.6</ele>
        <time>2010-10-03T09:21:48Z</time>
      </trkpt>
      <trkpt lat="43.77981" lon="5.30645">
        <ele>298.9</ele>
        <time>2010-10-03T09:21:54Z</time>
      </trkpt>
      <trkpt lat="43.77974" lon="5.3064">
        <ele>298.7</ele>
        <time>2010-10-03T09:21:59Z</time>
      </trkpt>
      <trkpt lat="43.77966" lon="5.30636">
        <ele>298.1</ele>
        <time>2010-10-03T09:22:04Z</time>
      </trkpt>
      <trkpt lat="43.77964" lon="5.30635">
        <ele>297.9</ele>
        <time>2010-10-03T09:22:05Z</time>
      </trkpt>
      <trkpt lat="43.77953" lon="5.30628">
        <ele>297.7</ele>
        <time>2010-10-03T09:22:12Z</time>
      </trkpt>
      <trkpt lat="43.77947" lon="5.30625">
        <ele>297.4</ele>
        <time>2010-10-03T09:22:15Z</time>
      </trkpt>
      <trkpt lat="43.77939" lon="5.3062">
        <ele>297.3</ele>
        <time>2010-10-03T09:22:19Z</time>
      </trkpt>
      <trkpt lat="43.77932" lon="5.30613">
        <ele>297.4</ele>
        <time>2010-10-03T09:22:24Z</time>
      </trkpt>
      <trkpt lat="43.77926" lon="5.30604">
        <ele>297.5</ele>
        <time>2010-10-03T09:22:29Z</time>
      </trkpt>
      <trkpt lat="43.7792" lon="5.30599">
        <ele>298</ele>
        <time>2010-10-03T09:22:33Z</time>
      </trkpt>
      <trkpt lat="43.77912" lon="5.30593">
        <ele>298</ele>
        <time>2010-10-03T09:22:38Z</time>
      </trkpt>
      <trkpt lat="43.77903" lon="5.30592">
        <ele>297.3</ele>
        <time>2010-10-03T09:22:44Z</time>
      </trkpt>
      <trkpt lat="43.77896" lon="5.30596">
        <ele>296.6</ele>
        <time>2010-10-03T09:22:49Z</time>
      </trkpt>
      <trkpt lat="43.77888" lon="5.30597">
        <ele>296.1</ele>
        <time>2010-10-03T09:22:54Z</time>
      </trkpt>
      <trkpt lat="43.77881" lon="5.30599">
        <ele>296</ele>
        <time>2010-10-03T09:22:58Z</time>
      </trkpt>
      <trkpt lat="43.77873" lon="5.30602">
        <ele>295.7</ele>
        <time>2010-10-03T09:23:03Z</time>
      </trkpt>
      <trkpt lat="43.77865" lon="5.30607">
        <ele>295.4</ele>
        <time>2010-10-03T09:23:10Z</time>
      </trkpt>
      <trkpt lat="43.77864" lon="5.30609">
        <ele>295.6</ele>
        <time>2010-10-03T09:23:11Z</time>
      </trkpt>
      <trkpt lat="43.77853" lon="5.30623">
        <ele>295.8</ele>
        <time>2010-10-03T09:23:20Z</time>
      </trkpt>
      <trkpt lat="43.77848" lon="5.30629">
        <ele>295.7</ele>
        <time>2010-10-03T09:23:24Z</time>
      </trkpt>
      <trkpt lat="43.77842" lon="5.30636">
        <ele>295.9</ele>
        <time>2010-10-03T09:23:28Z</time>
      </trkpt>
      <trkpt lat="43.77834" lon="5.30641">
        <ele>296.1</ele>
        <time>2010-10-03T09:23:34Z</time>
      </trkpt>
      <trkpt lat="43.77826" lon="5.30641">
        <ele>297.1</ele>
        <time>2010-10-03T09:23:50Z</time>
      </trkpt>
      <trkpt lat="43.77818" lon="5.30639">
        <ele>296.9</ele>
        <time>2010-10-03T09:24:44Z</time>
      </trkpt>
      <trkpt lat="43.77817" lon="5.30638">
        <ele>296.8</ele>
        <time>2010-10-03T09:24:45Z</time>
      </trkpt>
      <trkpt lat="43.77803" lon="5.30627">
        <ele>296.6</ele>
        <time>2010-10-03T09:24:52Z</time>
      </trkpt>
      <trkpt lat="43.77796" lon="5.30624">
        <ele>296.1</ele>
        <time>2010-10-03T09:24:56Z</time>
      </trkpt>
      <trkpt lat="43.77787" lon="5.30622">
        <ele>295.6</ele>
        <time>2010-10-03T09:25:01Z</time>
      </trkpt>
      <trkpt lat="43.77779" lon="5.30619">
        <ele>295.4</ele>
        <time>2010-10-03T09:25:06Z</time>
      </trkpt>
      <trkpt lat="43.77772" lon="5.30617">
        <ele>295</ele>
        <time>2010-10-03T09:25:11Z</time>
      </trkpt>
      <trkpt lat="43.77765" lon="5.30616">
        <ele>294.7</ele>
        <time>2010-10-03T09:25:15Z</time>
      </trkpt>
      <trkpt lat="43.77757" lon="5.30613">
        <ele>294.5</ele>
        <time>2010-10-03T09:25:20Z</time>
      </trkpt>
      <trkpt lat="43.77749" lon="5.30615">
        <ele>293.8</ele>
        <time>2010-10-03T09:25:28Z</time>
      </trkpt>
      <trkpt lat="43.7774" lon="5.30612">
        <ele>293.4</ele>
        <time>2010-10-03T09:25:34Z</time>
      </trkpt>
      <trkpt lat="43.77732" lon="5.3061">
        <ele>293.3</ele>
        <time>2010-10-03T09:25:38Z</time>
      </trkpt>
      <trkpt lat="43.77726" lon="5.30609">
        <ele>293.2</ele>
        <time>2010-10-03T09:25:42Z</time>
      </trkpt>
      <trkpt lat="43.77719" lon="5.30609">
        <ele>292.7</ele>
        <time>2010-10-03T09:25:45Z</time>
      </trkpt>
      <trkpt lat="43.77717" lon="5.30609">
        <ele>292.5</ele>
        <time>2010-10-03T09:25:46Z</time>
      </trkpt>
      <trkpt lat="43.77702" lon="5.30609">
        <ele>291.7</ele>
        <time>2010-10-03T09:25:57Z</time>
      </trkpt>
      <trkpt lat="43.77693" lon="5.30607">
        <ele>291.1</ele>
        <time>2010-10-03T09:26:02Z</time>
      </trkpt>
      <trkpt lat="43.77685" lon="5.30606">
        <ele>290.8</ele>
        <time>2010-10-03T09:26:07Z</time>
      </trkpt>
      <trkpt lat="43.77676" lon="5.30604">
        <ele>290</ele>
        <time>2010-10-03T09:26:14Z</time>
      </trkpt>
      <trkpt lat="43.77667" lon="5.30603">
        <ele>289.2</ele>
        <time>2010-10-03T09:26:20Z</time>
      </trkpt>
      <trkpt lat="43.77659" lon="5.30601">
        <ele>288.7</ele>
        <time>2010-10-03T09:26:25Z</time>
      </trkpt>
      <trkpt lat="43.77651" lon="5.30597">
        <ele>288.2</ele>
        <time>2010-10-03T09:26:30Z</time>
      </trkpt>
      <trkpt lat="43.77644" lon="5.30594">
        <ele>288</ele>
        <time>2010-10-03T09:26:34Z</time>
      </trkpt>
      <trkpt lat="43.77636" lon="5.30589">
        <ele>287.3</ele>
        <time>2010-10-03T09:26:39Z</time>
      </trkpt>
      <trkpt lat="43.77628" lon="5.30586">
        <ele>286.5</ele>
        <time>2010-10-03T09:26:45Z</time>
      </trkpt>
      <trkpt lat="43.7762" lon="5.30581">
        <ele>286.5</ele>
        <time>2010-10-03T09:26:51Z</time>
      </trkpt>
      <trkpt lat="43.77619" lon="5.30581">
        <ele>286.2</ele>
        <time>2010-10-03T09:26:52Z</time>
      </trkpt>
      <trkpt lat="43.77608" lon="5.30568">
        <ele>285.7</ele>
        <time>2010-10-03T09:27:02Z</time>
      </trkpt>
      <trkpt lat="43.77602" lon="5.30561">
        <ele>285.3</ele>
        <time>2010-10-03T09:27:07Z</time>
      </trkpt>
      <trkpt lat="43.77595" lon="5.30554">
        <ele>284.7</ele>
        <time>2010-10-03T09:27:12Z</time>
      </trkpt>
      <trkpt lat="43.77587" lon="5.30549">
        <ele>284.4</ele>
        <time>2010-10-03T09:27:17Z</time>
      </trkpt>
      <trkpt lat="43.7758" lon="5.30544">
        <ele>283.8</ele>
        <time>2010-10-03T09:27:23Z</time>
      </trkpt>
      <trkpt lat="43.77573" lon="5.30542">
        <ele>283.1</ele>
        <time>2010-10-03T09:27:28Z</time>
      </trkpt>
      <trkpt lat="43.77566" lon="5.30535">
        <ele>283.1</ele>
        <time>2010-10-03T09:27:32Z</time>
      </trkpt>
      <trkpt lat="43.77558" lon="5.30529">
        <ele>282.9</ele>
        <time>2010-10-03T09:27:37Z</time>
      </trkpt>
      <trkpt lat="43.77553" lon="5.30522">
        <ele>282.7</ele>
        <time>2010-10-03T09:27:41Z</time>
      </trkpt>
      <trkpt lat="43.77546" lon="5.30516">
        <ele>282.5</ele>
        <time>2010-10-03T09:27:46Z</time>
      </trkpt>
      <trkpt lat="43.77538" lon="5.3051">
        <ele>282</ele>
        <time>2010-10-03T09:27:52Z</time>
      </trkpt>
      <trkpt lat="43.77537" lon="5.30508">
        <ele>282</ele>
        <time>2010-10-03T09:27:53Z</time>
      </trkpt>
      <trkpt lat="43.77529" lon="5.3049">
        <ele>281.4</ele>
        <time>2010-10-03T09:28:02Z</time>
      </trkpt>
      <trkpt lat="43.77523" lon="5.30481">
        <ele>281.1</ele>
        <time>2010-10-03T09:28:08Z</time>
      </trkpt>
      <trkpt lat="43.77518" lon="5.30472">
        <ele>279.8</ele>
        <time>2010-10-03T09:28:15Z</time>
      </trkpt>
      <trkpt lat="43.77515" lon="5.30461">
        <ele>279.7</ele>
        <time>2010-10-03T09:28:19Z</time>
      </trkpt>
      <trkpt lat="43.77513" lon="5.30452">
        <ele>280.1</ele>
        <time>2010-10-03T09:28:22Z</time>
      </trkpt>
      <trkpt lat="43.7751" lon="5.30441">
        <ele>280.2</ele>
        <time>2010-10-03T09:28:26Z</time>
      </trkpt>
      <trkpt lat="43.77508" lon="5.30432">
        <ele>279.6</ele>
        <time>2010-10-03T09:28:30Z</time>
      </trkpt>
      <trkpt lat="43.77503" lon="5.30422">
        <ele>279.3</ele>
        <time>2010-10-03T09:28:34Z</time>
      </trkpt>
      <trkpt lat="43.77499" lon="5.30413">
        <ele>279.4</ele>
        <time>2010-10-03T09:28:38Z</time>
      </trkpt>
      <trkpt lat="43.77493" lon="5.30404">
        <ele>278.8</ele>
        <time>2010-10-03T09:28:43Z</time>
      </trkpt>
      <trkpt lat="43.77486" lon="5.30397">
        <ele>278.5</ele>
        <time>2010-10-03T09:28:49Z</time>
      </trkpt>
      <trkpt lat="43.77483" lon="5.30386">
        <ele>278</ele>
        <time>2010-10-03T09:28:54Z</time>
      </trkpt>
      <trkpt lat="43.77482" lon="5.30384">
        <ele>277.9</ele>
        <time>2010-10-03T09:28:55Z</time>
      </trkpt>
      <trkpt lat="43.77475" lon="5.30365">
        <ele>277.2</ele>
        <time>2010-10-03T09:29:04Z</time>
      </trkpt>
      <trkpt lat="43.77469" lon="5.30355">
        <ele>277.2</ele>
        <time>2010-10-03T09:29:08Z</time>
      </trkpt>
      <trkpt lat="43.77467" lon="5.30346">
        <ele>277.1</ele>
        <time>2010-10-03T09:29:11Z</time>
      </trkpt>
      <trkpt lat="43.77465" lon="5.30336">
        <ele>276</ele>
        <time>2010-10-03T09:29:15Z</time>
      </trkpt>
      <trkpt lat="43.77463" lon="5.30325">
        <ele>274.9</ele>
        <time>2010-10-03T09:29:20Z</time>
      </trkpt>
      <trkpt lat="43.77463" lon="5.30313">
        <ele>274</ele>
        <time>2010-10-03T09:29:27Z</time>
      </trkpt>
      <trkpt lat="43.77465" lon="5.30303">
        <ele>273.8</ele>
        <time>2010-10-03T09:29:32Z</time>
      </trkpt>
      <trkpt lat="43.77463" lon="5.30291">
        <ele>274</ele>
        <time>2010-10-03T09:29:37Z</time>
      </trkpt>
      <trkpt lat="43.77466" lon="5.30282">
        <ele>273.7</ele>
        <time>2010-10-03T09:29:42Z</time>
      </trkpt>
      <trkpt lat="43.77471" lon="5.30272">
        <ele>273.6</ele>
        <time>2010-10-03T09:29:46Z</time>
      </trkpt>
      <trkpt lat="43.77473" lon="5.30261">
        <ele>273.6</ele>
        <time>2010-10-03T09:29:50Z</time>
      </trkpt>
      <trkpt lat="43.77475" lon="5.3025">
        <ele>272.7</ele>
        <time>2010-10-03T09:29:55Z</time>
      </trkpt>
      <trkpt lat="43.77476" lon="5.30239">
        <ele>272.8</ele>
        <time>2010-10-03T09:30:00Z</time>
      </trkpt>
      <trkpt lat="43.77476" lon="5.30238">
        <ele>272.7</ele>
        <time>2010-10-03T09:30:01Z</time>
      </trkpt>
      <trkpt lat="43.77472" lon="5.30218">
        <ele>270.8</ele>
        <time>2010-10-03T09:30:10Z</time>
      </trkpt>
      <trkpt lat="43.77468" lon="5.3021">
        <ele>270.4</ele>
        <time>2010-10-03T09:30:15Z</time>
      </trkpt>
      <trkpt lat="43.77464" lon="5.302">
        <ele>270.6</ele>
        <time>2010-10-03T09:30:20Z</time>
      </trkpt>
      <trkpt lat="43.7746" lon="5.3019">
        <ele>270</ele>
        <time>2010-10-03T09:30:25Z</time>
      </trkpt>
      <trkpt lat="43.77454" lon="5.3018">
        <ele>270.1</ele>
        <time>2010-10-03T09:30:30Z</time>
      </trkpt>
      <trkpt lat="43.77449" lon="5.30171">
        <ele>269.9</ele>
        <time>2010-10-03T09:30:36Z</time>
      </trkpt>
      <trkpt lat="43.77446" lon="5.30161">
        <ele>269.8</ele>
        <time>2010-10-03T09:30:40Z</time>
      </trkpt>
      <trkpt lat="43.77442" lon="5.3015">
        <ele>268.6</ele>
        <time>2010-10-03T09:30:45Z</time>
      </trkpt>
      <trkpt lat="43.77436" lon="5.30142">
        <ele>268.2</ele>
        <time>2010-10-03T09:30:50Z</time>
      </trkpt>
      <trkpt lat="43.77431" lon="5.30131">
        <ele>267.8</ele>
        <time>2010-10-03T09:30:56Z</time>
      </trkpt>
      <trkpt lat="43.77427" lon="5.30122">
        <ele>267.5</ele>
        <time>2010-10-03T09:31:00Z</time>
      </trkpt>
      <trkpt lat="43.77423" lon="5.30114">
        <ele>267.1</ele>
        <time>2010-10-03T09:31:04Z</time>
      </trkpt>
      <trkpt lat="43.77422" lon="5.30111">
        <ele>267</ele>
        <time>2010-10-03T09:31:05Z</time>
      </trkpt>
      <trkpt lat="43.77415" lon="5.30095">
        <ele>266.8</ele>
        <time>2010-10-03T09:31:13Z</time>
      </trkpt>
      <trkpt lat="43.77411" lon="5.30086">
        <ele>265.9</ele>
        <time>2010-10-03T09:31:18Z</time>
      </trkpt>
      <trkpt lat="43.77409" lon="5.30076">
        <ele>265.3</ele>
        <time>2010-10-03T09:31:22Z</time>
      </trkpt>
      <trkpt lat="43.77405" lon="5.30065">
        <ele>265.3</ele>
        <time>2010-10-03T09:31:27Z</time>
      </trkpt>
      <trkpt lat="43.77401" lon="5.30055">
        <ele>265.4</ele>
        <time>2010-10-03T09:31:31Z</time>
      </trkpt>
      <trkpt lat="43.77396" lon="5.30045">
        <ele>264.7</ele>
        <time>2010-10-03T09:31:36Z</time>
      </trkpt>
      <trkpt lat="43.7739" lon="5.30039">
        <ele>264.3</ele>
        <time>2010-10-03T09:31:40Z</time>
      </trkpt>
      <trkpt lat="43.77383" lon="5.30033">
        <ele>264.2</ele>
        <time>2010-10-03T09:31:45Z</time>
      </trkpt>
      <trkpt lat="43.77376" lon="5.30028">
        <ele>263.8</ele>
        <time>2010-10-03T09:31:50Z</time>
      </trkpt>
      <trkpt lat="43.77369" lon="5.30022">
        <ele>262.6</ele>
        <time>2010-10-03T09:31:55Z</time>
      </trkpt>
      <trkpt lat="43.77362" lon="5.30017">
        <ele>262.4</ele>
        <time>2010-10-03T09:31:59Z</time>
      </trkpt>
      <trkpt lat="43.77355" lon="5.30013">
        <ele>262.5</ele>
        <time>2010-10-03T09:32:03Z</time>
      </trkpt>
      <trkpt lat="43.77348" lon="5.30009">
        <ele>261.9</ele>
        <time>2010-10-03T09:32:07Z</time>
      </trkpt>
      <trkpt lat="43.77346" lon="5.30008">
        <ele>261.7</ele>
        <time>2010-10-03T09:32:08Z</time>
      </trkpt>
      <trkpt lat="43.77333" lon="5.29998">
        <ele>261.9</ele>
        <time>2010-10-03T09:32:17Z</time>
      </trkpt>
      <trkpt lat="43.77324" lon="5.29995">
        <ele>262.5</ele>
        <time>2010-10-03T09:32:23Z</time>
      </trkpt>
      <trkpt lat="43.77318" lon="5.29994">
        <ele>262.5</ele>
        <time>2010-10-03T09:32:26Z</time>
      </trkpt>
      <trkpt lat="43.77309" lon="5.29995">
        <ele>263.1</ele>
        <time>2010-10-03T09:32:30Z</time>
      </trkpt>
      <trkpt lat="43.77301" lon="5.29999">
        <ele>262.9</ele>
        <time>2010-10-03T09:32:34Z</time>
      </trkpt>
      <trkpt lat="43.77294" lon="5.30005">
        <ele>262</ele>
        <time>2010-10-03T09:32:39Z</time>
      </trkpt>
      <trkpt lat="43.77287" lon="5.3001">
        <ele>261.5</ele>
        <time>2010-10-03T09:32:44Z</time>
      </trkpt>
      <trkpt lat="43.77281" lon="5.30017">
        <ele>261.4</ele>
        <time>2010-10-03T09:32:49Z</time>
      </trkpt>
      <trkpt lat="43.77275" lon="5.30025">
        <ele>261.1</ele>
        <time>2010-10-03T09:32:54Z</time>
      </trkpt>
      <trkpt lat="43.7727" lon="5.30031">
        <ele>261</ele>
        <time>2010-10-03T09:32:58Z</time>
      </trkpt>
      <trkpt lat="43.77265" lon="5.30038">
        <ele>260.9</ele>
        <time>2010-10-03T09:33:01Z</time>
      </trkpt>
      <trkpt lat="43.77258" lon="5.30046">
        <ele>261</ele>
        <time>2010-10-03T09:33:06Z</time>
      </trkpt>
      <trkpt lat="43.77251" lon="5.30053">
        <ele>261.2</ele>
        <time>2010-10-03T09:33:12Z</time>
      </trkpt>
      <trkpt lat="43.7725" lon="5.30054">
        <ele>260.8</ele>
        <time>2010-10-03T09:33:13Z</time>
      </trkpt>
      <trkpt lat="43.77237" lon="5.30064">
        <ele>259.7</ele>
        <time>2010-10-03T09:33:22Z</time>
      </trkpt>
      <trkpt lat="43.77229" lon="5.30067">
        <ele>259.4</ele>
        <time>2010-10-03T09:33:28Z</time>
      </trkpt>
      <trkpt lat="43.7722" lon="5.30071">
        <ele>258.5</ele>
        <time>2010-10-03T09:33:34Z</time>
      </trkpt>
      <trkpt lat="43.77212" lon="5.30073">
        <ele>259.7</ele>
        <time>2010-10-03T09:33:40Z</time>
      </trkpt>
      <trkpt lat="43.77204" lon="5.30072">
        <ele>259.3</ele>
        <time>2010-10-03T09:33:45Z</time>
      </trkpt>
      <trkpt lat="43.77196" lon="5.30071">
        <ele>259.3</ele>
        <time>2010-10-03T09:33:49Z</time>
      </trkpt>
      <trkpt lat="43.77188" lon="5.30072">
        <ele>259.2</ele>
        <time>2010-10-03T09:33:57Z</time>
      </trkpt>
      <trkpt lat="43.77179" lon="5.3007">
        <ele>258.6</ele>
        <time>2010-10-03T09:34:26Z</time>
      </trkpt>
      <trkpt lat="43.77179" lon="5.30071">
        <ele>258.5</ele>
        <time>2010-10-03T09:34:27Z</time>
      </trkpt>
      <trkpt lat="43.77186" lon="5.30077">
        <ele>259.1</ele>
        <time>2010-10-03T09:34:59Z</time>
      </trkpt>
      <trkpt lat="43.77684" lon="5.30607">
        <ele>302.2</ele>
        <time>2010-10-03T12:32:47Z</time>
      </trkpt>
      <trkpt lat="43.77684" lon="5.30607">
        <ele>302.1</ele>
        <time>2010-10-03T12:32:48Z</time>
      </trkpt>
      <trkpt lat="43.77688" lon="5.30604">
        <ele>304.8</ele>
        <time>2010-10-03T12:35:59Z</time>
      </trkpt>
      <trkpt lat="43.7769" lon="5.30604">
        <ele>304.9</ele>
        <time>2010-10-03T12:36:00Z</time>
      </trkpt>
      <trkpt lat="43.77705" lon="5.30608">
        <ele>305.5</ele>
        <time>2010-10-03T12:36:09Z</time>
      </trkpt>
      <trkpt lat="43.77712" lon="5.30606">
        <ele>305.9</ele>
        <time>2010-10-03T12:36:15Z</time>
      </trkpt>
      <trkpt lat="43.77718" lon="5.30608">
        <ele>306.3</ele>
        <time>2010-10-03T12:36:18Z</time>
      </trkpt>
      <trkpt lat="43.77727" lon="5.30609">
        <ele>306.8</ele>
        <time>2010-10-03T12:36:23Z</time>
      </trkpt>
      <trkpt lat="43.77736" lon="5.30609">
        <ele>307.5</ele>
        <time>2010-10-03T12:36:31Z</time>
      </trkpt>
      <trkpt lat="43.77744" lon="5.30611">
        <ele>308.2</ele>
        <time>2010-10-03T12:36:37Z</time>
      </trkpt>
      <trkpt lat="43.77753" lon="5.30613">
        <ele>308.4</ele>
        <time>2010-10-03T12:36:41Z</time>
      </trkpt>
      <trkpt lat="43.77761" lon="5.30614">
        <ele>308.3</ele>
        <time>2010-10-03T12:36:46Z</time>
      </trkpt>
      <trkpt lat="43.77769" lon="5.30615">
        <ele>308.6</ele>
        <time>2010-10-03T12:36:50Z</time>
      </trkpt>
      <trkpt lat="43.77777" lon="5.30618">
        <ele>308.9</ele>
        <time>2010-10-03T12:36:56Z</time>
      </trkpt>
      <trkpt lat="43.77786" lon="5.3062">
        <ele>309.2</ele>
        <time>2010-10-03T12:37:03Z</time>
      </trkpt>
      <trkpt lat="43.77787" lon="5.3062">
        <ele>309.3</ele>
        <time>2010-10-03T12:37:04Z</time>
      </trkpt>
      <trkpt lat="43.77802" lon="5.30626">
        <ele>310</ele>
        <time>2010-10-03T12:37:15Z</time>
      </trkpt>
      <trkpt lat="43.77808" lon="5.3063">
        <ele>310.1</ele>
        <time>2010-10-03T12:37:19Z</time>
      </trkpt>
      <trkpt lat="43.77815" lon="5.30635">
        <ele>310.1</ele>
        <time>2010-10-03T12:37:25Z</time>
      </trkpt>
      <trkpt lat="43.77823" lon="5.30639">
        <ele>310.8</ele>
        <time>2010-10-03T12:37:32Z</time>
      </trkpt>
      <trkpt lat="43.7783" lon="5.30646">
        <ele>311</ele>
        <time>2010-10-03T12:37:37Z</time>
      </trkpt>
      <trkpt lat="43.77835" lon="5.30656">
        <ele>311.1</ele>
        <time>2010-10-03T12:37:43Z</time>
      </trkpt>
      <trkpt lat="43.77839" lon="5.30666">
        <ele>312.4</ele>
        <time>2010-10-03T12:37:50Z</time>
      </trkpt>
      <trkpt lat="43.77843" lon="5.30675">
        <ele>313.2</ele>
        <time>2010-10-03T12:37:55Z</time>
      </trkpt>
      <trkpt lat="43.77847" lon="5.30684">
        <ele>314.1</ele>
        <time>2010-10-03T12:38:01Z</time>
      </trkpt>
      <trkpt lat="43.77853" lon="5.30691">
        <ele>314.8</ele>
        <time>2010-10-03T12:38:07Z</time>
      </trkpt>
      <trkpt lat="43.77854" lon="5.30693">
        <ele>314.8</ele>
        <time>2010-10-03T12:38:08Z</time>
      </trkpt>
      <trkpt lat="43.77865" lon="5.30711">
        <ele>316</ele>
        <time>2010-10-03T12:38:21Z</time>
      </trkpt>
      <trkpt lat="43.77876" lon="5.30726">
        <ele>316</ele>
        <time>2010-10-03T12:38:29Z</time>
      </trkpt>
      <trkpt lat="43.77872" lon="5.30738">
        <ele>316.8</ele>
        <time>2010-10-03T12:38:33Z</time>
      </trkpt>
      <trkpt lat="43.77875" lon="5.30756">
        <ele>318</ele>
        <time>2010-10-03T12:38:41Z</time>
      </trkpt>
      <trkpt lat="43.77874" lon="5.30768">
        <ele>319.4</ele>
        <time>2010-10-03T12:38:48Z</time>
      </trkpt>
      <trkpt lat="43.77874" lon="5.30779">
        <ele>320.1</ele>
        <time>2010-10-03T12:38:55Z</time>
      </trkpt>
      <trkpt lat="43.77877" lon="5.30789">
        <ele>320.1</ele>
        <time>2010-10-03T12:39:02Z</time>
      </trkpt>
      <trkpt lat="43.7788" lon="5.30801">
        <ele>320.4</ele>
        <time>2010-10-03T12:39:07Z</time>
      </trkpt>
      <trkpt lat="43.77884" lon="5.3081">
        <ele>320.6</ele>
        <time>2010-10-03T12:39:13Z</time>
      </trkpt>
      <trkpt lat="43.77885" lon="5.30812">
        <ele>320.5</ele>
        <time>2010-10-03T12:39:14Z</time>
      </trkpt>
      <trkpt lat="43.77891" lon="5.30831">
        <ele>321.4</ele>
        <time>2010-10-03T12:39:28Z</time>
      </trkpt>
      <trkpt lat="43.77893" lon="5.30842">
        <ele>322.1</ele>
        <time>2010-10-03T12:39:36Z</time>
      </trkpt>
      <trkpt lat="43.77899" lon="5.30853">
        <ele>322.8</ele>
        <time>2010-10-03T12:39:47Z</time>
      </trkpt>
      <trkpt lat="43.77904" lon="5.30863">
        <ele>323.6</ele>
        <time>2010-10-03T12:40:37Z</time>
      </trkpt>
      <trkpt lat="43.77905" lon="5.30866">
        <ele>323.8</ele>
        <time>2010-10-03T12:40:38Z</time>
      </trkpt>
      <trkpt lat="43.77914" lon="5.3088">
        <ele>324.9</ele>
        <time>2010-10-03T12:40:46Z</time>
      </trkpt>
      <trkpt lat="43.7792" lon="5.30886">
        <ele>326.1</ele>
        <time>2010-10-03T12:40:50Z</time>
      </trkpt>
      <trkpt lat="43.77923" lon="5.30897">
        <ele>327</ele>
        <time>2010-10-03T12:40:55Z</time>
      </trkpt>
      <trkpt lat="43.77928" lon="5.30906">
        <ele>327.8</ele>
        <time>2010-10-03T12:41:02Z</time>
      </trkpt>
      <trkpt lat="43.77929" lon="5.30917">
        <ele>328.7</ele>
        <time>2010-10-03T12:41:07Z</time>
      </trkpt>
      <trkpt lat="43.77934" lon="5.30927">
        <ele>329</ele>
        <time>2010-10-03T12:41:13Z</time>
      </trkpt>
      <trkpt lat="43.77938" lon="5.30938">
        <ele>329.5</ele>
        <time>2010-10-03T12:41:20Z</time>
      </trkpt>
      <trkpt lat="43.77942" lon="5.30949">
        <ele>329.8</ele>
        <time>2010-10-03T12:41:27Z</time>
      </trkpt>
      <trkpt lat="43.77946" lon="5.30957">
        <ele>330</ele>
        <time>2010-10-03T12:41:32Z</time>
      </trkpt>
      <trkpt lat="43.7795" lon="5.30968">
        <ele>330.6</ele>
        <time>2010-10-03T12:41:37Z</time>
      </trkpt>
      <trkpt lat="43.77954" lon="5.30977">
        <ele>331.1</ele>
        <time>2010-10-03T12:41:41Z</time>
      </trkpt>
      <trkpt lat="43.77956" lon="5.30979">
        <ele>331.1</ele>
        <time>2010-10-03T12:41:42Z</time>
      </trkpt>
      <trkpt lat="43.77963" lon="5.30996">
        <ele>331</ele>
        <time>2010-10-03T12:41:50Z</time>
      </trkpt>
      <trkpt lat="43.77966" lon="5.31006">
        <ele>331.1</ele>
        <time>2010-10-03T12:41:55Z</time>
      </trkpt>
      <trkpt lat="43.77971" lon="5.31016">
        <ele>331.3</ele>
        <time>2010-10-03T12:42:01Z</time>
      </trkpt>
      <trkpt lat="43.77977" lon="5.31025">
        <ele>331.3</ele>
        <time>2010-10-03T12:42:06Z</time>
      </trkpt>
      <trkpt lat="43.77982" lon="5.31034">
        <ele>331.7</ele>
        <time>2010-10-03T12:42:12Z</time>
      </trkpt>
      <trkpt lat="43.77986" lon="5.31045">
        <ele>332.2</ele>
        <time>2010-10-03T12:42:19Z</time>
      </trkpt>
      <trkpt lat="43.77989" lon="5.31055">
        <ele>332.6</ele>
        <time>2010-10-03T12:42:24Z</time>
      </trkpt>
      <trkpt lat="43.77993" lon="5.31063">
        <ele>332.9</ele>
        <time>2010-10-03T12:42:29Z</time>
      </trkpt>
      <trkpt lat="43.77999" lon="5.3107">
        <ele>333.4</ele>
        <time>2010-10-03T12:42:34Z</time>
      </trkpt>
      <trkpt lat="43.78005" lon="5.31078">
        <ele>333.2</ele>
        <time>2010-10-03T12:42:38Z</time>
      </trkpt>
      <trkpt lat="43.7801" lon="5.31086">
        <ele>333.4</ele>
        <time>2010-10-03T12:42:42Z</time>
      </trkpt>
      <trkpt lat="43.7801" lon="5.31089">
        <ele>333.4</ele>
        <time>2010-10-03T12:42:43Z</time>
      </trkpt>
      <trkpt lat="43.7802" lon="5.31102">
        <ele>333.9</ele>
        <time>2010-10-03T12:42:50Z</time>
      </trkpt>
      <trkpt lat="43.78027" lon="5.31108">
        <ele>333.5</ele>
        <time>2010-10-03T12:42:57Z</time>
      </trkpt>
      <trkpt lat="43.78035" lon="5.3111">
        <ele>333.4</ele>
        <time>2010-10-03T12:43:04Z</time>
      </trkpt>
      <trkpt lat="43.78042" lon="5.31113">
        <ele>333.3</ele>
        <time>2010-10-03T12:43:09Z</time>
      </trkpt>
      <trkpt lat="43.78051" lon="5.31115">
        <ele>334.1</ele>
        <time>2010-10-03T12:43:15Z</time>
      </trkpt>
      <trkpt lat="43.78059" lon="5.3112">
        <ele>334.8</ele>
        <time>2010-10-03T12:43:21Z</time>
      </trkpt>
      <trkpt lat="43.78063" lon="5.31129">
        <ele>335.3</ele>
        <time>2010-10-03T12:43:27Z</time>
      </trkpt>
      <trkpt lat="43.78064" lon="5.31139">
        <ele>335.7</ele>
        <time>2010-10-03T12:43:31Z</time>
      </trkpt>
      <trkpt lat="43.78067" lon="5.3115">
        <ele>336.2</ele>
        <time>2010-10-03T12:43:36Z</time>
      </trkpt>
      <trkpt lat="43.7807" lon="5.3116">
        <ele>336.7</ele>
        <time>2010-10-03T12:43:43Z</time>
      </trkpt>
      <trkpt lat="43.78071" lon="5.31161">
        <ele>336.8</ele>
        <time>2010-10-03T12:43:44Z</time>
      </trkpt>
      <trkpt lat="43.78079" lon="5.31179">
        <ele>338</ele>
        <time>2010-10-03T12:43:54Z</time>
      </trkpt>
      <trkpt lat="43.78084" lon="5.31187">
        <ele>338.5</ele>
        <time>2010-10-03T12:44:00Z</time>
      </trkpt>
      <trkpt lat="43.7809" lon="5.31195">
        <ele>339.1</ele>
        <time>2010-10-03T12:44:04Z</time>
      </trkpt>
      <trkpt lat="43.78096" lon="5.31202">
        <ele>340.1</ele>
        <time>2010-10-03T12:44:10Z</time>
      </trkpt>
      <trkpt lat="43.78101" lon="5.31211">
        <ele>341.4</ele>
        <time>2010-10-03T12:44:16Z</time>
      </trkpt>
      <trkpt lat="43.78104" lon="5.31223">
        <ele>342.4</ele>
        <time>2010-10-03T12:44:39Z</time>
      </trkpt>
      <trkpt lat="43.78105" lon="5.31235">
        <ele>342.8</ele>
        <time>2010-10-03T12:46:31Z</time>
      </trkpt>
      <trkpt lat="43.78105" lon="5.31235">
        <ele>342.8</ele>
        <time>2010-10-03T12:46:32Z</time>
      </trkpt>
      <trkpt lat="43.78122" lon="5.31238">
        <ele>344.2</ele>
        <time>2010-10-03T12:46:58Z</time>
      </trkpt>
      <trkpt lat="43.78128" lon="5.31247">
        <ele>345.2</ele>
        <time>2010-10-03T12:47:05Z</time>
      </trkpt>
      <trkpt lat="43.78133" lon="5.31254">
        <ele>345.4</ele>
        <time>2010-10-03T12:47:09Z</time>
      </trkpt>
      <trkpt lat="43.78138" lon="5.31262">
        <ele>346.1</ele>
        <time>2010-10-03T12:47:14Z</time>
      </trkpt>
      <trkpt lat="43.78144" lon="5.31271">
        <ele>346.9</ele>
        <time>2010-10-03T12:47:19Z</time>
      </trkpt>
      <trkpt lat="43.78151" lon="5.31278">
        <ele>347.3</ele>
        <time>2010-10-03T12:47:25Z</time>
      </trkpt>
      <trkpt lat="43.78158" lon="5.3128">
        <ele>347.6</ele>
        <time>2010-10-03T12:47:30Z</time>
      </trkpt>
      <trkpt lat="43.78164" lon="5.31287">
        <ele>348.2</ele>
        <time>2010-10-03T12:47:38Z</time>
      </trkpt>
      <trkpt lat="43.78165" lon="5.31288">
        <ele>348.4</ele>
        <time>2010-10-03T12:47:39Z</time>
      </trkpt>
      <trkpt lat="43.78177" lon="5.313">
        <ele>349.2</ele>
        <time>2010-10-03T12:47:48Z</time>
      </trkpt>
      <trkpt lat="43.78184" lon="5.31306">
        <ele>349.9</ele>
        <time>2010-10-03T12:47:55Z</time>
      </trkpt>
      <trkpt lat="43.7819" lon="5.31313">
        <ele>349.6</ele>
        <time>2010-10-03T12:47:59Z</time>
      </trkpt>
      <trkpt lat="43.78196" lon="5.31321">
        <ele>350.2</ele>
        <time>2010-10-03T12:48:05Z</time>
      </trkpt>
      <trkpt lat="43.78204" lon="5.31324">
        <ele>351</ele>
        <time>2010-10-03T12:48:12Z</time>
      </trkpt>
      <trkpt lat="43.78211" lon="5.31325">
        <ele>351.1</ele>
        <time>2010-10-03T12:48:16Z</time>
      </trkpt>
      <trkpt lat="43.78219" lon="5.31329">
        <ele>352.8</ele>
        <time>2010-10-03T12:48:24Z</time>
      </trkpt>
      <trkpt lat="43.78227" lon="5.31333">
        <ele>353.2</ele>
        <time>2010-10-03T12:48:28Z</time>
      </trkpt>
      <trkpt lat="43.78235" lon="5.31337">
        <ele>353.6</ele>
        <time>2010-10-03T12:48:32Z</time>
      </trkpt>
      <trkpt lat="43.78242" lon="5.31344">
        <ele>354.2</ele>
        <time>2010-10-03T12:48:38Z</time>
      </trkpt>
      <trkpt lat="43.7825" lon="5.31348">
        <ele>355.1</ele>
        <time>2010-10-03T12:48:44Z</time>
      </trkpt>
      <trkpt lat="43.78252" lon="5.31349">
        <ele>355.3</ele>
        <time>2010-10-03T12:48:45Z</time>
      </trkpt>
      <trkpt lat="43.78263" lon="5.31369">
        <ele>356.3</ele>
        <time>2010-10-03T12:48:56Z</time>
      </trkpt>
      <trkpt lat="43.78265" lon="5.31379">
        <ele>356.7</ele>
        <time>2010-10-03T12:49:00Z</time>
      </trkpt>
      <trkpt lat="43.7827" lon="5.31388">
        <ele>357.2</ele>
        <time>2010-10-03T12:49:05Z</time>
      </trkpt>
      <trkpt lat="43.78272" lon="5.31398">
        <ele>357.7</ele>
        <time>2010-10-03T12:49:10Z</time>
      </trkpt>
      <trkpt lat="43.78275" lon="5.31409">
        <ele>357</ele>
        <time>2010-10-03T12:49:16Z</time>
      </trkpt>
      <trkpt lat="43.7828" lon="5.31418">
        <ele>357.5</ele>
        <time>2010-10-03T12:49:23Z</time>
      </trkpt>
      <trkpt lat="43.78286" lon="5.31426">
        <ele>358.2</ele>
        <time>2010-10-03T12:49:29Z</time>
      </trkpt>
      <trkpt lat="43.78291" lon="5.31435">
        <ele>359.3</ele>
        <time>2010-10-03T12:49:34Z</time>
      </trkpt>
      <trkpt lat="43.78298" lon="5.31441">
        <ele>360</ele>
        <time>2010-10-03T12:49:38Z</time>
      </trkpt>
      <trkpt lat="43.78306" lon="5.31446">
        <ele>360.5</ele>
        <time>2010-10-03T12:49:44Z</time>
      </trkpt>
      <trkpt lat="43.78313" lon="5.31452">
        <ele>361</ele>
        <time>2010-10-03T12:49:50Z</time>
      </trkpt>
      <trkpt lat="43.78315" lon="5.31454">
        <ele>361.3</ele>
        <time>2010-10-03T12:49:51Z</time>
      </trkpt>
      <trkpt lat="43.78328" lon="5.31462">
        <ele>362.3</ele>
        <time>2010-10-03T12:50:03Z</time>
      </trkpt>
      <trkpt lat="43.78336" lon="5.3147">
        <ele>363.3</ele>
        <time>2010-10-03T12:50:11Z</time>
      </trkpt>
      <trkpt lat="43.78343" lon="5.31475">
        <ele>364.1</ele>
        <time>2010-10-03T12:50:16Z</time>
      </trkpt>
      <trkpt lat="43.78352" lon="5.31485">
        <ele>365.4</ele>
        <time>2010-10-03T12:50:25Z</time>
      </trkpt>
      <trkpt lat="43.78366" lon="5.31488">
        <ele>366</ele>
        <time>2010-10-03T12:50:35Z</time>
      </trkpt>
      <trkpt lat="43.78372" lon="5.315">
        <ele>367</ele>
        <time>2010-10-03T12:50:42Z</time>
      </trkpt>
      <trkpt lat="43.78386" lon="5.31499">
        <ele>368</ele>
        <time>2010-10-03T12:50:50Z</time>
      </trkpt>
      <trkpt lat="43.78391" lon="5.31501">
        <ele>368.7</ele>
        <time>2010-10-03T12:50:54Z</time>
      </trkpt>
      <trkpt lat="43.78409" lon="5.31506">
        <ele>369</ele>
        <time>2010-10-03T12:51:04Z</time>
      </trkpt>
      <trkpt lat="43.78417" lon="5.31512">
        <ele>370</ele>
        <time>2010-10-03T12:51:12Z</time>
      </trkpt>
      <trkpt lat="43.7844" lon="5.31525">
        <ele>371</ele>
        <time>2010-10-03T12:51:31Z</time>
      </trkpt>
      <trkpt lat="43.78455" lon="5.31528">
        <ele>372</ele>
        <time>2010-10-03T12:51:42Z</time>
      </trkpt>
      <trkpt lat="43.78463" lon="5.31533">
        <ele>373</ele>
        <time>2010-10-03T12:51:51Z</time>
      </trkpt>
      <trkpt lat="43.78473" lon="5.31537">
        <ele>374</ele>
        <time>2010-10-03T12:52:00Z</time>
      </trkpt>
      <trkpt lat="43.78476" lon="5.31537">
        <ele>374.4</ele>
        <time>2010-10-03T12:52:02Z</time>
      </trkpt>
      <trkpt lat="43.78499" lon="5.31541">
        <ele>375</ele>
        <time>2010-10-03T12:52:16Z</time>
      </trkpt>
      <trkpt lat="43.7851" lon="5.31549">
        <ele>377</ele>
        <time>2010-10-03T12:52:24Z</time>
      </trkpt>
      <trkpt lat="43.78518" lon="5.31556">
        <ele>378</ele>
        <time>2010-10-03T12:52:33Z</time>
      </trkpt>
      <trkpt lat="43.78531" lon="5.31564">
        <ele>380</ele>
        <time>2010-10-03T12:52:41Z</time>
      </trkpt>
      <trkpt lat="43.7854" lon="5.31566">
        <ele>381.7</ele>
        <time>2010-10-03T12:52:45Z</time>
      </trkpt>
      <trkpt lat="43.78546" lon="5.31572">
        <ele>381.6</ele>
        <time>2010-10-03T12:52:49Z</time>
      </trkpt>
      <trkpt lat="43.78552" lon="5.31578">
        <ele>381.1</ele>
        <time>2010-10-03T12:52:53Z</time>
      </trkpt>
      <trkpt lat="43.78559" lon="5.31584">
        <ele>381.4</ele>
        <time>2010-10-03T12:52:59Z</time>
      </trkpt>
      <trkpt lat="43.78565" lon="5.31593">
        <ele>383</ele>
        <time>2010-10-03T12:53:06Z</time>
      </trkpt>
      <trkpt lat="43.78565" lon="5.31595">
        <ele>383.2</ele>
        <time>2010-10-03T12:53:07Z</time>
      </trkpt>
      <trkpt lat="43.78568" lon="5.3162">
        <ele>384</ele>
        <time>2010-10-03T12:53:19Z</time>
      </trkpt>
      <trkpt lat="43.78567" lon="5.31635">
        <ele>385.3</ele>
        <time>2010-10-03T12:53:25Z</time>
      </trkpt>
      <trkpt lat="43.78568" lon="5.31647">
        <ele>386.4</ele>
        <time>2010-10-03T12:53:30Z</time>
      </trkpt>
      <trkpt lat="43.78578" lon="5.31653">
        <ele>387.2</ele>
        <time>2010-10-03T12:53:36Z</time>
      </trkpt>
      <trkpt lat="43.78587" lon="5.31664">
        <ele>388</ele>
        <time>2010-10-03T12:53:45Z</time>
      </trkpt>
      <trkpt lat="43.78592" lon="5.31672">
        <ele>389.4</ele>
        <time>2010-10-03T12:53:51Z</time>
      </trkpt>
      <trkpt lat="43.78597" lon="5.31682">
        <ele>390.3</ele>
        <time>2010-10-03T12:53:57Z</time>
      </trkpt>
      <trkpt lat="43.78601" lon="5.31692">
        <ele>390.9</ele>
        <time>2010-10-03T12:54:03Z</time>
      </trkpt>
      <trkpt lat="43.78605" lon="5.317">
        <ele>391.2</ele>
        <time>2010-10-03T12:54:09Z</time>
      </trkpt>
      <trkpt lat="43.78607" lon="5.31702">
        <ele>391.1</ele>
        <time>2010-10-03T12:54:10Z</time>
      </trkpt>
      <trkpt lat="43.78611" lon="5.3172">
        <ele>392.5</ele>
        <time>2010-10-03T12:54:20Z</time>
      </trkpt>
      <trkpt lat="43.78613" lon="5.31731">
        <ele>392.8</ele>
        <time>2010-10-03T12:54:26Z</time>
      </trkpt>
      <trkpt lat="43.78613" lon="5.31741">
        <ele>393</ele>
        <time>2010-10-03T12:54:30Z</time>
      </trkpt>
      <trkpt lat="43.78614" lon="5.31752">
        <ele>393.3</ele>
        <time>2010-10-03T12:54:35Z</time>
      </trkpt>
      <trkpt lat="43.78616" lon="5.31763">
        <ele>393.7</ele>
        <time>2010-10-03T12:54:40Z</time>
      </trkpt>
      <trkpt lat="43.78617" lon="5.31775">
        <ele>394.9</ele>
        <time>2010-10-03T12:54:46Z</time>
      </trkpt>
      <trkpt lat="43.78616" lon="5.31785">
        <ele>395.8</ele>
        <time>2010-10-03T12:54:52Z</time>
      </trkpt>
      <trkpt lat="43.78618" lon="5.31796">
        <ele>397</ele>
        <time>2010-10-03T12:54:57Z</time>
      </trkpt>
      <trkpt lat="43.78621" lon="5.31806">
        <ele>398.2</ele>
        <time>2010-10-03T12:55:03Z</time>
      </trkpt>
      <trkpt lat="43.78625" lon="5.31815">
        <ele>399</ele>
        <time>2010-10-03T12:55:08Z</time>
      </trkpt>
      <trkpt lat="43.7863" lon="5.31822">
        <ele>399.5</ele>
        <time>2010-10-03T12:55:12Z</time>
      </trkpt>
      <trkpt lat="43.78631" lon="5.31825">
        <ele>399.6</ele>
        <time>2010-10-03T12:55:13Z</time>
      </trkpt>
      <trkpt lat="43.78635" lon="5.31845">
        <ele>400.7</ele>
        <time>2010-10-03T12:55:21Z</time>
      </trkpt>
      <trkpt lat="43.78637" lon="5.31855">
        <ele>401.7</ele>
        <time>2010-10-03T12:55:26Z</time>
      </trkpt>
      <trkpt lat="43.78641" lon="5.31865">
        <ele>402.8</ele>
        <time>2010-10-03T12:55:32Z</time>
      </trkpt>
      <trkpt lat="43.78647" lon="5.31874">
        <ele>404</ele>
        <time>2010-10-03T12:55:38Z</time>
      </trkpt>
      <trkpt lat="43.78651" lon="5.31883">
        <ele>405.1</ele>
        <time>2010-10-03T12:55:44Z</time>
      </trkpt>
      <trkpt lat="43.78659" lon="5.31889">
        <ele>406.5</ele>
        <time>2010-10-03T12:55:50Z</time>
      </trkpt>
      <trkpt lat="43.78667" lon="5.31897">
        <ele>408.8</ele>
        <time>2010-10-03T12:55:58Z</time>
      </trkpt>
      <trkpt lat="43.78675" lon="5.31903">
        <ele>410.7</ele>
        <time>2010-10-03T12:56:04Z</time>
      </trkpt>
      <trkpt lat="43.78679" lon="5.31911">
        <ele>411.3</ele>
        <time>2010-10-03T12:56:10Z</time>
      </trkpt>
      <trkpt lat="43.78685" lon="5.31918">
        <ele>412.9</ele>
        <time>2010-10-03T12:56:16Z</time>
      </trkpt>
      <trkpt lat="43.78686" lon="5.3192">
        <ele>413.2</ele>
        <time>2010-10-03T12:56:17Z</time>
      </trkpt>
      <trkpt lat="43.78693" lon="5.31938">
        <ele>416.2</ele>
        <time>2010-10-03T12:56:29Z</time>
      </trkpt>
      <trkpt lat="43.78696" lon="5.31948">
        <ele>418</ele>
        <time>2010-10-03T12:56:35Z</time>
      </trkpt>
      <trkpt lat="43.78698" lon="5.31958">
        <ele>419.8</ele>
        <time>2010-10-03T12:56:40Z</time>
      </trkpt>
      <trkpt lat="43.78697" lon="5.3197">
        <ele>422</ele>
        <time>2010-10-03T12:56:46Z</time>
      </trkpt>
      <trkpt lat="43.78696" lon="5.3198">
        <ele>423.3</ele>
        <time>2010-10-03T12:56:51Z</time>
      </trkpt>
      <trkpt lat="43.78696" lon="5.3199">
        <ele>424.4</ele>
        <time>2010-10-03T12:56:56Z</time>
      </trkpt>
      <trkpt lat="43.78696" lon="5.32004">
        <ele>425</ele>
        <time>2010-10-03T12:57:03Z</time>
      </trkpt>
      <trkpt lat="43.78698" lon="5.32024">
        <ele>429</ele>
        <time>2010-10-03T12:57:14Z</time>
      </trkpt>
      <trkpt lat="43.78702" lon="5.32038">
        <ele>431</ele>
        <time>2010-10-03T12:57:22Z</time>
      </trkpt>
      <trkpt lat="43.78703" lon="5.32041">
        <ele>432.6</ele>
        <time>2010-10-03T12:57:24Z</time>
      </trkpt>
      <trkpt lat="43.78712" lon="5.32068">
        <ele>433</ele>
        <time>2010-10-03T12:57:42Z</time>
      </trkpt>
      <trkpt lat="43.78717" lon="5.32081">
        <ele>435</ele>
        <time>2010-10-03T12:57:50Z</time>
      </trkpt>
      <trkpt lat="43.78722" lon="5.32093">
        <ele>437</ele>
        <time>2010-10-03T12:57:58Z</time>
      </trkpt>
      <trkpt lat="43.78728" lon="5.32102">
        <ele>440</ele>
        <time>2010-10-03T12:58:07Z</time>
      </trkpt>
      <trkpt lat="43.7874" lon="5.3211">
        <ele>442</ele>
        <time>2010-10-03T12:58:20Z</time>
      </trkpt>
      <trkpt lat="43.78748" lon="5.32122">
        <ele>445</ele>
        <time>2010-10-03T12:58:28Z</time>
      </trkpt>
      <trkpt lat="43.78749" lon="5.32125">
        <ele>446.2</ele>
        <time>2010-10-03T12:58:30Z</time>
      </trkpt>
      <trkpt lat="43.78753" lon="5.32151">
        <ele>450</ele>
        <time>2010-10-03T12:58:44Z</time>
      </trkpt>
      <trkpt lat="43.78757" lon="5.32162">
        <ele>452.6</ele>
        <time>2010-10-03T12:58:52Z</time>
      </trkpt>
      <trkpt lat="43.78758" lon="5.32174">
        <ele>454.1</ele>
        <time>2010-10-03T12:58:58Z</time>
      </trkpt>
      <trkpt lat="43.7876" lon="5.32189">
        <ele>456</ele>
        <time>2010-10-03T12:59:08Z</time>
      </trkpt>
      <trkpt lat="43.78762" lon="5.32201">
        <ele>457.8</ele>
        <time>2010-10-03T12:59:15Z</time>
      </trkpt>
      <trkpt lat="43.78766" lon="5.32211">
        <ele>459.8</ele>
        <time>2010-10-03T12:59:24Z</time>
      </trkpt>
      <trkpt lat="43.78768" lon="5.32221">
        <ele>461.3</ele>
        <time>2010-10-03T12:59:30Z</time>
      </trkpt>
      <trkpt lat="43.7877" lon="5.32232">
        <ele>463.1</ele>
        <time>2010-10-03T12:59:35Z</time>
      </trkpt>
      <trkpt lat="43.78771" lon="5.32234">
        <ele>463.4</ele>
        <time>2010-10-03T12:59:36Z</time>
      </trkpt>
      <trkpt lat="43.78775" lon="5.32253">
        <ele>465.7</ele>
        <time>2010-10-03T12:59:47Z</time>
      </trkpt>
      <trkpt lat="43.78771" lon="5.32264">
        <ele>467</ele>
        <time>2010-10-03T12:59:52Z</time>
      </trkpt>
      <trkpt lat="43.78768" lon="5.32275">
        <ele>470</ele>
        <time>2010-10-03T13:00:01Z</time>
      </trkpt>
      <trkpt lat="43.78763" lon="5.32284">
        <ele>473.4</ele>
        <time>2010-10-03T13:00:13Z</time>
      </trkpt>
      <trkpt lat="43.7876" lon="5.32296">
        <ele>476.2</ele>
        <time>2010-10-03T13:00:22Z</time>
      </trkpt>
      <trkpt lat="43.78757" lon="5.32307">
        <ele>477.9</ele>
        <time>2010-10-03T13:00:29Z</time>
      </trkpt>
      <trkpt lat="43.78751" lon="5.32316">
        <ele>479.2</ele>
        <time>2010-10-03T13:00:38Z</time>
      </trkpt>
      <trkpt lat="43.78751" lon="5.32318">
        <ele>479.4</ele>
        <time>2010-10-03T13:00:39Z</time>
      </trkpt>
      <trkpt lat="43.78749" lon="5.32338">
        <ele>481.1</ele>
        <time>2010-10-03T13:02:19Z</time>
      </trkpt>
      <trkpt lat="43.7875" lon="5.32338">
        <ele>481</ele>
        <time>2010-10-03T13:02:20Z</time>
      </trkpt>
      <trkpt lat="43.78737" lon="5.32353">
        <ele>486.5</ele>
        <time>2010-10-03T13:03:25Z</time>
      </trkpt>
      <trkpt lat="43.78736" lon="5.32355">
        <ele>487.2</ele>
        <time>2010-10-03T13:03:26Z</time>
      </trkpt>
      <trkpt lat="43.78726" lon="5.32369">
        <ele>491.5</ele>
        <time>2010-10-03T13:03:37Z</time>
      </trkpt>
      <trkpt lat="43.78721" lon="5.32376">
        <ele>492.8</ele>
        <time>2010-10-03T13:03:41Z</time>
      </trkpt>
      <trkpt lat="43.78716" lon="5.32383">
        <ele>495</ele>
        <time>2010-10-03T13:03:46Z</time>
      </trkpt>
      <trkpt lat="43.78712" lon="5.32393">
        <ele>497</ele>
        <time>2010-10-03T13:03:52Z</time>
      </trkpt>
      <trkpt lat="43.78707" lon="5.32402">
        <ele>498.7</ele>
        <time>2010-10-03T13:03:57Z</time>
      </trkpt>
      <trkpt lat="43.78701" lon="5.3241">
        <ele>501.4</ele>
        <time>2010-10-03T13:04:04Z</time>
      </trkpt>
      <trkpt lat="43.78695" lon="5.32418">
        <ele>503.7</ele>
        <time>2010-10-03T13:04:11Z</time>
      </trkpt>
      <trkpt lat="43.78689" lon="5.32425">
        <ele>505.6</ele>
        <time>2010-10-03T13:04:20Z</time>
      </trkpt>
      <trkpt lat="43.78685" lon="5.32435">
        <ele>508.5</ele>
        <time>2010-10-03T13:04:29Z</time>
      </trkpt>
      <trkpt lat="43.78684" lon="5.32437">
        <ele>508.7</ele>
        <time>2010-10-03T13:04:30Z</time>
      </trkpt>
      <trkpt lat="43.78675" lon="5.32454">
        <ele>513.5</ele>
        <time>2010-10-03T13:04:43Z</time>
      </trkpt>
      <trkpt lat="43.78669" lon="5.32461">
        <ele>514.8</ele>
        <time>2010-10-03T13:04:48Z</time>
      </trkpt>
      <trkpt lat="43.78666" lon="5.32471">
        <ele>515.9</ele>
        <time>2010-10-03T13:04:55Z</time>
      </trkpt>
      <trkpt lat="43.78662" lon="5.32482">
        <ele>518.1</ele>
        <time>2010-10-03T13:05:03Z</time>
      </trkpt>
      <trkpt lat="43.78658" lon="5.3249">
        <ele>520.1</ele>
        <time>2010-10-03T13:05:10Z</time>
      </trkpt>
      <trkpt lat="43.78652" lon="5.32499">
        <ele>522.1</ele>
        <time>2010-10-03T13:05:17Z</time>
      </trkpt>
      <trkpt lat="43.78648" lon="5.32509">
        <ele>525</ele>
        <time>2010-10-03T13:05:26Z</time>
      </trkpt>
      <trkpt lat="43.78646" lon="5.3252">
        <ele>528</ele>
        <time>2010-10-03T13:05:35Z</time>
      </trkpt>
      <trkpt lat="43.78647" lon="5.32522">
        <ele>528.5</ele>
        <time>2010-10-03T13:05:36Z</time>
      </trkpt>
      <trkpt lat="43.78654" lon="5.32527">
        <ele>530</ele>
        <time>2010-10-03T13:07:09Z</time>
      </trkpt>
      <trkpt lat="43.78661" lon="5.32519">
        <ele>531.3</ele>
        <time>2010-10-03T13:10:37Z</time>
      </trkpt>
      <trkpt lat="43.78673" lon="5.32505">
        <ele>531.9</ele>
        <time>2010-10-03T13:10:52Z</time>
      </trkpt>
      <trkpt lat="43.78681" lon="5.325">
        <ele>532.9</ele>
        <time>2010-10-03T13:10:59Z</time>
      </trkpt>
      <trkpt lat="43.78687" lon="5.32495">
        <ele>533.2</ele>
        <time>2010-10-03T13:11:05Z</time>
      </trkpt>
      <trkpt lat="43.78695" lon="5.32489">
        <ele>533.4</ele>
        <time>2010-10-03T13:11:12Z</time>
      </trkpt>
      <trkpt lat="43.78703" lon="5.32485">
        <ele>534</ele>
        <time>2010-10-03T13:11:19Z</time>
      </trkpt>
      <trkpt lat="43.7871" lon="5.3248">
        <ele>534.5</ele>
        <time>2010-10-03T13:11:25Z</time>
      </trkpt>
      <trkpt lat="43.78719" lon="5.32478">
        <ele>535</ele>
        <time>2010-10-03T13:11:31Z</time>
      </trkpt>
      <trkpt lat="43.78726" lon="5.32474">
        <ele>536</ele>
        <time>2010-10-03T13:11:37Z</time>
      </trkpt>
      <trkpt lat="43.78727" lon="5.32474">
        <ele>536.1</ele>
        <time>2010-10-03T13:11:38Z</time>
      </trkpt>
      <trkpt lat="43.78742" lon="5.32469">
        <ele>536.4</ele>
        <time>2010-10-03T13:11:49Z</time>
      </trkpt>
      <trkpt lat="43.78751" lon="5.3247">
        <ele>537</ele>
        <time>2010-10-03T13:11:56Z</time>
      </trkpt>
      <trkpt lat="43.7876" lon="5.32475">
        <ele>537</ele>
        <time>2010-10-03T13:12:04Z</time>
      </trkpt>
      <trkpt lat="43.78772" lon="5.32479">
        <ele>539</ele>
        <time>2010-10-03T13:12:12Z</time>
      </trkpt>
      <trkpt lat="43.78783" lon="5.32484">
        <ele>538</ele>
        <time>2010-10-03T13:12:20Z</time>
      </trkpt>
      <trkpt lat="43.78794" lon="5.32491">
        <ele>538</ele>
        <time>2010-10-03T13:12:28Z</time>
      </trkpt>
      <trkpt lat="43.78804" lon="5.32495">
        <ele>539</ele>
        <time>2010-10-03T13:12:36Z</time>
      </trkpt>
      <trkpt lat="43.78813" lon="5.32495">
        <ele>539</ele>
        <time>2010-10-03T13:12:44Z</time>
      </trkpt>
      <trkpt lat="43.78815" lon="5.32496">
        <ele>540</ele>
        <time>2010-10-03T13:12:46Z</time>
      </trkpt>
      <trkpt lat="43.78836" lon="5.32489">
        <ele>538.9</ele>
        <time>2010-10-03T13:12:59Z</time>
      </trkpt>
      <trkpt lat="43.78843" lon="5.32485">
        <ele>539</ele>
        <time>2010-10-03T13:13:03Z</time>
      </trkpt>
      <trkpt lat="43.78851" lon="5.32479">
        <ele>540.7</ele>
        <time>2010-10-03T13:13:09Z</time>
      </trkpt>
      <trkpt lat="43.78858" lon="5.32471">
        <ele>541.1</ele>
        <time>2010-10-03T13:13:15Z</time>
      </trkpt>
      <trkpt lat="43.78866" lon="5.32466">
        <ele>540.5</ele>
        <time>2010-10-03T13:13:21Z</time>
      </trkpt>
      <trkpt lat="43.78873" lon="5.32459">
        <ele>539.9</ele>
        <time>2010-10-03T13:13:26Z</time>
      </trkpt>
      <trkpt lat="43.78877" lon="5.32451">
        <ele>540.3</ele>
        <time>2010-10-03T13:13:31Z</time>
      </trkpt>
      <trkpt lat="43.7888" lon="5.3244">
        <ele>540</ele>
        <time>2010-10-03T13:13:36Z</time>
      </trkpt>
      <trkpt lat="43.78883" lon="5.32429">
        <ele>540.6</ele>
        <time>2010-10-03T13:13:42Z</time>
      </trkpt>
      <trkpt lat="43.78885" lon="5.32419">
        <ele>540.9</ele>
        <time>2010-10-03T13:13:47Z</time>
      </trkpt>
      <trkpt lat="43.78886" lon="5.32417">
        <ele>541.1</ele>
        <time>2010-10-03T13:13:48Z</time>
      </trkpt>
      <trkpt lat="43.78887" lon="5.32397">
        <ele>541.4</ele>
        <time>2010-10-03T13:13:58Z</time>
      </trkpt>
      <trkpt lat="43.78892" lon="5.32387">
        <ele>541.2</ele>
        <time>2010-10-03T13:14:49Z</time>
      </trkpt>
      <trkpt lat="43.78892" lon="5.32387">
        <ele>541.3</ele>
        <time>2010-10-03T13:14:50Z</time>
      </trkpt>
      <trkpt lat="43.78899" lon="5.32366">
        <ele>542.1</ele>
        <time>2010-10-03T13:15:16Z</time>
      </trkpt>
      <trkpt lat="43.78904" lon="5.32356">
        <ele>542.6</ele>
        <time>2010-10-03T13:15:22Z</time>
      </trkpt>
      <trkpt lat="43.7891" lon="5.32348">
        <ele>543</ele>
        <time>2010-10-03T13:15:28Z</time>
      </trkpt>
      <trkpt lat="43.78915" lon="5.32338">
        <ele>542.5</ele>
        <time>2010-10-03T13:15:34Z</time>
      </trkpt>
      <trkpt lat="43.7892" lon="5.32329">
        <ele>542.9</ele>
        <time>2010-10-03T13:15:40Z</time>
      </trkpt>
      <trkpt lat="43.78926" lon="5.32321">
        <ele>543.4</ele>
        <time>2010-10-03T13:15:46Z</time>
      </trkpt>
      <trkpt lat="43.78932" lon="5.32312">
        <ele>543.9</ele>
        <time>2010-10-03T13:15:53Z</time>
      </trkpt>
      <trkpt lat="43.78933" lon="5.32311">
        <ele>543.9</ele>
        <time>2010-10-03T13:15:54Z</time>
      </trkpt>
      <trkpt lat="43.78947" lon="5.32301">
        <ele>543.3</ele>
        <time>2010-10-03T13:16:05Z</time>
      </trkpt>
      <trkpt lat="43.78954" lon="5.32296">
        <ele>544.5</ele>
        <time>2010-10-03T13:16:12Z</time>
      </trkpt>
      <trkpt lat="43.78961" lon="5.32293">
        <ele>545.3</ele>
        <time>2010-10-03T13:16:18Z</time>
      </trkpt>
      <trkpt lat="43.78969" lon="5.32288">
        <ele>545.5</ele>
        <time>2010-10-03T13:16:23Z</time>
      </trkpt>
      <trkpt lat="43.78978" lon="5.32284">
        <ele>546.1</ele>
        <time>2010-10-03T13:16:29Z</time>
      </trkpt>
      <trkpt lat="43.78985" lon="5.3228">
        <ele>546</ele>
        <time>2010-10-03T13:16:34Z</time>
      </trkpt>
      <trkpt lat="43.78994" lon="5.32277">
        <ele>545.9</ele>
        <time>2010-10-03T13:16:40Z</time>
      </trkpt>
      <trkpt lat="43.79001" lon="5.32273">
        <ele>545.4</ele>
        <time>2010-10-03T13:16:46Z</time>
      </trkpt>
      <trkpt lat="43.79008" lon="5.32268">
        <ele>546.2</ele>
        <time>2010-10-03T13:16:51Z</time>
      </trkpt>
      <trkpt lat="43.79014" lon="5.32261">
        <ele>546.2</ele>
        <time>2010-10-03T13:16:57Z</time>
      </trkpt>
      <trkpt lat="43.79015" lon="5.3226">
        <ele>546.3</ele>
        <time>2010-10-03T13:16:58Z</time>
      </trkpt>
      <trkpt lat="43.79017" lon="5.32239">
        <ele>545.6</ele>
        <time>2010-10-03T13:17:09Z</time>
      </trkpt>
      <trkpt lat="43.79013" lon="5.32228">
        <ele>545.2</ele>
        <time>2010-10-03T13:17:15Z</time>
      </trkpt>
      <trkpt lat="43.7901" lon="5.32217">
        <ele>544.5</ele>
        <time>2010-10-03T13:17:21Z</time>
      </trkpt>
      <trkpt lat="43.79007" lon="5.32205">
        <ele>544</ele>
        <time>2010-10-03T13:17:27Z</time>
      </trkpt>
      <trkpt lat="43.79004" lon="5.32194">
        <ele>542.7</ele>
        <time>2010-10-03T13:17:32Z</time>
      </trkpt>
      <trkpt lat="43.79002" lon="5.32182">
        <ele>541.5</ele>
        <time>2010-10-03T13:17:38Z</time>
      </trkpt>
      <trkpt lat="43.79001" lon="5.3217">
        <ele>540.3</ele>
        <time>2010-10-03T13:17:46Z</time>
      </trkpt>
      <trkpt lat="43.78998" lon="5.32159">
        <ele>539.3</ele>
        <time>2010-10-03T13:17:53Z</time>
      </trkpt>
      <trkpt lat="43.78994" lon="5.32148">
        <ele>538.4</ele>
        <time>2010-10-03T13:17:59Z</time>
      </trkpt>
      <trkpt lat="43.78993" lon="5.32146">
        <ele>538.3</ele>
        <time>2010-10-03T13:18:00Z</time>
      </trkpt>
      <trkpt lat="43.78985" lon="5.32128">
        <ele>537.1</ele>
        <time>2010-10-03T13:18:14Z</time>
      </trkpt>
      <trkpt lat="43.78982" lon="5.32117">
        <ele>536.1</ele>
        <time>2010-10-03T13:18:19Z</time>
      </trkpt>
      <trkpt lat="43.78978" lon="5.32106">
        <ele>534.4</ele>
        <time>2010-10-03T13:18:27Z</time>
      </trkpt>
      <trkpt lat="43.78974" lon="5.32097">
        <ele>534</ele>
        <time>2010-10-03T13:18:32Z</time>
      </trkpt>
      <trkpt lat="43.78976" lon="5.32086">
        <ele>534.1</ele>
        <time>2010-10-03T13:18:39Z</time>
      </trkpt>
      <trkpt lat="43.78983" lon="5.3208">
        <ele>534.7</ele>
        <time>2010-10-03T13:18:48Z</time>
      </trkpt>
      <trkpt lat="43.78992" lon="5.32078">
        <ele>535.6</ele>
        <time>2010-10-03T13:18:54Z</time>
      </trkpt>
      <trkpt lat="43.79" lon="5.32077">
        <ele>535.5</ele>
        <time>2010-10-03T13:18:59Z</time>
      </trkpt>
      <trkpt lat="43.79009" lon="5.32076">
        <ele>535.9</ele>
        <time>2010-10-03T13:19:04Z</time>
      </trkpt>
      <trkpt lat="43.7901" lon="5.32076">
        <ele>536.1</ele>
        <time>2010-10-03T13:19:05Z</time>
      </trkpt>
      <trkpt lat="43.79025" lon="5.3208">
        <ele>537.7</ele>
        <time>2010-10-03T13:19:17Z</time>
      </trkpt>
      <trkpt lat="43.79034" lon="5.32083">
        <ele>537.7</ele>
        <time>2010-10-03T13:19:22Z</time>
      </trkpt>
      <trkpt lat="43.79041" lon="5.32087">
        <ele>538</ele>
        <time>2010-10-03T13:19:27Z</time>
      </trkpt>
      <trkpt lat="43.79049" lon="5.32088">
        <ele>538.1</ele>
        <time>2010-10-03T13:19:33Z</time>
      </trkpt>
      <trkpt lat="43.79057" lon="5.32089">
        <ele>539.3</ele>
        <time>2010-10-03T13:19:38Z</time>
      </trkpt>
      <trkpt lat="43.79064" lon="5.32089">
        <ele>539.8</ele>
        <time>2010-10-03T13:19:43Z</time>
      </trkpt>
      <trkpt lat="43.79072" lon="5.32087">
        <ele>539.8</ele>
        <time>2010-10-03T13:19:49Z</time>
      </trkpt>
      <trkpt lat="43.79079" lon="5.32087">
        <ele>539.9</ele>
        <time>2010-10-03T13:19:54Z</time>
      </trkpt>
      <trkpt lat="43.79087" lon="5.32085">
        <ele>541.5</ele>
        <time>2010-10-03T13:19:59Z</time>
      </trkpt>
      <trkpt lat="43.79095" lon="5.32087">
        <ele>541.9</ele>
        <time>2010-10-03T13:20:05Z</time>
      </trkpt>
      <trkpt lat="43.79097" lon="5.32087">
        <ele>541.9</ele>
        <time>2010-10-03T13:20:06Z</time>
      </trkpt>
      <trkpt lat="43.79111" lon="5.32087">
        <ele>542.8</ele>
        <time>2010-10-03T13:20:16Z</time>
      </trkpt>
      <trkpt lat="43.7912" lon="5.32087">
        <ele>543.7</ele>
        <time>2010-10-03T13:20:22Z</time>
      </trkpt>
      <trkpt lat="43.79128" lon="5.32087">
        <ele>545.2</ele>
        <time>2010-10-03T13:20:28Z</time>
      </trkpt>
      <trkpt lat="43.79136" lon="5.32087">
        <ele>546.8</ele>
        <time>2010-10-03T13:20:33Z</time>
      </trkpt>
      <trkpt lat="43.79144" lon="5.32086">
        <ele>547.6</ele>
        <time>2010-10-03T13:20:39Z</time>
      </trkpt>
      <trkpt lat="43.79153" lon="5.32084">
        <ele>548.6</ele>
        <time>2010-10-03T13:20:44Z</time>
      </trkpt>
      <trkpt lat="43.79161" lon="5.32083">
        <ele>549</ele>
        <time>2010-10-03T13:20:50Z</time>
      </trkpt>
      <trkpt lat="43.79169" lon="5.32077">
        <ele>548.9</ele>
        <time>2010-10-03T13:20:55Z</time>
      </trkpt>
      <trkpt lat="43.79174" lon="5.32067">
        <ele>548.8</ele>
        <time>2010-10-03T13:21:01Z</time>
      </trkpt>
      <trkpt lat="43.79171" lon="5.32056">
        <ele>548.5</ele>
        <time>2010-10-03T13:21:08Z</time>
      </trkpt>
      <trkpt lat="43.7917" lon="5.32054">
        <ele>548.5</ele>
        <time>2010-10-03T13:21:09Z</time>
      </trkpt>
      <trkpt lat="43.79166" lon="5.32033">
        <ele>549.9</ele>
        <time>2010-10-03T13:21:20Z</time>
      </trkpt>
      <trkpt lat="43.79164" lon="5.32023">
        <ele>550.2</ele>
        <time>2010-10-03T13:21:25Z</time>
      </trkpt>
      <trkpt lat="43.79163" lon="5.32011">
        <ele>550.8</ele>
        <time>2010-10-03T13:21:31Z</time>
      </trkpt>
      <trkpt lat="43.7916" lon="5.32001">
        <ele>551.6</ele>
        <time>2010-10-03T13:21:36Z</time>
      </trkpt>
      <trkpt lat="43.79159" lon="5.31989">
        <ele>551.8</ele>
        <time>2010-10-03T13:21:42Z</time>
      </trkpt>
      <trkpt lat="43.79157" lon="5.31977">
        <ele>552</ele>
        <time>2010-10-03T13:21:48Z</time>
      </trkpt>
      <trkpt lat="43.79155" lon="5.31966">
        <ele>552.2</ele>
        <time>2010-10-03T13:21:54Z</time>
      </trkpt>
      <trkpt lat="43.79154" lon="5.31956">
        <ele>552.6</ele>
        <time>2010-10-03T13:21:59Z</time>
      </trkpt>
      <trkpt lat="43.79152" lon="5.31945">
        <ele>553.7</ele>
        <time>2010-10-03T13:22:04Z</time>
      </trkpt>
      <trkpt lat="43.79149" lon="5.31933">
        <ele>554.6</ele>
        <time>2010-10-03T13:22:10Z</time>
      </trkpt>
      <trkpt lat="43.79149" lon="5.31931">
        <ele>554.7</ele>
        <time>2010-10-03T13:22:11Z</time>
      </trkpt>
      <trkpt lat="43.79141" lon="5.31915">
        <ele>555.6</ele>
        <time>2010-10-03T13:22:21Z</time>
      </trkpt>
      <trkpt lat="43.79134" lon="5.31911">
        <ele>557</ele>
        <time>2010-10-03T13:22:27Z</time>
      </trkpt>
      <trkpt lat="43.79126" lon="5.31905">
        <ele>557.7</ele>
        <time>2010-10-03T13:22:33Z</time>
      </trkpt>
      <trkpt lat="43.79119" lon="5.31898">
        <ele>558.4</ele>
        <time>2010-10-03T13:22:39Z</time>
      </trkpt>
      <trkpt lat="43.79112" lon="5.31891">
        <ele>558.8</ele>
        <time>2010-10-03T13:22:45Z</time>
      </trkpt>
      <trkpt lat="43.79105" lon="5.31883">
        <ele>559.8</ele>
        <time>2010-10-03T13:22:52Z</time>
      </trkpt>
      <trkpt lat="43.79099" lon="5.31876">
        <ele>561</ele>
        <time>2010-10-03T13:22:59Z</time>
      </trkpt>
      <trkpt lat="43.79091" lon="5.31869">
        <ele>561.8</ele>
        <time>2010-10-03T13:23:05Z</time>
      </trkpt>
      <trkpt lat="43.79086" lon="5.31861">
        <ele>562</ele>
        <time>2010-10-03T13:23:11Z</time>
      </trkpt>
      <trkpt lat="43.79085" lon="5.31859">
        <ele>562.1</ele>
        <time>2010-10-03T13:23:12Z</time>
      </trkpt>
      <trkpt lat="43.79074" lon="5.31848">
        <ele>562</ele>
        <time>2010-10-03T13:23:21Z</time>
      </trkpt>
      <trkpt lat="43.79068" lon="5.31841">
        <ele>562.4</ele>
        <time>2010-10-03T13:23:26Z</time>
      </trkpt>
      <trkpt lat="43.79063" lon="5.31831">
        <ele>563.2</ele>
        <time>2010-10-03T13:23:32Z</time>
      </trkpt>
      <trkpt lat="43.79061" lon="5.3182">
        <ele>563.9</ele>
        <time>2010-10-03T13:23:39Z</time>
      </trkpt>
      <trkpt lat="43.79059" lon="5.31808">
        <ele>563.5</ele>
        <time>2010-10-03T13:23:46Z</time>
      </trkpt>
      <trkpt lat="43.7906" lon="5.31796">
        <ele>563.4</ele>
        <time>2010-10-03T13:23:53Z</time>
      </trkpt>
      <trkpt lat="43.79063" lon="5.31785">
        <ele>563.3</ele>
        <time>2010-10-03T13:23:59Z</time>
      </trkpt>
      <trkpt lat="43.79067" lon="5.31776">
        <ele>562.7</ele>
        <time>2010-10-03T13:24:05Z</time>
      </trkpt>
      <trkpt lat="43.79072" lon="5.31766">
        <ele>562.3</ele>
        <time>2010-10-03T13:24:11Z</time>
      </trkpt>
      <trkpt lat="43.79077" lon="5.31755">
        <ele>562.6</ele>
        <time>2010-10-03T13:24:18Z</time>
      </trkpt>
      <trkpt lat="43.79077" lon="5.31754">
        <ele>562.7</ele>
        <time>2010-10-03T13:24:19Z</time>
      </trkpt>
      <trkpt lat="43.79085" lon="5.31736">
        <ele>563.3</ele>
        <time>2010-10-03T13:24:29Z</time>
      </trkpt>
      <trkpt lat="43.79089" lon="5.31727">
        <ele>562.9</ele>
        <time>2010-10-03T13:24:34Z</time>
      </trkpt>
      <trkpt lat="43.79092" lon="5.31717">
        <ele>563.2</ele>
        <time>2010-10-03T13:24:40Z</time>
      </trkpt>
      <trkpt lat="43.79096" lon="5.31708">
        <ele>563.6</ele>
        <time>2010-10-03T13:24:45Z</time>
      </trkpt>
      <trkpt lat="43.79099" lon="5.31697">
        <ele>564</ele>
        <time>2010-10-03T13:24:52Z</time>
      </trkpt>
      <trkpt lat="43.79099" lon="5.31686">
        <ele>563.9</ele>
        <time>2010-10-03T13:24:59Z</time>
      </trkpt>
      <trkpt lat="43.79101" lon="5.31675">
        <ele>564.7</ele>
        <time>2010-10-03T13:25:05Z</time>
      </trkpt>
      <trkpt lat="43.79102" lon="5.31663">
        <ele>565</ele>
        <time>2010-10-03T13:25:10Z</time>
      </trkpt>
      <trkpt lat="43.79104" lon="5.31651">
        <ele>565.2</ele>
        <time>2010-10-03T13:25:12Z</time>
      </trkpt>
      <trkpt lat="43.79104" lon="5.31644">
        <ele>565.4</ele>
        <time>2010-10-03T13:25:13Z</time>
      </trkpt>
      <trkpt lat="43.79104" lon="5.31638">
        <ele>565.3</ele>
        <time>2010-10-03T13:25:14Z</time>
      </trkpt>
      <trkpt lat="43.79107" lon="5.31626">
        <ele>565.3</ele>
        <time>2010-10-03T13:25:16Z</time>
      </trkpt>
      <trkpt lat="43.79108" lon="5.3162">
        <ele>565.3</ele>
        <time>2010-10-03T13:25:17Z</time>
      </trkpt>
      <trkpt lat="43.79109" lon="5.31612">
        <ele>565.4</ele>
        <time>2010-10-03T13:25:18Z</time>
      </trkpt>
      <trkpt lat="43.7911" lon="5.31605">
        <ele>565.5</ele>
        <time>2010-10-03T13:25:19Z</time>
      </trkpt>
      <trkpt lat="43.79111" lon="5.31598">
        <ele>565.6</ele>
        <time>2010-10-03T13:25:20Z</time>
      </trkpt>
      <trkpt lat="43.79112" lon="5.31591">
        <ele>565.7</ele>
        <time>2010-10-03T13:25:21Z</time>
      </trkpt>
      <trkpt lat="43.79113" lon="5.31585">
        <ele>565.7</ele>
        <time>2010-10-03T13:25:22Z</time>
      </trkpt>
      <trkpt lat="43.79114" lon="5.31574">
        <ele>566.2</ele>
        <time>2010-10-03T13:25:24Z</time>
      </trkpt>
      <trkpt lat="43.79116" lon="5.31564">
        <ele>566.7</ele>
        <time>2010-10-03T13:25:28Z</time>
      </trkpt>
      <trkpt lat="43.79116" lon="5.31552">
        <ele>567.3</ele>
        <time>2010-10-03T13:25:33Z</time>
      </trkpt>
      <trkpt lat="43.79116" lon="5.31543">
        <ele>568.5</ele>
        <time>2010-10-03T13:25:38Z</time>
      </trkpt>
      <trkpt lat="43.79115" lon="5.31531">
        <ele>569.3</ele>
        <time>2010-10-03T13:25:42Z</time>
      </trkpt>
      <trkpt lat="43.79112" lon="5.31521">
        <ele>569.5</ele>
        <time>2010-10-03T13:25:46Z</time>
      </trkpt>
      <trkpt lat="43.79106" lon="5.31513">
        <ele>568.3</ele>
        <time>2010-10-03T13:25:52Z</time>
      </trkpt>
      <trkpt lat="43.79099" lon="5.31505">
        <ele>568.9</ele>
        <time>2010-10-03T13:25:58Z</time>
      </trkpt>
      <trkpt lat="43.79093" lon="5.315">
        <ele>569.1</ele>
        <time>2010-10-03T13:26:04Z</time>
      </trkpt>
      <trkpt lat="43.79086" lon="5.31494">
        <ele>570</ele>
        <time>2010-10-03T13:26:09Z</time>
      </trkpt>
      <trkpt lat="43.7908" lon="5.31488">
        <ele>570.3</ele>
        <time>2010-10-03T13:26:15Z</time>
      </trkpt>
      <trkpt lat="43.79075" lon="5.31479">
        <ele>570.2</ele>
        <time>2010-10-03T13:26:20Z</time>
      </trkpt>
      <trkpt lat="43.79075" lon="5.31477">
        <ele>570.3</ele>
        <time>2010-10-03T13:26:21Z</time>
      </trkpt>
      <trkpt lat="43.79068" lon="5.31459">
        <ele>571</ele>
        <time>2010-10-03T13:26:31Z</time>
      </trkpt>
      <trkpt lat="43.79067" lon="5.31449">
        <ele>571.5</ele>
        <time>2010-10-03T13:26:35Z</time>
      </trkpt>
      <trkpt lat="43.79068" lon="5.31438">
        <ele>572.1</ele>
        <time>2010-10-03T13:26:41Z</time>
      </trkpt>
      <trkpt lat="43.79068" lon="5.31426">
        <ele>572.4</ele>
        <time>2010-10-03T13:26:46Z</time>
      </trkpt>
      <trkpt lat="43.79067" lon="5.31414">
        <ele>572.4</ele>
        <time>2010-10-03T13:26:51Z</time>
      </trkpt>
      <trkpt lat="43.79067" lon="5.31403">
        <ele>572.7</ele>
        <time>2010-10-03T13:26:56Z</time>
      </trkpt>
      <trkpt lat="43.79068" lon="5.31393">
        <ele>573</ele>
        <time>2010-10-03T13:27:01Z</time>
      </trkpt>
      <trkpt lat="43.7907" lon="5.31382">
        <ele>573.3</ele>
        <time>2010-10-03T13:27:06Z</time>
      </trkpt>
      <trkpt lat="43.79072" lon="5.31373">
        <ele>572.4</ele>
        <time>2010-10-03T13:27:11Z</time>
      </trkpt>
      <trkpt lat="43.79076" lon="5.31362">
        <ele>571.7</ele>
        <time>2010-10-03T13:27:17Z</time>
      </trkpt>
      <trkpt lat="43.79081" lon="5.31353">
        <ele>571.4</ele>
        <time>2010-10-03T13:27:22Z</time>
      </trkpt>
      <trkpt lat="43.79083" lon="5.31351">
        <ele>571.4</ele>
        <time>2010-10-03T13:27:23Z</time>
      </trkpt>
      <trkpt lat="43.79089" lon="5.31335">
        <ele>570.6</ele>
        <time>2010-10-03T13:27:32Z</time>
      </trkpt>
      <trkpt lat="43.79095" lon="5.31326">
        <ele>569.2</ele>
        <time>2010-10-03T13:27:38Z</time>
      </trkpt>
      <trkpt lat="43.79099" lon="5.31316">
        <ele>567.7</ele>
        <time>2010-10-03T13:27:44Z</time>
      </trkpt>
      <trkpt lat="43.79103" lon="5.31307">
        <ele>567.1</ele>
        <time>2010-10-03T13:27:49Z</time>
      </trkpt>
      <trkpt lat="43.79105" lon="5.31296">
        <ele>565.8</ele>
        <time>2010-10-03T13:27:54Z</time>
      </trkpt>
      <trkpt lat="43.79109" lon="5.31285">
        <ele>563.9</ele>
        <time>2010-10-03T13:28:00Z</time>
      </trkpt>
      <trkpt lat="43.79113" lon="5.31276">
        <ele>563.2</ele>
        <time>2010-10-03T13:28:04Z</time>
      </trkpt>
      <trkpt lat="43.79117" lon="5.31268">
        <ele>562.2</ele>
        <time>2010-10-03T13:28:08Z</time>
      </trkpt>
      <trkpt lat="43.79122" lon="5.31257">
        <ele>560.9</ele>
        <time>2010-10-03T13:28:13Z</time>
      </trkpt>
      <trkpt lat="43.79127" lon="5.31247">
        <ele>561.1</ele>
        <time>2010-10-03T13:28:19Z</time>
      </trkpt>
      <trkpt lat="43.79132" lon="5.31239">
        <ele>560.5</ele>
        <time>2010-10-03T13:28:24Z</time>
      </trkpt>
      <trkpt lat="43.79133" lon="5.31237">
        <ele>560.2</ele>
        <time>2010-10-03T13:28:25Z</time>
      </trkpt>
      <trkpt lat="43.79142" lon="5.31223">
        <ele>559.9</ele>
        <time>2010-10-03T13:28:35Z</time>
      </trkpt>
      <trkpt lat="43.79149" lon="5.31216">
        <ele>559.7</ele>
        <time>2010-10-03T13:28:41Z</time>
      </trkpt>
      <trkpt lat="43.79158" lon="5.31213">
        <ele>559.7</ele>
        <time>2010-10-03T13:28:46Z</time>
      </trkpt>
      <trkpt lat="43.79165" lon="5.31212">
        <ele>559</ele>
        <time>2010-10-03T13:28:51Z</time>
      </trkpt>
      <trkpt lat="43.79174" lon="5.3121">
        <ele>558.9</ele>
        <time>2010-10-03T13:28:56Z</time>
      </trkpt>
      <trkpt lat="43.79183" lon="5.3121">
        <ele>558.5</ele>
        <time>2010-10-03T13:29:02Z</time>
      </trkpt>
      <trkpt lat="43.79191" lon="5.31209">
        <ele>558</ele>
        <time>2010-10-03T13:29:07Z</time>
      </trkpt>
      <trkpt lat="43.792" lon="5.31207">
        <ele>558.1</ele>
        <time>2010-10-03T13:29:13Z</time>
      </trkpt>
      <trkpt lat="43.79207" lon="5.31205">
        <ele>558.1</ele>
        <time>2010-10-03T13:29:17Z</time>
      </trkpt>
      <trkpt lat="43.79214" lon="5.31201">
        <ele>557.7</ele>
        <time>2010-10-03T13:29:21Z</time>
      </trkpt>
      <trkpt lat="43.79222" lon="5.31196">
        <ele>557.8</ele>
        <time>2010-10-03T13:29:26Z</time>
      </trkpt>
      <trkpt lat="43.79224" lon="5.31195">
        <ele>557.9</ele>
        <time>2010-10-03T13:29:27Z</time>
      </trkpt>
      <trkpt lat="43.79236" lon="5.31184">
        <ele>557.5</ele>
        <time>2010-10-03T13:29:35Z</time>
      </trkpt>
      <trkpt lat="43.79243" lon="5.3118">
        <ele>557.2</ele>
        <time>2010-10-03T13:29:40Z</time>
      </trkpt>
      <trkpt lat="43.79251" lon="5.31176">
        <ele>557</ele>
        <time>2010-10-03T13:29:45Z</time>
      </trkpt>
      <trkpt lat="43.79259" lon="5.31172">
        <ele>557.6</ele>
        <time>2010-10-03T13:29:51Z</time>
      </trkpt>
      <trkpt lat="43.79267" lon="5.31168">
        <ele>557.8</ele>
        <time>2010-10-03T13:29:56Z</time>
      </trkpt>
      <trkpt lat="43.79275" lon="5.31166">
        <ele>558</ele>
        <time>2010-10-03T13:30:02Z</time>
      </trkpt>
      <trkpt lat="43.79284" lon="5.31166">
        <ele>557.9</ele>
        <time>2010-10-03T13:30:08Z</time>
      </trkpt>
      <trkpt lat="43.79293" lon="5.31166">
        <ele>558.1</ele>
        <time>2010-10-03T13:30:14Z</time>
      </trkpt>
      <trkpt lat="43.79301" lon="5.31169">
        <ele>558.6</ele>
        <time>2010-10-03T13:30:19Z</time>
      </trkpt>
      <trkpt lat="43.79309" lon="5.31172">
        <ele>558.5</ele>
        <time>2010-10-03T13:30:24Z</time>
      </trkpt>
      <trkpt lat="43.79315" lon="5.31178">
        <ele>542.1</ele>
        <time>2010-10-03T13:30:29Z</time>
      </trkpt>
      <trkpt lat="43.79317" lon="5.3118">
        <ele>540.1</ele>
        <time>2010-10-03T13:30:30Z</time>
      </trkpt>
      <trkpt lat="43.79325" lon="5.31195">
        <ele>535.1</ele>
        <time>2010-10-03T13:30:39Z</time>
      </trkpt>
      <trkpt lat="43.79329" lon="5.31206">
        <ele>535.2</ele>
        <time>2010-10-03T13:30:44Z</time>
      </trkpt>
      <trkpt lat="43.79332" lon="5.31215">
        <ele>535.9</ele>
        <time>2010-10-03T13:30:49Z</time>
      </trkpt>
      <trkpt lat="43.79338" lon="5.31223">
        <ele>536.9</ele>
        <time>2010-10-03T13:30:54Z</time>
      </trkpt>
      <trkpt lat="43.79346" lon="5.31228">
        <ele>538.1</ele>
        <time>2010-10-03T13:31:00Z</time>
      </trkpt>
      <trkpt lat="43.79354" lon="5.31233">
        <ele>538.2</ele>
        <time>2010-10-03T13:31:05Z</time>
      </trkpt>
      <trkpt lat="43.79361" lon="5.31236">
        <ele>538.5</ele>
        <time>2010-10-03T13:31:10Z</time>
      </trkpt>
      <trkpt lat="43.7937" lon="5.31239">
        <ele>538</ele>
        <time>2010-10-03T13:31:15Z</time>
      </trkpt>
      <trkpt lat="43.79378" lon="5.31241">
        <ele>537.8</ele>
        <time>2010-10-03T13:31:21Z</time>
      </trkpt>
      <trkpt lat="43.79386" lon="5.31242">
        <ele>538.5</ele>
        <time>2010-10-03T13:31:26Z</time>
      </trkpt>
      <trkpt lat="43.79394" lon="5.31244">
        <ele>538.1</ele>
        <time>2010-10-03T13:31:32Z</time>
      </trkpt>
      <trkpt lat="43.79396" lon="5.31244">
        <ele>538.1</ele>
        <time>2010-10-03T13:31:33Z</time>
      </trkpt>
      <trkpt lat="43.79409" lon="5.31243">
        <ele>537.9</ele>
        <time>2010-10-03T13:31:42Z</time>
      </trkpt>
      <trkpt lat="43.79417" lon="5.31242">
        <ele>538.7</ele>
        <time>2010-10-03T13:31:47Z</time>
      </trkpt>
      <trkpt lat="43.79425" lon="5.31243">
        <ele>538.2</ele>
        <time>2010-10-03T13:31:53Z</time>
      </trkpt>
      <trkpt lat="43.79433" lon="5.31241">
        <ele>537.6</ele>
        <time>2010-10-03T13:31:58Z</time>
      </trkpt>
      <trkpt lat="43.79441" lon="5.31242">
        <ele>538.1</ele>
        <time>2010-10-03T13:32:04Z</time>
      </trkpt>
      <trkpt lat="43.79448" lon="5.3124">
        <ele>538.7</ele>
        <time>2010-10-03T13:32:09Z</time>
      </trkpt>
      <trkpt lat="43.79457" lon="5.31238">
        <ele>538.3</ele>
        <time>2010-10-03T13:32:14Z</time>
      </trkpt>
      <trkpt lat="43.79465" lon="5.31235">
        <ele>537.6</ele>
        <time>2010-10-03T13:32:20Z</time>
      </trkpt>
      <trkpt lat="43.79473" lon="5.31233">
        <ele>536.7</ele>
        <time>2010-10-03T13:32:26Z</time>
      </trkpt>
      <trkpt lat="43.79481" lon="5.31229">
        <ele>536</ele>
        <time>2010-10-03T13:32:33Z</time>
      </trkpt>
      <trkpt lat="43.79482" lon="5.31228">
        <ele>536.4</ele>
        <time>2010-10-03T13:32:34Z</time>
      </trkpt>
      <trkpt lat="43.79498" lon="5.31223">
        <ele>535.6</ele>
        <time>2010-10-03T13:32:45Z</time>
      </trkpt>
      <trkpt lat="43.79505" lon="5.31222">
        <ele>534.9</ele>
        <time>2010-10-03T13:32:52Z</time>
      </trkpt>
      <trkpt lat="43.79514" lon="5.31224">
        <ele>534.1</ele>
        <time>2010-10-03T13:32:58Z</time>
      </trkpt>
      <trkpt lat="43.79522" lon="5.31223">
        <ele>533.7</ele>
        <time>2010-10-03T13:33:03Z</time>
      </trkpt>
      <trkpt lat="43.7953" lon="5.31222">
        <ele>533.3</ele>
        <time>2010-10-03T13:33:10Z</time>
      </trkpt>
      <trkpt lat="43.79537" lon="5.31217">
        <ele>532.6</ele>
        <time>2010-10-03T13:33:16Z</time>
      </trkpt>
      <trkpt lat="43.79544" lon="5.31215">
        <ele>531.6</ele>
        <time>2010-10-03T13:33:20Z</time>
      </trkpt>
      <trkpt lat="43.79552" lon="5.31213">
        <ele>531.2</ele>
        <time>2010-10-03T13:33:26Z</time>
      </trkpt>
      <trkpt lat="43.79561" lon="5.31211">
        <ele>529.9</ele>
        <time>2010-10-03T13:33:32Z</time>
      </trkpt>
      <trkpt lat="43.79569" lon="5.31209">
        <ele>529.3</ele>
        <time>2010-10-03T13:33:36Z</time>
      </trkpt>
      <trkpt lat="43.79571" lon="5.31208">
        <ele>529</ele>
        <time>2010-10-03T13:33:37Z</time>
      </trkpt>
      <trkpt lat="43.79586" lon="5.31204">
        <ele>527.9</ele>
        <time>2010-10-03T13:33:50Z</time>
      </trkpt>
      <trkpt lat="43.79594" lon="5.31202">
        <ele>526.4</ele>
        <time>2010-10-03T13:33:56Z</time>
      </trkpt>
      <trkpt lat="43.79603" lon="5.31201">
        <ele>525.7</ele>
        <time>2010-10-03T13:34:03Z</time>
      </trkpt>
      <trkpt lat="43.79612" lon="5.31203">
        <ele>524.9</ele>
        <time>2010-10-03T13:34:09Z</time>
      </trkpt>
      <trkpt lat="43.79619" lon="5.31207">
        <ele>523.5</ele>
        <time>2010-10-03T13:34:16Z</time>
      </trkpt>
      <trkpt lat="43.79628" lon="5.31208">
        <ele>523.6</ele>
        <time>2010-10-03T13:34:21Z</time>
      </trkpt>
      <trkpt lat="43.79636" lon="5.31211">
        <ele>523.1</ele>
        <time>2010-10-03T13:34:25Z</time>
      </trkpt>
      <trkpt lat="43.79643" lon="5.31214">
        <ele>522.9</ele>
        <time>2010-10-03T13:34:31Z</time>
      </trkpt>
      <trkpt lat="43.7965" lon="5.31219">
        <ele>522.6</ele>
        <time>2010-10-03T13:34:37Z</time>
      </trkpt>
      <trkpt lat="43.79651" lon="5.3122">
        <ele>522.6</ele>
        <time>2010-10-03T13:34:38Z</time>
      </trkpt>
      <trkpt lat="43.79666" lon="5.31226">
        <ele>519.7</ele>
        <time>2010-10-03T13:34:49Z</time>
      </trkpt>
      <trkpt lat="43.79674" lon="5.31229">
        <ele>519.1</ele>
        <time>2010-10-03T13:34:54Z</time>
      </trkpt>
      <trkpt lat="43.79682" lon="5.31232">
        <ele>518.4</ele>
        <time>2010-10-03T13:34:58Z</time>
      </trkpt>
      <trkpt lat="43.79691" lon="5.31234">
        <ele>517.1</ele>
        <time>2010-10-03T13:35:02Z</time>
      </trkpt>
      <trkpt lat="43.79698" lon="5.31237">
        <ele>516.7</ele>
        <time>2010-10-03T13:35:06Z</time>
      </trkpt>
      <trkpt lat="43.79707" lon="5.31238">
        <ele>516.7</ele>
        <time>2010-10-03T13:35:11Z</time>
      </trkpt>
      <trkpt lat="43.79714" lon="5.31241">
        <ele>515.4</ele>
        <time>2010-10-03T13:35:15Z</time>
      </trkpt>
      <trkpt lat="43.79723" lon="5.31241">
        <ele>514.2</ele>
        <time>2010-10-03T13:35:20Z</time>
      </trkpt>
      <trkpt lat="43.79732" lon="5.31242">
        <ele>512.9</ele>
        <time>2010-10-03T13:35:25Z</time>
      </trkpt>
      <trkpt lat="43.79739" lon="5.31237">
        <ele>512.4</ele>
        <time>2010-10-03T13:35:32Z</time>
      </trkpt>
      <trkpt lat="43.79744" lon="5.31229">
        <ele>511.5</ele>
        <time>2010-10-03T13:35:37Z</time>
      </trkpt>
      <trkpt lat="43.79748" lon="5.31221">
        <ele>510</ele>
        <time>2010-10-03T13:35:41Z</time>
      </trkpt>
      <trkpt lat="43.79749" lon="5.31219">
        <ele>509.8</ele>
        <time>2010-10-03T13:35:42Z</time>
      </trkpt>
      <trkpt lat="43.79754" lon="5.312">
        <ele>508.8</ele>
        <time>2010-10-03T13:35:52Z</time>
      </trkpt>
      <trkpt lat="43.79756" lon="5.31189">
        <ele>508.7</ele>
        <time>2010-10-03T13:35:57Z</time>
      </trkpt>
      <trkpt lat="43.79757" lon="5.31179">
        <ele>508.8</ele>
        <time>2010-10-03T13:36:02Z</time>
      </trkpt>
      <trkpt lat="43.79762" lon="5.31168">
        <ele>508.7</ele>
        <time>2010-10-03T13:36:08Z</time>
      </trkpt>
      <trkpt lat="43.79768" lon="5.31161">
        <ele>508.6</ele>
        <time>2010-10-03T13:36:13Z</time>
      </trkpt>
      <trkpt lat="43.79774" lon="5.31155">
        <ele>507.4</ele>
        <time>2010-10-03T13:36:17Z</time>
      </trkpt>
      <trkpt lat="43.79781" lon="5.31149">
        <ele>508.2</ele>
        <time>2010-10-03T13:36:23Z</time>
      </trkpt>
      <trkpt lat="43.79787" lon="5.31141">
        <ele>508.8</ele>
        <time>2010-10-03T13:36:28Z</time>
      </trkpt>
      <trkpt lat="43.79793" lon="5.31134">
        <ele>509</ele>
        <time>2010-10-03T13:36:32Z</time>
      </trkpt>
      <trkpt lat="43.798" lon="5.31126">
        <ele>508.9</ele>
        <time>2010-10-03T13:36:36Z</time>
      </trkpt>
      <trkpt lat="43.79807" lon="5.31119">
        <ele>508.6</ele>
        <time>2010-10-03T13:36:40Z</time>
      </trkpt>
      <trkpt lat="43.79814" lon="5.31112">
        <ele>508.4</ele>
        <time>2010-10-03T13:36:45Z</time>
      </trkpt>
      <trkpt lat="43.79815" lon="5.31111">
        <ele>508.4</ele>
        <time>2010-10-03T13:36:46Z</time>
      </trkpt>
      <trkpt lat="43.79827" lon="5.311">
        <ele>507.1</ele>
        <time>2010-10-03T13:36:54Z</time>
      </trkpt>
      <trkpt lat="43.79834" lon="5.31094">
        <ele>507.7</ele>
        <time>2010-10-03T13:36:58Z</time>
      </trkpt>
      <trkpt lat="43.7984" lon="5.31086">
        <ele>507.7</ele>
        <time>2010-10-03T13:37:04Z</time>
      </trkpt>
      <trkpt lat="43.79846" lon="5.31079">
        <ele>507.4</ele>
        <time>2010-10-03T13:37:10Z</time>
      </trkpt>
      <trkpt lat="43.79853" lon="5.31072">
        <ele>506.6</ele>
        <time>2010-10-03T13:37:15Z</time>
      </trkpt>
      <trkpt lat="43.79858" lon="5.31065">
        <ele>505.9</ele>
        <time>2010-10-03T13:37:20Z</time>
      </trkpt>
      <trkpt lat="43.79864" lon="5.31057">
        <ele>506</ele>
        <time>2010-10-03T13:37:25Z</time>
      </trkpt>
      <trkpt lat="43.79868" lon="5.31048">
        <ele>506.4</ele>
        <time>2010-10-03T13:37:30Z</time>
      </trkpt>
      <trkpt lat="43.79871" lon="5.31038">
        <ele>505.7</ele>
        <time>2010-10-03T13:37:36Z</time>
      </trkpt>
      <trkpt lat="43.79876" lon="5.31029">
        <ele>506.4</ele>
        <time>2010-10-03T13:37:41Z</time>
      </trkpt>
      <trkpt lat="43.79882" lon="5.31022">
        <ele>507</ele>
        <time>2010-10-03T13:37:46Z</time>
      </trkpt>
      <trkpt lat="43.79883" lon="5.3102">
        <ele>506.9</ele>
        <time>2010-10-03T13:37:47Z</time>
      </trkpt>
      <trkpt lat="43.79892" lon="5.31003">
        <ele>506.2</ele>
        <time>2010-10-03T13:37:55Z</time>
      </trkpt>
      <trkpt lat="43.79894" lon="5.30994">
        <ele>506.3</ele>
        <time>2010-10-03T13:38:00Z</time>
      </trkpt>
      <trkpt lat="43.79899" lon="5.30985">
        <ele>506.3</ele>
        <time>2010-10-03T13:38:04Z</time>
      </trkpt>
      <trkpt lat="43.79904" lon="5.30977">
        <ele>505.6</ele>
        <time>2010-10-03T13:38:09Z</time>
      </trkpt>
      <trkpt lat="43.79909" lon="5.3097">
        <ele>505.2</ele>
        <time>2010-10-03T13:38:12Z</time>
      </trkpt>
      <trkpt lat="43.79916" lon="5.30963">
        <ele>504.4</ele>
        <time>2010-10-03T13:38:16Z</time>
      </trkpt>
      <trkpt lat="43.79923" lon="5.30957">
        <ele>503.9</ele>
        <time>2010-10-03T13:38:21Z</time>
      </trkpt>
      <trkpt lat="43.79928" lon="5.30949">
        <ele>503.8</ele>
        <time>2010-10-03T13:38:26Z</time>
      </trkpt>
      <trkpt lat="43.7993" lon="5.30939">
        <ele>503</ele>
        <time>2010-10-03T13:38:31Z</time>
      </trkpt>
      <trkpt lat="43.79934" lon="5.30928">
        <ele>502.1</ele>
        <time>2010-10-03T13:38:36Z</time>
      </trkpt>
      <trkpt lat="43.79936" lon="5.30918">
        <ele>502.1</ele>
        <time>2010-10-03T13:38:41Z</time>
      </trkpt>
      <trkpt lat="43.79937" lon="5.30906">
        <ele>501.9</ele>
        <time>2010-10-03T13:38:46Z</time>
      </trkpt>
      <trkpt lat="43.79935" lon="5.30895">
        <ele>502.1</ele>
        <time>2010-10-03T13:38:53Z</time>
      </trkpt>
      <trkpt lat="43.79935" lon="5.30894">
        <ele>502.2</ele>
        <time>2010-10-03T13:38:54Z</time>
      </trkpt>
      <trkpt lat="43.79939" lon="5.30877">
        <ele>501.5</ele>
        <time>2010-10-03T13:39:20Z</time>
      </trkpt>
      <trkpt lat="43.79948" lon="5.30876">
        <ele>500</ele>
        <time>2010-10-03T13:39:46Z</time>
      </trkpt>
      <trkpt lat="43.79957" lon="5.30878">
        <ele>499.6</ele>
        <time>2010-10-03T13:39:55Z</time>
      </trkpt>
      <trkpt lat="43.79958" lon="5.30877">
        <ele>499.4</ele>
        <time>2010-10-03T13:39:56Z</time>
      </trkpt>
      <trkpt lat="43.79972" lon="5.30879">
        <ele>498.8</ele>
        <time>2010-10-03T13:40:09Z</time>
      </trkpt>
      <trkpt lat="43.79979" lon="5.30887">
        <ele>498.9</ele>
        <time>2010-10-03T13:40:14Z</time>
      </trkpt>
      <trkpt lat="43.79986" lon="5.30894">
        <ele>498.9</ele>
        <time>2010-10-03T13:40:20Z</time>
      </trkpt>
      <trkpt lat="43.79993" lon="5.309">
        <ele>498.8</ele>
        <time>2010-10-03T13:40:26Z</time>
      </trkpt>
      <trkpt lat="43.80001" lon="5.30902">
        <ele>498.5</ele>
        <time>2010-10-03T13:40:33Z</time>
      </trkpt>
      <trkpt lat="43.8001" lon="5.30901">
        <ele>498.1</ele>
        <time>2010-10-03T13:40:39Z</time>
      </trkpt>
      <trkpt lat="43.80017" lon="5.30899">
        <ele>497.3</ele>
        <time>2010-10-03T13:40:44Z</time>
      </trkpt>
      <trkpt lat="43.80025" lon="5.30896">
        <ele>496.8</ele>
        <time>2010-10-03T13:40:50Z</time>
      </trkpt>
      <trkpt lat="43.80033" lon="5.30892">
        <ele>496.1</ele>
        <time>2010-10-03T13:40:56Z</time>
      </trkpt>
      <trkpt lat="43.80035" lon="5.30891">
        <ele>495.9</ele>
        <time>2010-10-03T13:40:57Z</time>
      </trkpt>
      <trkpt lat="43.80049" lon="5.30884">
        <ele>495.3</ele>
        <time>2010-10-03T13:41:09Z</time>
      </trkpt>
      <trkpt lat="43.80058" lon="5.30882">
        <ele>495.9</ele>
        <time>2010-10-03T13:41:15Z</time>
      </trkpt>
      <trkpt lat="43.80065" lon="5.30883">
        <ele>496.2</ele>
        <time>2010-10-03T13:41:20Z</time>
      </trkpt>
      <trkpt lat="43.80074" lon="5.30885">
        <ele>496.3</ele>
        <time>2010-10-03T13:41:25Z</time>
      </trkpt>
      <trkpt lat="43.80082" lon="5.30888">
        <ele>496.5</ele>
        <time>2010-10-03T13:41:32Z</time>
      </trkpt>
      <trkpt lat="43.8009" lon="5.30891">
        <ele>496.2</ele>
        <time>2010-10-03T13:41:36Z</time>
      </trkpt>
      <trkpt lat="43.80095" lon="5.30898">
        <ele>496.5</ele>
        <time>2010-10-03T13:41:42Z</time>
      </trkpt>
      <trkpt lat="43.80097" lon="5.30908">
        <ele>496.9</ele>
        <time>2010-10-03T13:41:46Z</time>
      </trkpt>
      <trkpt lat="43.80093" lon="5.30917">
        <ele>496.5</ele>
        <time>2010-10-03T13:41:54Z</time>
      </trkpt>
      <trkpt lat="43.80084" lon="5.30921">
        <ele>496.5</ele>
        <time>2010-10-03T13:42:01Z</time>
      </trkpt>
      <trkpt lat="43.80083" lon="5.30922">
        <ele>496.7</ele>
        <time>2010-10-03T13:42:02Z</time>
      </trkpt>
      <trkpt lat="43.80073" lon="5.30935">
        <ele>496.9</ele>
        <time>2010-10-03T13:42:11Z</time>
      </trkpt>
      <trkpt lat="43.80068" lon="5.30944">
        <ele>497.4</ele>
        <time>2010-10-03T13:42:16Z</time>
      </trkpt>
      <trkpt lat="43.80064" lon="5.30954">
        <ele>497.6</ele>
        <time>2010-10-03T13:42:21Z</time>
      </trkpt>
      <trkpt lat="43.80061" lon="5.30964">
        <ele>498.2</ele>
        <time>2010-10-03T13:42:25Z</time>
      </trkpt>
      <trkpt lat="43.80062" lon="5.30975">
        <ele>498.7</ele>
        <time>2010-10-03T13:42:31Z</time>
      </trkpt>
      <trkpt lat="43.80064" lon="5.30985">
        <ele>498.8</ele>
        <time>2010-10-03T13:42:36Z</time>
      </trkpt>
      <trkpt lat="43.80068" lon="5.30994">
        <ele>499.7</ele>
        <time>2010-10-03T13:42:41Z</time>
      </trkpt>
      <trkpt lat="43.80072" lon="5.31005">
        <ele>500</ele>
        <time>2010-10-03T13:42:47Z</time>
      </trkpt>
      <trkpt lat="43.80075" lon="5.31015">
        <ele>499.9</ele>
        <time>2010-10-03T13:42:51Z</time>
      </trkpt>
      <trkpt lat="43.80078" lon="5.31027">
        <ele>500.1</ele>
        <time>2010-10-03T13:42:57Z</time>
      </trkpt>
      <trkpt lat="43.80077" lon="5.31039">
        <ele>500.6</ele>
        <time>2010-10-03T13:43:03Z</time>
      </trkpt>
      <trkpt lat="43.80077" lon="5.31041">
        <ele>500.7</ele>
        <time>2010-10-03T13:43:04Z</time>
      </trkpt>
      <trkpt lat="43.80072" lon="5.31061">
        <ele>502.3</ele>
        <time>2010-10-03T13:43:15Z</time>
      </trkpt>
      <trkpt lat="43.80073" lon="5.31072">
        <ele>502.3</ele>
        <time>2010-10-03T13:43:21Z</time>
      </trkpt>
      <trkpt lat="43.80072" lon="5.31082">
        <ele>502.6</ele>
        <time>2010-10-03T13:43:26Z</time>
      </trkpt>
      <trkpt lat="43.80073" lon="5.31095">
        <ele>503.9</ele>
        <time>2010-10-03T13:43:32Z</time>
      </trkpt>
      <trkpt lat="43.80073" lon="5.31107">
        <ele>503.8</ele>
        <time>2010-10-03T13:43:37Z</time>
      </trkpt>
      <trkpt lat="43.80073" lon="5.31119">
        <ele>503.5</ele>
        <time>2010-10-03T13:43:42Z</time>
      </trkpt>
      <trkpt lat="43.80075" lon="5.31131">
        <ele>504.2</ele>
        <time>2010-10-03T13:43:48Z</time>
      </trkpt>
      <trkpt lat="43.80077" lon="5.31142">
        <ele>504.2</ele>
        <time>2010-10-03T13:43:53Z</time>
      </trkpt>
      <trkpt lat="43.80079" lon="5.31154">
        <ele>505.3</ele>
        <time>2010-10-03T13:43:59Z</time>
      </trkpt>
      <trkpt lat="43.80084" lon="5.31164">
        <ele>505.7</ele>
        <time>2010-10-03T13:44:05Z</time>
      </trkpt>
      <trkpt lat="43.80086" lon="5.31165">
        <ele>505.6</ele>
        <time>2010-10-03T13:44:06Z</time>
      </trkpt>
      <trkpt lat="43.80097" lon="5.31177">
        <ele>505.1</ele>
        <time>2010-10-03T13:44:14Z</time>
      </trkpt>
      <trkpt lat="43.80104" lon="5.31184">
        <ele>505.1</ele>
        <time>2010-10-03T13:44:20Z</time>
      </trkpt>
      <trkpt lat="43.80112" lon="5.31186">
        <ele>505.7</ele>
        <time>2010-10-03T13:44:25Z</time>
      </trkpt>
      <trkpt lat="43.8012" lon="5.31188">
        <ele>506.2</ele>
        <time>2010-10-03T13:44:31Z</time>
      </trkpt>
      <trkpt lat="43.80128" lon="5.31189">
        <ele>506.9</ele>
        <time>2010-10-03T13:44:37Z</time>
      </trkpt>
      <trkpt lat="43.80136" lon="5.31192">
        <ele>507.8</ele>
        <time>2010-10-03T13:44:44Z</time>
      </trkpt>
      <trkpt lat="43.80144" lon="5.31195">
        <ele>508.5</ele>
        <time>2010-10-03T13:44:50Z</time>
      </trkpt>
      <trkpt lat="43.80152" lon="5.31199">
        <ele>508.7</ele>
        <time>2010-10-03T13:44:57Z</time>
      </trkpt>
      <trkpt lat="43.8016" lon="5.31203">
        <ele>508.3</ele>
        <time>2010-10-03T13:45:04Z</time>
      </trkpt>
      <trkpt lat="43.80167" lon="5.31209">
        <ele>508.8</ele>
        <time>2010-10-03T13:45:10Z</time>
      </trkpt>
      <trkpt lat="43.80168" lon="5.31209">
        <ele>509</ele>
        <time>2010-10-03T13:45:11Z</time>
      </trkpt>
      <trkpt lat="43.80181" lon="5.31222">
        <ele>509.8</ele>
        <time>2010-10-03T13:45:23Z</time>
      </trkpt>
      <trkpt lat="43.80187" lon="5.31228">
        <ele>509.9</ele>
        <time>2010-10-03T13:45:29Z</time>
      </trkpt>
      <trkpt lat="43.80193" lon="5.31236">
        <ele>510.2</ele>
        <time>2010-10-03T13:45:35Z</time>
      </trkpt>
      <trkpt lat="43.80199" lon="5.31243">
        <ele>510.1</ele>
        <time>2010-10-03T13:45:40Z</time>
      </trkpt>
      <trkpt lat="43.80204" lon="5.31251">
        <ele>510</ele>
        <time>2010-10-03T13:45:45Z</time>
      </trkpt>
      <trkpt lat="43.80208" lon="5.3126">
        <ele>509.9</ele>
        <time>2010-10-03T13:45:50Z</time>
      </trkpt>
      <trkpt lat="43.8021" lon="5.31272">
        <ele>510.1</ele>
        <time>2010-10-03T13:45:57Z</time>
      </trkpt>
      <trkpt lat="43.80214" lon="5.3128">
        <ele>510.4</ele>
        <time>2010-10-03T13:46:02Z</time>
      </trkpt>
      <trkpt lat="43.80221" lon="5.31288">
        <ele>511.2</ele>
        <time>2010-10-03T13:46:07Z</time>
      </trkpt>
      <trkpt lat="43.80228" lon="5.31296">
        <ele>511.6</ele>
        <time>2010-10-03T13:46:13Z</time>
      </trkpt>
      <trkpt lat="43.80229" lon="5.31297">
        <ele>511.6</ele>
        <time>2010-10-03T13:46:14Z</time>
      </trkpt>
      <trkpt lat="43.8024" lon="5.31312">
        <ele>511.7</ele>
        <time>2010-10-03T13:46:25Z</time>
      </trkpt>
      <trkpt lat="43.80246" lon="5.31319">
        <ele>512.9</ele>
        <time>2010-10-03T13:46:33Z</time>
      </trkpt>
      <trkpt lat="43.80254" lon="5.31326">
        <ele>512.4</ele>
        <time>2010-10-03T13:46:39Z</time>
      </trkpt>
      <trkpt lat="43.80257" lon="5.31337">
        <ele>513.4</ele>
        <time>2010-10-03T13:46:45Z</time>
      </trkpt>
      <trkpt lat="43.80263" lon="5.31344">
        <ele>514.2</ele>
        <time>2010-10-03T13:46:49Z</time>
      </trkpt>
      <trkpt lat="43.80268" lon="5.31353">
        <ele>514.5</ele>
        <time>2010-10-03T13:46:54Z</time>
      </trkpt>
      <trkpt lat="43.80275" lon="5.31357">
        <ele>514.2</ele>
        <time>2010-10-03T13:46:58Z</time>
      </trkpt>
      <trkpt lat="43.80283" lon="5.31362">
        <ele>514.8</ele>
        <time>2010-10-03T13:47:03Z</time>
      </trkpt>
      <trkpt lat="43.80292" lon="5.31366">
        <ele>515.4</ele>
        <time>2010-10-03T13:47:09Z</time>
      </trkpt>
      <trkpt lat="43.80298" lon="5.31367">
        <ele>515.9</ele>
        <time>2010-10-03T13:47:14Z</time>
      </trkpt>
      <trkpt lat="43.80301" lon="5.31367">
        <ele>516.1</ele>
        <time>2010-10-03T13:47:15Z</time>
      </trkpt>
      <trkpt lat="43.80315" lon="5.31367">
        <ele>517.7</ele>
        <time>2010-10-03T13:47:25Z</time>
      </trkpt>
      <trkpt lat="43.80323" lon="5.31369">
        <ele>518.1</ele>
        <time>2010-10-03T13:47:31Z</time>
      </trkpt>
      <trkpt lat="43.8033" lon="5.31377">
        <ele>519.2</ele>
        <time>2010-10-03T13:47:37Z</time>
      </trkpt>
      <trkpt lat="43.80336" lon="5.31382">
        <ele>519.7</ele>
        <time>2010-10-03T13:47:42Z</time>
      </trkpt>
      <trkpt lat="43.80344" lon="5.31388">
        <ele>520.5</ele>
        <time>2010-10-03T13:47:49Z</time>
      </trkpt>
      <trkpt lat="43.80351" lon="5.31392">
        <ele>519.9</ele>
        <time>2010-10-03T13:47:56Z</time>
      </trkpt>
      <trkpt lat="43.8036" lon="5.31389">
        <ele>520.2</ele>
        <time>2010-10-03T13:48:05Z</time>
      </trkpt>
      <trkpt lat="43.80367" lon="5.31387">
        <ele>520.1</ele>
        <time>2010-10-03T13:48:09Z</time>
      </trkpt>
      <trkpt lat="43.80375" lon="5.31383">
        <ele>520.7</ele>
        <time>2010-10-03T13:48:15Z</time>
      </trkpt>
      <trkpt lat="43.80376" lon="5.31382">
        <ele>520.7</ele>
        <time>2010-10-03T13:48:16Z</time>
      </trkpt>
      <trkpt lat="43.80391" lon="5.31372">
        <ele>520.4</ele>
        <time>2010-10-03T13:48:28Z</time>
      </trkpt>
      <trkpt lat="43.804" lon="5.31371">
        <ele>520.6</ele>
        <time>2010-10-03T13:48:34Z</time>
      </trkpt>
      <trkpt lat="43.80406" lon="5.31377">
        <ele>520.1</ele>
        <time>2010-10-03T13:48:40Z</time>
      </trkpt>
      <trkpt lat="43.80408" lon="5.31388">
        <ele>518.9</ele>
        <time>2010-10-03T13:48:47Z</time>
      </trkpt>
      <trkpt lat="43.80413" lon="5.31397">
        <ele>517.9</ele>
        <time>2010-10-03T13:48:53Z</time>
      </trkpt>
      <trkpt lat="43.80419" lon="5.31406">
        <ele>517</ele>
        <time>2010-10-03T13:49:00Z</time>
      </trkpt>
      <trkpt lat="43.80419" lon="5.31417">
        <ele>517.4</ele>
        <time>2010-10-03T13:49:06Z</time>
      </trkpt>
      <trkpt lat="43.80417" lon="5.31429">
        <ele>516.1</ele>
        <time>2010-10-03T13:49:12Z</time>
      </trkpt>
      <trkpt lat="43.80419" lon="5.31439">
        <ele>516.3</ele>
        <time>2010-10-03T13:49:18Z</time>
      </trkpt>
      <trkpt lat="43.8042" lon="5.3144">
        <ele>516.3</ele>
        <time>2010-10-03T13:49:19Z</time>
      </trkpt>
      <trkpt lat="43.8042" lon="5.31459">
        <ele>514.3</ele>
        <time>2010-10-03T13:49:30Z</time>
      </trkpt>
      <trkpt lat="43.80417" lon="5.3147">
        <ele>513.6</ele>
        <time>2010-10-03T13:49:34Z</time>
      </trkpt>
      <trkpt lat="43.80414" lon="5.31481">
        <ele>513.2</ele>
        <time>2010-10-03T13:49:39Z</time>
      </trkpt>
      <trkpt lat="43.80413" lon="5.31493">
        <ele>513.5</ele>
        <time>2010-10-03T13:49:46Z</time>
      </trkpt>
      <trkpt lat="43.80412" lon="5.31503">
        <ele>512.8</ele>
        <time>2010-10-03T13:49:51Z</time>
      </trkpt>
      <trkpt lat="43.80411" lon="5.31513">
        <ele>511.8</ele>
        <time>2010-10-03T13:49:55Z</time>
      </trkpt>
      <trkpt lat="43.80413" lon="5.31524">
        <ele>510.9</ele>
        <time>2010-10-03T13:50:00Z</time>
      </trkpt>
      <trkpt lat="43.80415" lon="5.31535">
        <ele>510.2</ele>
        <time>2010-10-03T13:50:06Z</time>
      </trkpt>
      <trkpt lat="43.80418" lon="5.31547">
        <ele>509.4</ele>
        <time>2010-10-03T13:50:13Z</time>
      </trkpt>
      <trkpt lat="43.80418" lon="5.31562">
        <ele>507</ele>
        <time>2010-10-03T13:50:21Z</time>
      </trkpt>
      <trkpt lat="43.80417" lon="5.31565">
        <ele>507.2</ele>
        <time>2010-10-03T13:50:23Z</time>
      </trkpt>
      <trkpt lat="43.80417" lon="5.31583">
        <ele>507.2</ele>
        <time>2010-10-03T13:50:33Z</time>
      </trkpt>
      <trkpt lat="43.80415" lon="5.31594">
        <ele>506.6</ele>
        <time>2010-10-03T13:50:39Z</time>
      </trkpt>
      <trkpt lat="43.80413" lon="5.31605">
        <ele>507.2</ele>
        <time>2010-10-03T13:50:45Z</time>
      </trkpt>
      <trkpt lat="43.80409" lon="5.31615">
        <ele>507.3</ele>
        <time>2010-10-03T13:50:49Z</time>
      </trkpt>
      <trkpt lat="43.80405" lon="5.31625">
        <ele>507.3</ele>
        <time>2010-10-03T13:50:56Z</time>
      </trkpt>
      <trkpt lat="43.80401" lon="5.31634">
        <ele>507.1</ele>
        <time>2010-10-03T13:51:01Z</time>
      </trkpt>
      <trkpt lat="43.80399" lon="5.31645">
        <ele>506.3</ele>
        <time>2010-10-03T13:51:08Z</time>
      </trkpt>
      <trkpt lat="43.80397" lon="5.31656">
        <ele>506.4</ele>
        <time>2010-10-03T13:51:14Z</time>
      </trkpt>
      <trkpt lat="43.80393" lon="5.31666">
        <ele>506.2</ele>
        <time>2010-10-03T13:51:20Z</time>
      </trkpt>
      <trkpt lat="43.80389" lon="5.31676">
        <ele>506.7</ele>
        <time>2010-10-03T13:51:27Z</time>
      </trkpt>
      <trkpt lat="43.80387" lon="5.31677">
        <ele>506.6</ele>
        <time>2010-10-03T13:51:28Z</time>
      </trkpt>
      <trkpt lat="43.80377" lon="5.31698">
        <ele>507.3</ele>
        <time>2010-10-03T13:51:40Z</time>
      </trkpt>
      <trkpt lat="43.80377" lon="5.3171">
        <ele>506.5</ele>
        <time>2010-10-03T13:51:47Z</time>
      </trkpt>
      <trkpt lat="43.80375" lon="5.31726">
        <ele>505</ele>
        <time>2010-10-03T13:51:56Z</time>
      </trkpt>
      <trkpt lat="43.8037" lon="5.31736">
        <ele>504.6</ele>
        <time>2010-10-03T13:52:02Z</time>
      </trkpt>
      <trkpt lat="43.80367" lon="5.31748">
        <ele>504.1</ele>
        <time>2010-10-03T13:52:07Z</time>
      </trkpt>
      <trkpt lat="43.80366" lon="5.31758">
        <ele>503</ele>
        <time>2010-10-03T13:52:15Z</time>
      </trkpt>
      <trkpt lat="43.80365" lon="5.31768">
        <ele>501.7</ele>
        <time>2010-10-03T13:52:20Z</time>
      </trkpt>
      <trkpt lat="43.80362" lon="5.31778">
        <ele>501.2</ele>
        <time>2010-10-03T13:52:24Z</time>
      </trkpt>
      <trkpt lat="43.80355" lon="5.31793">
        <ele>501</ele>
        <time>2010-10-03T13:52:31Z</time>
      </trkpt>
      <trkpt lat="43.80355" lon="5.31795">
        <ele>501.2</ele>
        <time>2010-10-03T13:52:33Z</time>
      </trkpt>
      <trkpt lat="43.80349" lon="5.31814">
        <ele>500.1</ele>
        <time>2010-10-03T13:52:44Z</time>
      </trkpt>
      <trkpt lat="43.8035" lon="5.31825">
        <ele>499</ele>
        <time>2010-10-03T13:52:50Z</time>
      </trkpt>
      <trkpt lat="43.80346" lon="5.31835">
        <ele>498.7</ele>
        <time>2010-10-03T13:52:58Z</time>
      </trkpt>
      <trkpt lat="43.80344" lon="5.31846">
        <ele>498.1</ele>
        <time>2010-10-03T13:53:03Z</time>
      </trkpt>
      <trkpt lat="43.80338" lon="5.31855">
        <ele>497.4</ele>
        <time>2010-10-03T13:53:09Z</time>
      </trkpt>
      <trkpt lat="43.80334" lon="5.31865">
        <ele>497</ele>
        <time>2010-10-03T13:53:16Z</time>
      </trkpt>
      <trkpt lat="43.8033" lon="5.31875">
        <ele>496.4</ele>
        <time>2010-10-03T13:53:22Z</time>
      </trkpt>
      <trkpt lat="43.80331" lon="5.31887">
        <ele>496.3</ele>
        <time>2010-10-03T13:53:30Z</time>
      </trkpt>
      <trkpt lat="43.8033" lon="5.31899">
        <ele>495.9</ele>
        <time>2010-10-03T13:53:35Z</time>
      </trkpt>
      <trkpt lat="43.8033" lon="5.31901">
        <ele>495.6</ele>
        <time>2010-10-03T13:53:36Z</time>
      </trkpt>
      <trkpt lat="43.80323" lon="5.3192">
        <ele>495.4</ele>
        <time>2010-10-03T13:53:47Z</time>
      </trkpt>
      <trkpt lat="43.80321" lon="5.31932">
        <ele>494.6</ele>
        <time>2010-10-03T13:53:54Z</time>
      </trkpt>
      <trkpt lat="43.80316" lon="5.3194">
        <ele>495.3</ele>
        <time>2010-10-03T13:53:59Z</time>
      </trkpt>
      <trkpt lat="43.80312" lon="5.31951">
        <ele>494.7</ele>
        <time>2010-10-03T13:54:08Z</time>
      </trkpt>
      <trkpt lat="43.80309" lon="5.31962">
        <ele>495.1</ele>
        <time>2010-10-03T13:54:21Z</time>
      </trkpt>
      <trkpt lat="43.80304" lon="5.31972">
        <ele>495.3</ele>
        <time>2010-10-03T13:54:28Z</time>
      </trkpt>
      <trkpt lat="43.80302" lon="5.31984">
        <ele>495.7</ele>
        <time>2010-10-03T13:54:38Z</time>
      </trkpt>
      <trkpt lat="43.80302" lon="5.31985">
        <ele>495.6</ele>
        <time>2010-10-03T13:54:39Z</time>
      </trkpt>
      <trkpt lat="43.80315" lon="5.32001">
        <ele>491.4</ele>
        <time>2010-10-03T13:54:58Z</time>
      </trkpt>
      <trkpt lat="43.8032" lon="5.3201">
        <ele>489.3</ele>
        <time>2010-10-03T13:55:06Z</time>
      </trkpt>
      <trkpt lat="43.80326" lon="5.32019">
        <ele>486.8</ele>
        <time>2010-10-03T13:55:16Z</time>
      </trkpt>
      <trkpt lat="43.80332" lon="5.32026">
        <ele>486.4</ele>
        <time>2010-10-03T13:55:22Z</time>
      </trkpt>
      <trkpt lat="43.80339" lon="5.32032">
        <ele>482.9</ele>
        <time>2010-10-03T13:55:34Z</time>
      </trkpt>
      <trkpt lat="43.80348" lon="5.32036">
        <ele>482.3</ele>
        <time>2010-10-03T13:55:42Z</time>
      </trkpt>
      <trkpt lat="43.80349" lon="5.32036">
        <ele>482.3</ele>
        <time>2010-10-03T13:55:43Z</time>
      </trkpt>
      <trkpt lat="43.80364" lon="5.32037">
        <ele>480.1</ele>
        <time>2010-10-03T13:55:53Z</time>
      </trkpt>
      <trkpt lat="43.80373" lon="5.32036">
        <ele>479.9</ele>
        <time>2010-10-03T13:55:59Z</time>
      </trkpt>
      <trkpt lat="43.80381" lon="5.32033">
        <ele>478.2</ele>
        <time>2010-10-03T13:56:05Z</time>
      </trkpt>
      <trkpt lat="43.80388" lon="5.32033">
        <ele>476.9</ele>
        <time>2010-10-03T13:56:10Z</time>
      </trkpt>
      <trkpt lat="43.80395" lon="5.32035">
        <ele>475.9</ele>
        <time>2010-10-03T13:56:15Z</time>
      </trkpt>
      <trkpt lat="43.80399" lon="5.32044">
        <ele>474.6</ele>
        <time>2010-10-03T13:56:21Z</time>
      </trkpt>
      <trkpt lat="43.80395" lon="5.32054">
        <ele>474.6</ele>
        <time>2010-10-03T13:56:29Z</time>
      </trkpt>
      <trkpt lat="43.80388" lon="5.3206">
        <ele>475.4</ele>
        <time>2010-10-03T13:56:38Z</time>
      </trkpt>
      <trkpt lat="43.80381" lon="5.32067">
        <ele>475.3</ele>
        <time>2010-10-03T13:56:46Z</time>
      </trkpt>
      <trkpt lat="43.8038" lon="5.32069">
        <ele>475.3</ele>
        <time>2010-10-03T13:56:47Z</time>
      </trkpt>
      <trkpt lat="43.80362" lon="5.32076">
        <ele>477</ele>
        <time>2010-10-03T13:57:02Z</time>
      </trkpt>
      <trkpt lat="43.80354" lon="5.32078">
        <ele>478.6</ele>
        <time>2010-10-03T13:57:10Z</time>
      </trkpt>
      <trkpt lat="43.80348" lon="5.32085">
        <ele>479.6</ele>
        <time>2010-10-03T13:57:17Z</time>
      </trkpt>
      <trkpt lat="43.80342" lon="5.32093">
        <ele>479.7</ele>
        <time>2010-10-03T13:57:23Z</time>
      </trkpt>
      <trkpt lat="43.80341" lon="5.32105">
        <ele>479.7</ele>
        <time>2010-10-03T13:57:31Z</time>
      </trkpt>
      <trkpt lat="43.80355" lon="5.32109">
        <ele>477.9</ele>
        <time>2010-10-03T13:57:44Z</time>
      </trkpt>
      <trkpt lat="43.80363" lon="5.32112">
        <ele>474.4</ele>
        <time>2010-10-03T13:58:00Z</time>
      </trkpt>
      <trkpt lat="43.80365" lon="5.32111">
        <ele>474.2</ele>
        <time>2010-10-03T13:58:01Z</time>
      </trkpt>
      <trkpt lat="43.8038" lon="5.32107">
        <ele>471.3</ele>
        <time>2010-10-03T13:58:14Z</time>
      </trkpt>
      <trkpt lat="43.80389" lon="5.32108">
        <ele>468.7</ele>
        <time>2010-10-03T13:58:24Z</time>
      </trkpt>
      <trkpt lat="43.80397" lon="5.32111">
        <ele>466.9</ele>
        <time>2010-10-03T13:58:34Z</time>
      </trkpt>
      <trkpt lat="43.80406" lon="5.32112">
        <ele>466.4</ele>
        <time>2010-10-03T13:58:38Z</time>
      </trkpt>
      <trkpt lat="43.80414" lon="5.32113">
        <ele>465.2</ele>
        <time>2010-10-03T13:58:45Z</time>
      </trkpt>
      <trkpt lat="43.80422" lon="5.32114">
        <ele>462.9</ele>
        <time>2010-10-03T13:58:53Z</time>
      </trkpt>
      <trkpt lat="43.8043" lon="5.32117">
        <ele>461.4</ele>
        <time>2010-10-03T13:59:01Z</time>
      </trkpt>
      <trkpt lat="43.80431" lon="5.32117">
        <ele>461.3</ele>
        <time>2010-10-03T13:59:02Z</time>
      </trkpt>
      <trkpt lat="43.80447" lon="5.32123">
        <ele>460.1</ele>
        <time>2010-10-03T13:59:15Z</time>
      </trkpt>
      <trkpt lat="43.80454" lon="5.32127">
        <ele>458.4</ele>
        <time>2010-10-03T13:59:22Z</time>
      </trkpt>
      <trkpt lat="43.80462" lon="5.32129">
        <ele>457.9</ele>
        <time>2010-10-03T13:59:26Z</time>
      </trkpt>
      <trkpt lat="43.80471" lon="5.32131">
        <ele>456.4</ele>
        <time>2010-10-03T13:59:32Z</time>
      </trkpt>
      <trkpt lat="43.80479" lon="5.32132">
        <ele>455.5</ele>
        <time>2010-10-03T13:59:36Z</time>
      </trkpt>
      <trkpt lat="43.80488" lon="5.32138">
        <ele>453.9</ele>
        <time>2010-10-03T13:59:46Z</time>
      </trkpt>
      <trkpt lat="43.80494" lon="5.32145">
        <ele>451.4</ele>
        <time>2010-10-03T13:59:59Z</time>
      </trkpt>
      <trkpt lat="43.80502" lon="5.32148">
        <ele>451</ele>
        <time>2010-10-03T14:00:04Z</time>
      </trkpt>
      <trkpt lat="43.80503" lon="5.32148">
        <ele>450.7</ele>
        <time>2010-10-03T14:00:05Z</time>
      </trkpt>
      <trkpt lat="43.8052" lon="5.32159">
        <ele>447.9</ele>
        <time>2010-10-03T14:00:19Z</time>
      </trkpt>
      <trkpt lat="43.80527" lon="5.32165">
        <ele>446.2</ele>
        <time>2010-10-03T14:00:26Z</time>
      </trkpt>
      <trkpt lat="43.80532" lon="5.32175">
        <ele>445.7</ele>
        <time>2010-10-03T14:00:34Z</time>
      </trkpt>
      <trkpt lat="43.80538" lon="5.32184">
        <ele>446.5</ele>
        <time>2010-10-03T14:00:39Z</time>
      </trkpt>
      <trkpt lat="43.8054" lon="5.32195">
        <ele>446.2</ele>
        <time>2010-10-03T14:00:44Z</time>
      </trkpt>
      <trkpt lat="43.80539" lon="5.32207">
        <ele>446.7</ele>
        <time>2010-10-03T14:00:51Z</time>
      </trkpt>
      <trkpt lat="43.80545" lon="5.32215">
        <ele>445.7</ele>
        <time>2010-10-03T14:00:57Z</time>
      </trkpt>
      <trkpt lat="43.80552" lon="5.3222">
        <ele>444.6</ele>
        <time>2010-10-03T14:01:01Z</time>
      </trkpt>
      <trkpt lat="43.8056" lon="5.32225">
        <ele>443.4</ele>
        <time>2010-10-03T14:01:05Z</time>
      </trkpt>
      <trkpt lat="43.80561" lon="5.32226">
        <ele>443.1</ele>
        <time>2010-10-03T14:01:06Z</time>
      </trkpt>
      <trkpt lat="43.80573" lon="5.32237">
        <ele>440.8</ele>
        <time>2010-10-03T14:01:17Z</time>
      </trkpt>
      <trkpt lat="43.80577" lon="5.32248">
        <ele>440</ele>
        <time>2010-10-03T14:01:23Z</time>
      </trkpt>
      <trkpt lat="43.80583" lon="5.32257">
        <ele>438.8</ele>
        <time>2010-10-03T14:01:30Z</time>
      </trkpt>
      <trkpt lat="43.80584" lon="5.32272">
        <ele>437.4</ele>
        <time>2010-10-03T14:01:36Z</time>
      </trkpt>
      <trkpt lat="43.80585" lon="5.32284">
        <ele>436.4</ele>
        <time>2010-10-03T14:01:42Z</time>
      </trkpt>
      <trkpt lat="43.80593" lon="5.3228">
        <ele>434.7</ele>
        <time>2010-10-03T14:01:48Z</time>
      </trkpt>
      <trkpt lat="43.80599" lon="5.32272">
        <ele>434.2</ele>
        <time>2010-10-03T14:01:51Z</time>
      </trkpt>
      <trkpt lat="43.80606" lon="5.32265">
        <ele>434.7</ele>
        <time>2010-10-03T14:01:55Z</time>
      </trkpt>
      <trkpt lat="43.80614" lon="5.32259">
        <ele>434.7</ele>
        <time>2010-10-03T14:01:59Z</time>
      </trkpt>
      <trkpt lat="43.80623" lon="5.32257">
        <ele>433.9</ele>
        <time>2010-10-03T14:02:02Z</time>
      </trkpt>
      <trkpt lat="43.8063" lon="5.32251">
        <ele>433.1</ele>
        <time>2010-10-03T14:02:08Z</time>
      </trkpt>
      <trkpt lat="43.80631" lon="5.3225">
        <ele>432.9</ele>
        <time>2010-10-03T14:02:09Z</time>
      </trkpt>
      <trkpt lat="43.80642" lon="5.32236">
        <ele>430.8</ele>
        <time>2010-10-03T14:02:22Z</time>
      </trkpt>
      <trkpt lat="43.8065" lon="5.32239">
        <ele>429.1</ele>
        <time>2010-10-03T14:02:28Z</time>
      </trkpt>
      <trkpt lat="43.80654" lon="5.32249">
        <ele>427.5</ele>
        <time>2010-10-03T14:02:35Z</time>
      </trkpt>
      <trkpt lat="43.80658" lon="5.3226">
        <ele>426.7</ele>
        <time>2010-10-03T14:02:42Z</time>
      </trkpt>
      <trkpt lat="43.80663" lon="5.3227">
        <ele>425.7</ele>
        <time>2010-10-03T14:02:49Z</time>
      </trkpt>
      <trkpt lat="43.80671" lon="5.32274">
        <ele>424.8</ele>
        <time>2010-10-03T14:02:54Z</time>
      </trkpt>
      <trkpt lat="43.80679" lon="5.32276">
        <ele>423.2</ele>
        <time>2010-10-03T14:03:01Z</time>
      </trkpt>
      <trkpt lat="43.80687" lon="5.32272">
        <ele>423</ele>
        <time>2010-10-03T14:03:06Z</time>
      </trkpt>
      <trkpt lat="43.80695" lon="5.32265">
        <ele>423</ele>
        <time>2010-10-03T14:03:12Z</time>
      </trkpt>
      <trkpt lat="43.80696" lon="5.32264">
        <ele>423</ele>
        <time>2010-10-03T14:03:13Z</time>
      </trkpt>
      <trkpt lat="43.80705" lon="5.32246">
        <ele>420.5</ele>
        <time>2010-10-03T14:03:31Z</time>
      </trkpt>
      <trkpt lat="43.80709" lon="5.32235">
        <ele>419.6</ele>
        <time>2010-10-03T14:03:38Z</time>
      </trkpt>
      <trkpt lat="43.80714" lon="5.32227">
        <ele>418.6</ele>
        <time>2010-10-03T14:03:44Z</time>
      </trkpt>
      <trkpt lat="43.80719" lon="5.32218">
        <ele>417.6</ele>
        <time>2010-10-03T14:03:50Z</time>
      </trkpt>
      <trkpt lat="43.80726" lon="5.32212">
        <ele>416.6</ele>
        <time>2010-10-03T14:03:56Z</time>
      </trkpt>
      <trkpt lat="43.80734" lon="5.32207">
        <ele>415.9</ele>
        <time>2010-10-03T14:04:03Z</time>
      </trkpt>
      <trkpt lat="43.80742" lon="5.32203">
        <ele>415.4</ele>
        <time>2010-10-03T14:04:09Z</time>
      </trkpt>
      <trkpt lat="43.8075" lon="5.322">
        <ele>415.2</ele>
        <time>2010-10-03T14:04:15Z</time>
      </trkpt>
      <trkpt lat="43.80752" lon="5.32199">
        <ele>415.1</ele>
        <time>2010-10-03T14:04:16Z</time>
      </trkpt>
      <trkpt lat="43.80767" lon="5.32193">
        <ele>413.7</ele>
        <time>2010-10-03T14:04:26Z</time>
      </trkpt>
      <trkpt lat="43.80774" lon="5.32188">
        <ele>413.4</ele>
        <time>2010-10-03T14:04:31Z</time>
      </trkpt>
      <trkpt lat="43.8078" lon="5.32181">
        <ele>412.4</ele>
        <time>2010-10-03T14:04:36Z</time>
      </trkpt>
      <trkpt lat="43.80786" lon="5.32174">
        <ele>411.3</ele>
        <time>2010-10-03T14:04:41Z</time>
      </trkpt>
      <trkpt lat="43.80791" lon="5.32165">
        <ele>410.7</ele>
        <time>2010-10-03T14:04:47Z</time>
      </trkpt>
      <trkpt lat="43.80798" lon="5.32157">
        <ele>410.3</ele>
        <time>2010-10-03T14:04:52Z</time>
      </trkpt>
      <trkpt lat="43.80804" lon="5.3215">
        <ele>409.3</ele>
        <time>2010-10-03T14:04:57Z</time>
      </trkpt>
      <trkpt lat="43.80811" lon="5.32143">
        <ele>409.1</ele>
        <time>2010-10-03T14:05:02Z</time>
      </trkpt>
      <trkpt lat="43.80817" lon="5.32135">
        <ele>408.5</ele>
        <time>2010-10-03T14:05:07Z</time>
      </trkpt>
      <trkpt lat="43.80822" lon="5.32127">
        <ele>407.5</ele>
        <time>2010-10-03T14:05:11Z</time>
      </trkpt>
      <trkpt lat="43.80825" lon="5.32116">
        <ele>405.9</ele>
        <time>2010-10-03T14:05:17Z</time>
      </trkpt>
      <trkpt lat="43.80827" lon="5.32115">
        <ele>405.7</ele>
        <time>2010-10-03T14:05:18Z</time>
      </trkpt>
      <trkpt lat="43.80838" lon="5.32101">
        <ele>405.1</ele>
        <time>2010-10-03T14:05:27Z</time>
      </trkpt>
      <trkpt lat="43.80845" lon="5.32095">
        <ele>405.9</ele>
        <time>2010-10-03T14:05:34Z</time>
      </trkpt>
      <trkpt lat="43.80853" lon="5.32091">
        <ele>406.6</ele>
        <time>2010-10-03T14:05:41Z</time>
      </trkpt>
      <trkpt lat="43.80861" lon="5.32088">
        <ele>406.7</ele>
        <time>2010-10-03T14:05:46Z</time>
      </trkpt>
      <trkpt lat="43.80869" lon="5.32089">
        <ele>407.5</ele>
        <time>2010-10-03T14:05:50Z</time>
      </trkpt>
      <trkpt lat="43.80877" lon="5.32091">
        <ele>406.9</ele>
        <time>2010-10-03T14:05:56Z</time>
      </trkpt>
      <trkpt lat="43.80884" lon="5.32096">
        <ele>408.3</ele>
        <time>2010-10-03T14:06:00Z</time>
      </trkpt>
      <trkpt lat="43.8089" lon="5.32103">
        <ele>410.5</ele>
        <time>2010-10-03T14:06:07Z</time>
      </trkpt>
      <trkpt lat="43.80897" lon="5.32108">
        <ele>412.2</ele>
        <time>2010-10-03T14:06:13Z</time>
      </trkpt>
      <trkpt lat="43.80903" lon="5.32114">
        <ele>413.6</ele>
        <time>2010-10-03T14:06:21Z</time>
      </trkpt>
      <trkpt lat="43.80905" lon="5.32115">
        <ele>413.8</ele>
        <time>2010-10-03T14:06:22Z</time>
      </trkpt>
      <trkpt lat="43.80914" lon="5.3213">
        <ele>414.6</ele>
        <time>2010-10-03T14:06:30Z</time>
      </trkpt>
      <trkpt lat="43.80918" lon="5.32139">
        <ele>415.8</ele>
        <time>2010-10-03T14:06:36Z</time>
      </trkpt>
      <trkpt lat="43.80922" lon="5.3215">
        <ele>416</ele>
        <time>2010-10-03T14:06:42Z</time>
      </trkpt>
      <trkpt lat="43.80928" lon="5.32159">
        <ele>416.7</ele>
        <time>2010-10-03T14:06:47Z</time>
      </trkpt>
      <trkpt lat="43.80937" lon="5.32158">
        <ele>417.1</ele>
        <time>2010-10-03T14:06:55Z</time>
      </trkpt>
      <trkpt lat="43.80936" lon="5.32147">
        <ele>417.7</ele>
        <time>2010-10-03T14:06:59Z</time>
      </trkpt>
      <trkpt lat="43.80933" lon="5.32135">
        <ele>419.3</ele>
        <time>2010-10-03T14:07:04Z</time>
      </trkpt>
      <trkpt lat="43.80931" lon="5.32124">
        <ele>419.7</ele>
        <time>2010-10-03T14:07:09Z</time>
      </trkpt>
      <trkpt lat="43.80932" lon="5.32113">
        <ele>420</ele>
        <time>2010-10-03T14:07:14Z</time>
      </trkpt>
      <trkpt lat="43.80938" lon="5.32105">
        <ele>420.8</ele>
        <time>2010-10-03T14:07:20Z</time>
      </trkpt>
      <trkpt lat="43.80946" lon="5.32098">
        <ele>422.4</ele>
        <time>2010-10-03T14:07:29Z</time>
      </trkpt>
      <trkpt lat="43.80946" lon="5.32097">
        <ele>422.5</ele>
        <time>2010-10-03T14:07:30Z</time>
      </trkpt>
      <trkpt lat="43.80956" lon="5.32081">
        <ele>421.8</ele>
        <time>2010-10-03T14:07:44Z</time>
      </trkpt>
      <trkpt lat="43.80965" lon="5.32075">
        <ele>421</ele>
        <time>2010-10-03T14:07:51Z</time>
      </trkpt>
      <trkpt lat="43.80973" lon="5.32077">
        <ele>422.1</ele>
        <time>2010-10-03T14:07:56Z</time>
      </trkpt>
      <trkpt lat="43.80981" lon="5.32078">
        <ele>422.2</ele>
        <time>2010-10-03T14:08:00Z</time>
      </trkpt>
      <trkpt lat="43.80986" lon="5.3207">
        <ele>421.3</ele>
        <time>2010-10-03T14:08:11Z</time>
      </trkpt>
      <trkpt lat="43.8099" lon="5.32059">
        <ele>419.7</ele>
        <time>2010-10-03T14:08:19Z</time>
      </trkpt>
      <trkpt lat="43.80998" lon="5.32054">
        <ele>420</ele>
        <time>2010-10-03T14:08:29Z</time>
      </trkpt>
      <trkpt lat="43.81006" lon="5.32054">
        <ele>419.3</ele>
        <time>2010-10-03T14:08:34Z</time>
      </trkpt>
      <trkpt lat="43.81007" lon="5.32054">
        <ele>419.3</ele>
        <time>2010-10-03T14:08:35Z</time>
      </trkpt>
      <trkpt lat="43.81022" lon="5.32058">
        <ele>419.9</ele>
        <time>2010-10-03T14:08:49Z</time>
      </trkpt>
      <trkpt lat="43.81024" lon="5.32069">
        <ele>419.9</ele>
        <time>2010-10-03T14:08:56Z</time>
      </trkpt>
      <trkpt lat="43.81019" lon="5.32081">
        <ele>418</ele>
        <time>2010-10-03T14:09:10Z</time>
      </trkpt>
      <trkpt lat="43.81024" lon="5.32068">
        <ele>424</ele>
        <time>2010-10-03T14:09:30Z</time>
      </trkpt>
      <trkpt lat="43.81032" lon="5.32061">
        <ele>428</ele>
        <time>2010-10-03T14:09:42Z</time>
      </trkpt>
      <trkpt lat="43.81035" lon="5.3206">
        <ele>429.1</ele>
        <time>2010-10-03T14:09:44Z</time>
      </trkpt>
      <trkpt lat="43.81037" lon="5.32036">
        <ele>434</ele>
        <time>2010-10-03T14:10:10Z</time>
      </trkpt>
      <trkpt lat="43.81043" lon="5.3203">
        <ele>435.3</ele>
        <time>2010-10-03T14:10:14Z</time>
      </trkpt>
      <trkpt lat="43.81047" lon="5.3202">
        <ele>436.2</ele>
        <time>2010-10-03T14:10:18Z</time>
      </trkpt>
      <trkpt lat="43.81052" lon="5.3201">
        <ele>435.9</ele>
        <time>2010-10-03T14:10:24Z</time>
      </trkpt>
      <trkpt lat="43.81061" lon="5.32007">
        <ele>436</ele>
        <time>2010-10-03T14:10:36Z</time>
      </trkpt>
      <trkpt lat="43.8107" lon="5.32002">
        <ele>437.2</ele>
        <time>2010-10-03T14:10:50Z</time>
      </trkpt>
      <trkpt lat="43.81072" lon="5.32001">
        <ele>437.1</ele>
        <time>2010-10-03T14:10:51Z</time>
      </trkpt>
      <trkpt lat="43.81084" lon="5.31988">
        <ele>437</ele>
        <time>2010-10-03T14:11:03Z</time>
      </trkpt>
      <trkpt lat="43.81093" lon="5.31983">
        <ele>439.4</ele>
        <time>2010-10-03T14:11:12Z</time>
      </trkpt>
      <trkpt lat="43.81103" lon="5.31978">
        <ele>439</ele>
        <time>2010-10-03T14:11:19Z</time>
      </trkpt>
      <trkpt lat="43.81109" lon="5.31976">
        <ele>440.2</ele>
        <time>2010-10-03T14:11:21Z</time>
      </trkpt>
      <trkpt lat="43.81114" lon="5.31975">
        <ele>440.3</ele>
        <time>2010-10-03T14:11:22Z</time>
      </trkpt>
      <trkpt lat="43.81124" lon="5.31973">
        <ele>440</ele>
        <time>2010-10-03T14:11:25Z</time>
      </trkpt>
      <trkpt lat="43.81129" lon="5.3197">
        <ele>441.1</ele>
        <time>2010-10-03T14:11:29Z</time>
      </trkpt>
      <trkpt lat="43.81135" lon="5.31967">
        <ele>441.2</ele>
        <time>2010-10-03T14:11:31Z</time>
      </trkpt>
      <trkpt lat="43.81143" lon="5.31962">
        <ele>441.6</ele>
        <time>2010-10-03T14:11:35Z</time>
      </trkpt>
      <trkpt lat="43.8115" lon="5.31956">
        <ele>442.1</ele>
        <time>2010-10-03T14:11:39Z</time>
      </trkpt>
      <trkpt lat="43.81157" lon="5.31952">
        <ele>442.5</ele>
        <time>2010-10-03T14:11:42Z</time>
      </trkpt>
      <trkpt lat="43.81164" lon="5.31949">
        <ele>442.9</ele>
        <time>2010-10-03T14:11:46Z</time>
      </trkpt>
      <trkpt lat="43.81171" lon="5.31945">
        <ele>443.2</ele>
        <time>2010-10-03T14:11:50Z</time>
      </trkpt>
      <trkpt lat="43.81178" lon="5.31941">
        <ele>443.6</ele>
        <time>2010-10-03T14:11:54Z</time>
      </trkpt>
      <trkpt lat="43.8118" lon="5.31939">
        <ele>443.9</ele>
        <time>2010-10-03T14:11:55Z</time>
      </trkpt>
      <trkpt lat="43.81196" lon="5.31924">
        <ele>444</ele>
        <time>2010-10-03T14:12:07Z</time>
      </trkpt>
      <trkpt lat="43.81207" lon="5.31915">
        <ele>445</ele>
        <time>2010-10-03T14:12:15Z</time>
      </trkpt>
      <trkpt lat="43.81215" lon="5.31908">
        <ele>446</ele>
        <time>2010-10-03T14:12:24Z</time>
      </trkpt>
      <trkpt lat="43.81221" lon="5.31903">
        <ele>447.1</ele>
        <time>2010-10-03T14:12:34Z</time>
      </trkpt>
      <trkpt lat="43.81231" lon="5.319">
        <ele>447</ele>
        <time>2010-10-03T14:12:42Z</time>
      </trkpt>
      <trkpt lat="43.8124" lon="5.31893">
        <ele>447</ele>
        <time>2010-10-03T14:12:50Z</time>
      </trkpt>
      <trkpt lat="43.8125" lon="5.31891">
        <ele>447.7</ele>
        <time>2010-10-03T14:12:56Z</time>
      </trkpt>
      <trkpt lat="43.81253" lon="5.3189">
        <ele>447.9</ele>
        <time>2010-10-03T14:12:57Z</time>
      </trkpt>
      <trkpt lat="43.81267" lon="5.31888">
        <ele>447.6</ele>
        <time>2010-10-03T14:13:02Z</time>
      </trkpt>
      <trkpt lat="43.81282" lon="5.31882">
        <ele>448</ele>
        <time>2010-10-03T14:13:09Z</time>
      </trkpt>
      <trkpt lat="43.81291" lon="5.31876">
        <ele>447</ele>
        <time>2010-10-03T14:13:17Z</time>
      </trkpt>
      <trkpt lat="43.81296" lon="5.31865">
        <ele>446.8</ele>
        <time>2010-10-03T14:13:27Z</time>
      </trkpt>
      <trkpt lat="43.81301" lon="5.31858">
        <ele>445.9</ele>
        <time>2010-10-03T14:13:32Z</time>
      </trkpt>
      <trkpt lat="43.81309" lon="5.31853">
        <ele>445.7</ele>
        <time>2010-10-03T14:13:36Z</time>
      </trkpt>
      <trkpt lat="43.81315" lon="5.31853">
        <ele>445.6</ele>
        <time>2010-10-03T14:13:38Z</time>
      </trkpt>
      <trkpt lat="43.81321" lon="5.31852">
        <ele>445.6</ele>
        <time>2010-10-03T14:13:40Z</time>
      </trkpt>
      <trkpt lat="43.81328" lon="5.3185">
        <ele>445.7</ele>
        <time>2010-10-03T14:13:42Z</time>
      </trkpt>
      <trkpt lat="43.81335" lon="5.31848">
        <ele>445.6</ele>
        <time>2010-10-03T14:13:44Z</time>
      </trkpt>
      <trkpt lat="43.81343" lon="5.31846">
        <ele>445.2</ele>
        <time>2010-10-03T14:13:46Z</time>
      </trkpt>
      <trkpt lat="43.8135" lon="5.31845">
        <ele>445.3</ele>
        <time>2010-10-03T14:13:48Z</time>
      </trkpt>
      <trkpt lat="43.81357" lon="5.31843">
        <ele>445.4</ele>
        <time>2010-10-03T14:13:50Z</time>
      </trkpt>
      <trkpt lat="43.81366" lon="5.31844">
        <ele>444</ele>
        <time>2010-10-03T14:13:57Z</time>
      </trkpt>
      <trkpt lat="43.81367" lon="5.31846">
        <ele>444.6</ele>
        <time>2010-10-03T14:13:59Z</time>
      </trkpt>
      <trkpt lat="43.81381" lon="5.31844">
        <ele>444.5</ele>
        <time>2010-10-03T14:14:07Z</time>
      </trkpt>
      <trkpt lat="43.81388" lon="5.31841">
        <ele>444.6</ele>
        <time>2010-10-03T14:14:10Z</time>
      </trkpt>
      <trkpt lat="43.81396" lon="5.31836">
        <ele>444.2</ele>
        <time>2010-10-03T14:14:14Z</time>
      </trkpt>
      <trkpt lat="43.81405" lon="5.31832">
        <ele>444.2</ele>
        <time>2010-10-03T14:14:18Z</time>
      </trkpt>
      <trkpt lat="43.81412" lon="5.31827">
        <ele>444.1</ele>
        <time>2010-10-03T14:14:21Z</time>
      </trkpt>
      <trkpt lat="43.81418" lon="5.31825">
        <ele>443.8</ele>
        <time>2010-10-03T14:14:24Z</time>
      </trkpt>
      <trkpt lat="43.81424" lon="5.3182">
        <ele>443.7</ele>
        <time>2010-10-03T14:14:27Z</time>
      </trkpt>
      <trkpt lat="43.81431" lon="5.31814">
        <ele>442.6</ele>
        <time>2010-10-03T14:14:31Z</time>
      </trkpt>
      <trkpt lat="43.81437" lon="5.3181">
        <ele>442</ele>
        <time>2010-10-03T14:14:34Z</time>
      </trkpt>
      <trkpt lat="43.81447" lon="5.31802">
        <ele>441.7</ele>
        <time>2010-10-03T14:14:39Z</time>
      </trkpt>
      <trkpt lat="43.81454" lon="5.31797">
        <ele>441.7</ele>
        <time>2010-10-03T14:14:42Z</time>
      </trkpt>
      <trkpt lat="43.8146" lon="5.31791">
        <ele>440.6</ele>
        <time>2010-10-03T14:14:46Z</time>
      </trkpt>
      <trkpt lat="43.81479" lon="5.31787">
        <ele>439</ele>
        <time>2010-10-03T14:14:50Z</time>
      </trkpt>
      <trkpt lat="43.81487" lon="5.31787">
        <ele>439.6</ele>
        <time>2010-10-03T14:14:52Z</time>
      </trkpt>
      <trkpt lat="43.81492" lon="5.31787">
        <ele>439.5</ele>
        <time>2010-10-03T14:14:53Z</time>
      </trkpt>
      <trkpt lat="43.815" lon="5.31784">
        <ele>439</ele>
        <time>2010-10-03T14:14:55Z</time>
      </trkpt>
      <trkpt lat="43.81507" lon="5.31781">
        <ele>438.8</ele>
        <time>2010-10-03T14:14:57Z</time>
      </trkpt>
      <trkpt lat="43.81514" lon="5.31775">
        <ele>438.3</ele>
        <time>2010-10-03T14:15:01Z</time>
      </trkpt>
      <trkpt lat="43.81516" lon="5.31774">
        <ele>438.2</ele>
        <time>2010-10-03T14:15:02Z</time>
      </trkpt>
      <trkpt lat="43.81528" lon="5.31763">
        <ele>437.3</ele>
        <time>2010-10-03T14:15:09Z</time>
      </trkpt>
      <trkpt lat="43.81533" lon="5.31753">
        <ele>436.7</ele>
        <time>2010-10-03T14:15:14Z</time>
      </trkpt>
      <trkpt lat="43.81537" lon="5.31746">
        <ele>435.8</ele>
        <time>2010-10-03T14:15:17Z</time>
      </trkpt>
      <trkpt lat="43.81543" lon="5.3174">
        <ele>434.8</ele>
        <time>2010-10-03T14:15:19Z</time>
      </trkpt>
      <trkpt lat="43.81549" lon="5.31734">
        <ele>435.2</ele>
        <time>2010-10-03T14:15:21Z</time>
      </trkpt>
      <trkpt lat="43.81555" lon="5.31726">
        <ele>435.5</ele>
        <time>2010-10-03T14:15:23Z</time>
      </trkpt>
      <trkpt lat="43.81559" lon="5.31722">
        <ele>435.5</ele>
        <time>2010-10-03T14:15:24Z</time>
      </trkpt>
      <trkpt lat="43.81562" lon="5.31717">
        <ele>434.8</ele>
        <time>2010-10-03T14:15:25Z</time>
      </trkpt>
      <trkpt lat="43.81565" lon="5.31711">
        <ele>434.3</ele>
        <time>2010-10-03T14:15:26Z</time>
      </trkpt>
      <trkpt lat="43.81568" lon="5.31704">
        <ele>433.8</ele>
        <time>2010-10-03T14:15:27Z</time>
      </trkpt>
      <trkpt lat="43.8157" lon="5.31697">
        <ele>433.1</ele>
        <time>2010-10-03T14:15:28Z</time>
      </trkpt>
      <trkpt lat="43.81572" lon="5.3169">
        <ele>432.7</ele>
        <time>2010-10-03T14:15:29Z</time>
      </trkpt>
      <trkpt lat="43.81574" lon="5.31682">
        <ele>432.4</ele>
        <time>2010-10-03T14:15:30Z</time>
      </trkpt>
      <trkpt lat="43.81578" lon="5.31675">
        <ele>432.2</ele>
        <time>2010-10-03T14:15:31Z</time>
      </trkpt>
      <trkpt lat="43.81582" lon="5.31668">
        <ele>432</ele>
        <time>2010-10-03T14:15:32Z</time>
      </trkpt>
      <trkpt lat="43.81585" lon="5.31662">
        <ele>431.7</ele>
        <time>2010-10-03T14:15:33Z</time>
      </trkpt>
      <trkpt lat="43.81589" lon="5.31656">
        <ele>431.3</ele>
        <time>2010-10-03T14:15:34Z</time>
      </trkpt>
      <trkpt lat="43.81591" lon="5.31648">
        <ele>431.1</ele>
        <time>2010-10-03T14:15:35Z</time>
      </trkpt>
      <trkpt lat="43.81594" lon="5.31642">
        <ele>431</ele>
        <time>2010-10-03T14:15:36Z</time>
      </trkpt>
      <trkpt lat="43.81595" lon="5.31636">
        <ele>431.1</ele>
        <time>2010-10-03T14:15:37Z</time>
      </trkpt>
      <trkpt lat="43.81598" lon="5.31625">
        <ele>430.9</ele>
        <time>2010-10-03T14:15:39Z</time>
      </trkpt>
      <trkpt lat="43.81588" lon="5.31627">
        <ele>431</ele>
        <time>2010-10-03T14:15:46Z</time>
      </trkpt>
      <trkpt lat="43.81592" lon="5.31637">
        <ele>431.7</ele>
        <time>2010-10-03T14:16:26Z</time>
      </trkpt>
      <trkpt lat="43.81591" lon="5.31638">
        <ele>431.5</ele>
        <time>2010-10-03T14:16:26Z</time>
      </trkpt>
      <trkpt lat="43.81608" lon="5.3163">
        <ele>429.9</ele>
        <time>2010-10-03T14:16:59Z</time>
      </trkpt>
      <trkpt lat="43.81617" lon="5.31622">
        <ele>428.2</ele>
        <time>2010-10-03T14:17:09Z</time>
      </trkpt>
      <trkpt lat="43.81622" lon="5.31612">
        <ele>426.2</ele>
        <time>2010-10-03T14:17:18Z</time>
      </trkpt>
      <trkpt lat="43.81627" lon="5.31601">
        <ele>424</ele>
        <time>2010-10-03T14:17:26Z</time>
      </trkpt>
      <trkpt lat="43.81628" lon="5.31597">
        <ele>424.9</ele>
        <time>2010-10-03T14:17:29Z</time>
      </trkpt>
      <trkpt lat="43.81635" lon="5.31573">
        <ele>420</ele>
        <time>2010-10-03T14:17:43Z</time>
      </trkpt>
      <trkpt lat="43.81647" lon="5.31557">
        <ele>416</ele>
        <time>2010-10-03T14:17:59Z</time>
      </trkpt>
      <trkpt lat="43.81656" lon="5.31553">
        <ele>415</ele>
        <time>2010-10-03T14:18:03Z</time>
      </trkpt>
      <trkpt lat="43.81673" lon="5.31552">
        <ele>415</ele>
        <time>2010-10-03T14:18:07Z</time>
      </trkpt>
      <trkpt lat="43.81682" lon="5.31549">
        <ele>414</ele>
        <time>2010-10-03T14:18:11Z</time>
      </trkpt>
      <trkpt lat="43.8169" lon="5.31539">
        <ele>411</ele>
        <time>2010-10-03T14:18:19Z</time>
      </trkpt>
      <trkpt lat="43.81682" lon="5.31531">
        <ele>410</ele>
        <time>2010-10-03T14:18:27Z</time>
      </trkpt>
      <trkpt lat="43.81689" lon="5.31518">
        <ele>406</ele>
        <time>2010-10-03T14:18:39Z</time>
      </trkpt>
      <trkpt lat="43.81691" lon="5.31516">
        <ele>406.5</ele>
        <time>2010-10-03T14:18:41Z</time>
      </trkpt>
      <trkpt lat="43.81699" lon="5.31498">
        <ele>403</ele>
        <time>2010-10-03T14:18:55Z</time>
      </trkpt>
      <trkpt lat="43.81709" lon="5.31494">
        <ele>402</ele>
        <time>2010-10-03T14:18:59Z</time>
      </trkpt>
      <trkpt lat="43.81719" lon="5.31476">
        <ele>399</ele>
        <time>2010-10-03T14:19:11Z</time>
      </trkpt>
      <trkpt lat="43.8173" lon="5.31465">
        <ele>397</ele>
        <time>2010-10-03T14:19:19Z</time>
      </trkpt>
      <trkpt lat="43.8172" lon="5.31457">
        <ele>395</ele>
        <time>2010-10-03T14:19:41Z</time>
      </trkpt>
      <trkpt lat="43.81716" lon="5.31454">
        <ele>395.7</ele>
        <time>2010-10-03T14:19:45Z</time>
      </trkpt>
      <trkpt lat="43.8174" lon="5.31442">
        <ele>391</ele>
        <time>2010-10-03T14:20:04Z</time>
      </trkpt>
      <trkpt lat="43.81757" lon="5.31442">
        <ele>390</ele>
        <time>2010-10-03T14:20:09Z</time>
      </trkpt>
      <trkpt lat="43.81761" lon="5.31425">
        <ele>388</ele>
        <time>2010-10-03T14:20:23Z</time>
      </trkpt>
      <trkpt lat="43.81763" lon="5.31413">
        <ele>386</ele>
        <time>2010-10-03T14:20:31Z</time>
      </trkpt>
      <trkpt lat="43.81768" lon="5.31402">
        <ele>384</ele>
        <time>2010-10-03T14:20:39Z</time>
      </trkpt>
      <trkpt lat="43.81774" lon="5.3139">
        <ele>383</ele>
        <time>2010-10-03T14:20:48Z</time>
      </trkpt>
      <trkpt lat="43.81787" lon="5.31383">
        <ele>382.7</ele>
        <time>2010-10-03T14:20:54Z</time>
      </trkpt>
      <trkpt lat="43.81798" lon="5.31362">
        <ele>380</ele>
        <time>2010-10-03T14:21:07Z</time>
      </trkpt>
      <trkpt lat="43.81804" lon="5.3135">
        <ele>378</ele>
        <time>2010-10-03T14:21:15Z</time>
      </trkpt>
      <trkpt lat="43.81802" lon="5.31333">
        <ele>377</ele>
        <time>2010-10-03T14:21:23Z</time>
      </trkpt>
      <trkpt lat="43.81815" lon="5.31318">
        <ele>375</ele>
        <time>2010-10-03T14:21:31Z</time>
      </trkpt>
      <trkpt lat="43.81831" lon="5.31302">
        <ele>374</ele>
        <time>2010-10-03T14:21:39Z</time>
      </trkpt>
      <trkpt lat="43.8184" lon="5.31284">
        <ele>372</ele>
        <time>2010-10-03T14:21:47Z</time>
      </trkpt>
      <trkpt lat="43.81846" lon="5.31267">
        <ele>370</ele>
        <time>2010-10-03T14:21:55Z</time>
      </trkpt>
      <trkpt lat="43.81845" lon="5.31258">
        <ele>370.6</ele>
        <time>2010-10-03T14:21:58Z</time>
      </trkpt>
      <trkpt lat="43.81863" lon="5.31236">
        <ele>368</ele>
        <time>2010-10-03T14:22:11Z</time>
      </trkpt>
      <trkpt lat="43.81872" lon="5.31225">
        <ele>367</ele>
        <time>2010-10-03T14:22:19Z</time>
      </trkpt>
      <trkpt lat="43.81882" lon="5.31211">
        <ele>366</ele>
        <time>2010-10-03T14:22:27Z</time>
      </trkpt>
      <trkpt lat="43.81898" lon="5.31195">
        <ele>365</ele>
        <time>2010-10-03T14:22:35Z</time>
      </trkpt>
      <trkpt lat="43.81906" lon="5.3118">
        <ele>363</ele>
        <time>2010-10-03T14:22:43Z</time>
      </trkpt>
      <trkpt lat="43.81919" lon="5.31167">
        <ele>362</ele>
        <time>2010-10-03T14:22:51Z</time>
      </trkpt>
      <trkpt lat="43.81927" lon="5.31158">
        <ele>361</ele>
        <time>2010-10-03T14:22:59Z</time>
      </trkpt>
      <trkpt lat="43.8193" lon="5.31153">
        <ele>361.9</ele>
        <time>2010-10-03T14:23:02Z</time>
      </trkpt>
      <trkpt lat="43.81943" lon="5.3113">
        <ele>359</ele>
        <time>2010-10-03T14:23:15Z</time>
      </trkpt>
      <trkpt lat="43.81952" lon="5.31116">
        <ele>359</ele>
        <time>2010-10-03T14:23:23Z</time>
      </trkpt>
      <trkpt lat="43.8196" lon="5.31103">
        <ele>359</ele>
        <time>2010-10-03T14:23:31Z</time>
      </trkpt>
      <trkpt lat="43.81966" lon="5.3109">
        <ele>358</ele>
        <time>2010-10-03T14:23:39Z</time>
      </trkpt>
      <trkpt lat="43.81971" lon="5.31076">
        <ele>356</ele>
        <time>2010-10-03T14:23:47Z</time>
      </trkpt>
      <trkpt lat="43.81979" lon="5.31062">
        <ele>356</ele>
        <time>2010-10-03T14:23:55Z</time>
      </trkpt>
      <trkpt lat="43.8199" lon="5.31052">
        <ele>355</ele>
        <time>2010-10-03T14:24:03Z</time>
      </trkpt>
      <trkpt lat="43.81994" lon="5.3105">
        <ele>355.9</ele>
        <time>2010-10-03T14:24:06Z</time>
      </trkpt>
      <trkpt lat="43.82007" lon="5.31031">
        <ele>353</ele>
        <time>2010-10-03T14:24:49Z</time>
      </trkpt>
      <trkpt lat="43.82013" lon="5.3102">
        <ele>352</ele>
        <time>2010-10-03T14:24:57Z</time>
      </trkpt>
      <trkpt lat="43.82019" lon="5.31001">
        <ele>351</ele>
        <time>2010-10-03T14:25:13Z</time>
      </trkpt>
      <trkpt lat="43.8202" lon="5.30997">
        <ele>351</ele>
        <time>2010-10-03T14:25:16Z</time>
      </trkpt>
      <trkpt lat="43.82037" lon="5.30973">
        <ele>349</ele>
        <time>2010-10-03T14:25:29Z</time>
      </trkpt>
      <trkpt lat="43.82049" lon="5.30961">
        <ele>347</ele>
        <time>2010-10-03T14:25:37Z</time>
      </trkpt>
      <trkpt lat="43.82064" lon="5.30952">
        <ele>346</ele>
        <time>2010-10-03T14:25:45Z</time>
      </trkpt>
      <trkpt lat="43.82076" lon="5.30944">
        <ele>345</ele>
        <time>2010-10-03T14:25:53Z</time>
      </trkpt>
      <trkpt lat="43.82084" lon="5.30933">
        <ele>344</ele>
        <time>2010-10-03T14:26:01Z</time>
      </trkpt>
      <trkpt lat="43.82097" lon="5.30926">
        <ele>344</ele>
        <time>2010-10-03T14:26:09Z</time>
      </trkpt>
      <trkpt lat="43.82108" lon="5.30906">
        <ele>343</ele>
        <time>2010-10-03T14:26:25Z</time>
      </trkpt>
      <trkpt lat="43.82109" lon="5.30902">
        <ele>342.8</ele>
        <time>2010-10-03T14:26:28Z</time>
      </trkpt>
      <trkpt lat="43.82092" lon="5.30892">
        <ele>340</ele>
        <time>2010-10-03T14:26:49Z</time>
      </trkpt>
      <trkpt lat="43.82085" lon="5.309">
        <ele>341</ele>
        <time>2010-10-03T14:27:23Z</time>
      </trkpt>
      <trkpt lat="43.82047" lon="5.30907">
        <ele>341</ele>
        <time>2010-10-03T14:28:58Z</time>
      </trkpt>
      <trkpt lat="43.82031" lon="5.30909">
        <ele>341.3</ele>
        <time>2010-10-03T14:29:01Z</time>
      </trkpt>
      <trkpt lat="43.82042" lon="5.30909">
        <ele>341</ele>
        <time>2010-10-03T14:29:37Z</time>
      </trkpt>
      <trkpt lat="43.82034" lon="5.30906">
        <ele>342</ele>
        <time>2010-10-03T14:30:26Z</time>
      </trkpt>
      <trkpt lat="43.82034" lon="5.30906">
        <ele>342</ele>
        <time>2010-10-03T14:30:26Z</time>
      </trkpt>
    </trkseg>
  </trk>
</gpx>